     2              OBSERVATION DATA    GPS                 RINEX VERSION / TYPE
teqc 2000Feb29 simon 20000627 21:01:42UTC                   PGM / RUN BY / DATE
                                                            COMMENT
L2: 1 -> 1; 150 -> 5; 250 -> 9                              COMMENT
L2: 1 -> 1; 150 -> 5; 250 -> 9                              COMMENT
L2: 1 -> 1; 150 -> 5; 250 -> 9                              COMMENT
L2: 1 -> 1; 150 -> 5; 250 -> 9                              COMMENT
L2: 1 -> 1; 150 -> 5; 250 -> 9                              COMMENT
Original Marker Name: TROP                                  COMMENT
Campaign Name: China Lake April 2000                        COMMENT
4-Character Station Name: TROP                              COMMENT
6-Character Antenna Code: ASHGD3                            COMMENT
Vertical Measurement Point: TGP                             COMMENT
Vertical Offset to Rinex Ref. Point: 0.0640                 COMMENT
Radial Measurement Point: OOH                               COMMENT
Radial Offset to Rinex Ref. Point: 0.1737                   COMMENT
Antenna Height from Field Measurement: 1.3380 m             COMMENT
Additional Antenna Identification Info.:                    COMMENT
The Whopper (700718AB)                                      COMMENT
Original XYZ: -2472613.0200 -4610149.2200 3637153.8800      COMMENT
New XYZ position is based on association with SCEC monument COMMENT
E1E9W3H4+0011. Position of that monument is believed to be  COMMENT
valid to within 1 m horizontally; vertical accuracy         COMMENT
should be no worse than 3-times this value.                 COMMENT
                                                            COMMENT
Revised Rinex header created by UCSD GPS archive for        COMMENT
GSAC on 18-Sep-2001 (2001:261) 21:00:04 GMT                 COMMENT
For assistance contact dagnew@ucsd.edu                      COMMENT
or anderson@python.ucsd.edu                                 COMMENT
                                                            COMMENT
NONE                                                        MARKER NAME
trop                                                        MARKER NUMBER
LCS US NATIONAL IMAGERY MAPPING AGENCY                      OBSERVER / AGENCY
496 ASHTECH Z-XII3 4J30                                     REC # / TYPE / VERS
965 ASHTECH GEODETIC III                                    ANT # / TYPE
 -2472697.5312 -4610396.8321  3637627.4592                  APPROX POSITION XYZ
        1.2627        0.0000        0.0000                  ANTENNA: DELTA H/E/N
     1     1     0                                          WAVELENGTH FACT L1/2
     7    L1    L2    C1    P1    P2    S1    S2            # / TYPES OF OBSERV
    30                                                      INTERVAL
  2000     4    19    15     1    0.000000                  TIME OF FIRST OBS
  2000     4    19    21    29   60.000000                  TIME OF LAST OBS
                                                            END OF HEADER
 00  4 19 15  1  0.0000000  0  7G27G 2G26G 7G 8G11G13
     51705.29849     30913.01847  20947096.509    20947096.059    20947106.335
       234.000         193.000
    -17587.23159     -9932.64757  20227066.026    20227065.387    20227073.359
       240.000         206.000
    -21797.92549    -13044.42047  21471285.180    21471284.310    21471293.375
       235.000         195.000
    -48828.96659    -25818.71457  19730981.562    19730981.078    19730989.450
       238.000         207.000
     50421.72259     32467.01457  20202976.906    20202976.140    20202984.977
       241.000         205.000
      4514.02656                  22955487.932                    22955497.151
       220.000         166.000
     16975.65556                  22646742.044                    22646750.551
       225.000         170.000
 00  4 19 15  1 30.0000000  0  7G27G 2G26G 7G 8G11G13
    112053.66949     77937.55247  20958580.748    20958580.131    20958590.235
       233.000         192.000
    -32084.12549    -21228.98847  20224307.629    20224306.709    20224314.842
       240.000         204.000
    -46495.60249    -32289.43247  21466585.158    21466584.580    21466593.620
       235.000         194.000
    -98314.15549    -64378.61747  19721565.216    19721564.381    19721572.823
       238.000         208.000
     99203.59449     70478.75447  20212259.976    20212259.037    20212267.999
       241.000         206.000
     15215.25159     10219.23456  22956881.614    22956880.956    22956893.353
       217.000         164.000
    125679.77659     81961.67356  22662610.602    22662610.152    22662621.253
       221.000         164.000
 00  4 19 15  2  0.0000000  0  7G27G 2G26G 7G 8G11G13
    172854.80849    125314.89447  22169320.793    22169320.122    22169330.074
       234.000         191.000
    -46346.84649    -32342.85047  21420763.491    21420762.548    21420770.555
       241.000         206.000
    -70568.87749    -51047.90047  22661173.976    22661173.518    22661182.479
       237.000         194.000
   -147235.78349   -102499.35447  20911425.643    20911424.734    20911433.164
       239.000         206.000
    148457.90149    108858.63147  21420802.722    21420801.763    21420810.693
       240.000         206.000
     23134.03849     16389.60646  24157558.671    24157558.154    24157569.988
       223.000         164.000
    209284.40849    147107.86046  23877689.837    23877689.367    23877700.746
       223.000         167.000
 00  4 19 15  2 30.0000000  0  7G27G 2G26G 7G 8G11G13
    234017.85149    172974.23647  22180959.827    22180959.161    22180969.119
       231.000         192.000
    -60472.58249    -43349.99347  21418075.564    21418074.573    21418082.620
       240.000         205.000
    -94117.61149    -69397.61047  22656692.788    22656692.353    22656701.352
       235.000         194.000
   -195716.19649   -140276.30047  20902200.131    20902199.159    20902207.634
       237.000         207.000
    198106.10749    147545.43647  21430250.500    21430249.586    21430258.515
       241.000         206.000
     31540.96949     22940.35645  24159158.447    24159157.730    24159169.535
       224.000         155.000
    293029.56649    212363.55946  23893626.116    23893625.742    23893637.072
       224.000         166.000
 00  4 19 15  3  0.0000000  0  7G27G 2G26G 7G 8G11G13
    295527.84949    220903.92547  22192664.938    22192664.207    22192674.174
       234.000         193.000
    -74460.69849    -54249.84647  21415413.813    21415412.750    21415420.799
       238.000         200.000
   -117133.34349    -87331.98347  22652313.037    22652312.614    22652321.648
       234.000         192.000
   -243747.76749   -177703.46247  20893060.008    20893059.000    20893067.503
       234.000         201.000
    248134.89349    186528.78547  21439770.750    21439769.812    21439778.752
       242.000         210.000
     40440.72849     29875.08845  24160852.110    24160851.313    24160863.150
       216.000         155.000
    376888.80549    277708.15646  23909584.136    23909583.803    23909595.086
       226.000         169.000
 00  4 19 15  3 30.0000000  0  7G27G 2G26G 7G 8G11G13
    357356.39649    269081.85747  22204430.682    22204429.887    22204439.856
       232.000         192.000
    -88333.91649    -65060.19747  21412773.894    21412772.817    21412780.861
       240.000         206.000
   -139623.02249   -104856.48847  22648033.429    22648033.010    22648042.048
       235.000         194.000
   -291338.38949   -214787.08347  20884003.845    20884002.813    20884011.337
       237.000         207.000
    298522.53049    225791.78647  21449359.278    21449358.323    21449367.299
       240.000         205.000
     49829.37749     37190.79846  24162638.968    24162638.106    24162650.008
       223.000         166.000
    460834.54949    343120.15446  23925558.586    23925558.280    23925569.482
       222.000         167.000
 00  4 19 15  4  0.0000000  0  8G27G 2G26G 4G 7G 8G11G13
    419648.68449    317621.11647  22216284.625    22216283.804    22216293.761
       233.000         191.000
   -101963.96049    -75681.05147  21410180.231    21410179.121    21410187.181
       241.000         206.000
   -161448.75949   -121863.60647  22643880.187    22643879.746    22643888.757
       235.000         194.000
   -405442.26159   -300422.31855  25100955.699    25100953.616    25100974.413
       198.000         132.000
   -338372.42149   -251436.97147  20875053.575    20875052.532    20875061.055
       237.000         207.000
    349399.05549    265435.72747  21459040.781    21459039.836    21459048.802
       241.000         205.000
     59807.32749     44965.70246  24164537.880    24164536.963    24164548.901
       223.000         166.000
    544983.59149    408690.55646  23941571.796    23941571.424    23941582.590
       224.000         166.000
 00  4 19 15  4 30.0000000  0  8G27G 2G26G 4G 7G 8G11G13
    482596.80349    366671.43347  22228263.425    22228262.512    22228272.492
       233.000         192.000
   -115182.03649    -85980.89447  21407664.967    21407663.833    21407671.905
       241.000         206.000
   -182422.15049   -138206.55947  22639889.103    22639888.674    22639897.670
       236.000         195.000
   -523629.20249   -392515.99455  25078465.552    25078465.990    25078483.874
       204.000         138.000
   -384668.89449   -287512.13447  20866243.730    20866242.625    20866251.166
       237.000         207.000
    400951.56449    305606.41147  21468851.028    21468849.997    21468858.952
       240.000         204.000
     70544.74849     53332.36046  24166581.154    24166580.255    24166592.318
       225.000         165.000
    629505.71449    474551.69546  23957656.042    23957655.571    23957666.684
       224.000         167.000
 00  4 19 15  5  0.0000000  0  8G27G 2G26G 4G 7G 8G11G13
    545945.60249    416033.96847  22240318.399    22240317.470    22240327.478
       230.000         190.000
   -128282.84749    -96189.36647  21405172.083    21405170.884    21405178.952
       241.000         206.000
   -202823.78049   -154103.98247  22636006.871    22636006.426    22636015.411
       235.000         194.000
   -641936.58159   -484703.58244  25055952.314    25055951.373    25055969.680
       197.000         131.000
   -430492.35449   -323218.71747  20857523.900    20857522.754    20857531.297
       236.000         208.000
    452898.52449    346084.46847  21478736.299    21478735.227    21478744.181
       240.000         204.000
     81763.97849     62074.49845  24168716.334    24168715.326    24168727.275
       221.000         161.000
    714107.61949    540474.97946  23973755.488    23973754.949    23973766.016
       222.000         166.000
 00  4 19 15  5 30.0000000  0  8G27G 2G26G 4G 7G 8G11G13
    609671.97249    465690.70047  22252445.239    22252444.273    22252454.339
       231.000         190.000
   -141277.52649   -106315.12747  21402699.356    21402698.130    21402706.216
       241.000         206.000
   -222675.03049   -169572.54047  22632229.389    22632228.912    22632237.919
       236.000         195.000
   -760399.97349   -577012.63345  25033409.449    25033408.687    25033426.975
       197.000         137.000
   -475868.83649   -358577.00047  20848889.071    20848887.902    20848896.487
       237.000         208.000
    505210.91149    386847.26047  21488691.056    21488689.991    21488698.974
       240.000         204.000
     93442.37949     71174.41846  24170938.710    24170937.694    24170949.548
       223.000         163.000
    798772.10349    606447.02346  23989866.787    23989866.198    23989877.301
       223.000         167.000
 00  4 19 15  6  0.0000000  0  8G27G 2G26G 4G 7G 8G11G13
    673825.95549    515680.63847  22264653.532    22264652.501    22264662.597
       230.000         191.000
   -154103.86049   -116309.71247  21400258.667    21400257.423    21400265.525
       240.000         207.000
   -241927.37849   -184574.42647  22628565.870    22628565.376    22628574.392
       236.000         194.000
   -878986.51749   -669417.70445  25010843.138    25010842.105    25010860.726
       206.000         141.000
   -520752.85749   -393551.54347  20840347.980    20840346.789    20840355.405
       236.000         208.000
    557929.39749    427926.49547  21498723.187    21498722.063    21498731.063
       240.000         204.000
    105642.09449     80680.55646  24173260.422    24173259.339    24173271.200
       221.000         164.000
    883542.10149    672501.29446  24005998.209    24005997.557    24006008.688
       223.000         165.000
 00  4 19 15  6 30.0000000  0  8G27G 2G26G 4G 7G 8G11G13
    738398.62149    565996.83347  22276941.554    22276940.410    22276950.548
       232.000         190.000
   -166738.44049   -126154.87347  21397854.468    21397853.193    21397861.319
       241.000         207.000
   -260582.68849   -199111.08847  22625016.011    22625015.470    22625024.481
       237.000         194.000
   -997672.04049   -761899.79345  24988258.091    24988257.351    24988275.682
       201.000         134.000
   -565131.84749   -428132.56647  20831902.971    20831901.761    20831910.423
       237.000         208.000
    611060.78649    469327.47247  21508833.867    21508832.713    21508841.731
       240.000         204.000
    118417.05649     90634.92646  24175691.399    24175690.337    24175702.328
       221.000         165.000
    968427.68749    738645.63546  24022151.598    24022150.894    24022162.101
       224.000         166.000
 00  4 19 15  7  0.0000000  0  8G27G 2G26G 4G 7G 8G11G13
    803377.66949    616629.67747  22289306.766    22289305.633    22289315.826
       229.000         189.000
   -179157.26349   -135831.91847  21395491.289    21395490.023    21395498.160
       241.000         206.000
   -278646.17349   -213186.59647  22621578.717    22621578.148    22621587.158
       237.000         194.000
  -1116445.82449   -854450.76645  24965656.064    24965655.426    24965673.759
       205.000         141.000
   -608997.78549   -462313.80047  20823555.573    20823554.365    20823563.042
       237.000         207.000
    664609.79649    511053.86647  21519024.027    21519022.830    21519031.876
       240.000         203.000
    131791.04049    101056.06046  24178236.498    24178235.397    24178247.584
       219.000         165.000
   1053445.03449    804892.64046  24038330.080    24038329.355    24038340.612
       224.000         165.000
 00  4 19 15  7 30.0000000  0  8G27G 2G26G 4G 7G 8G11G13
    868747.15049    667566.76247  22301746.323    22301745.157    22301755.420
       228.000         189.000
   -191334.36249   -145320.60347  21393174.137    21393172.864    21393181.013
       241.000         207.000
   -296113.78049   -226797.78247  22618254.799    22618254.229    22618263.235
       236.000         194.000
  -1235289.55148   -947056.18144  24943040.909    24943040.282    24943058.530
       192.000         131.000
   -652339.35649   -496086.43747  20815307.968    20815306.778    20815315.464
       237.000         208.000
    718603.68849    553126.92447  21529298.828    21529297.616    21529306.722
       239.000         203.000
    145779.89449    111956.32846  24180898.639    24180897.501    24180909.770
       221.000         166.000
   1138609.55849    871254.33546  24054536.644    24054535.791    24054547.131
       222.000         163.000
 00  4 19 15  8  0.0000000  0  8G27G 2G26G 4G 7G 8G11G13
    934510.13949    718810.45647  22314260.810    22314259.607    22314269.880
       232.000         189.000
   -203292.05549   -154638.30847  21390898.728    21390897.435    21390905.625
       241.000         207.000
   -312988.54249   -239947.01547  22615043.668    22615043.118    22615052.132
       236.000         195.000
  -1354176.75749  -1039695.38845  24920417.544    24920416.737    24920435.249
       209.000         141.000
   -695141.50049   -529438.75347  20807163.029    20807161.836    20807170.513
       237.000         207.000
    773054.18449    595555.77147  21539660.548    21539659.291    21539668.414
       239.000         203.000
    160369.45749    123324.67646  24183675.118    24183673.975    24183686.329
       220.000         165.000
   1223916.80949    937727.22146  24070770.286    24070769.418    24070780.750
       224.000         163.000
 00  4 19 15  8 30.0000000  0  8G27G 2G26G 4G 7G 8G11G13
   1000673.73949    770366.31747  22326851.524    22326850.283    22326860.564
       231.000         189.000
   -215038.63849   -163791.50847  21388663.474    21388662.179    21388670.402
       241.000         206.000
   -329266.48049   -252631.18247  22611946.171    22611945.597    22611954.630
       237.000         195.000
  -1473082.17949  -1132349.00945  24897790.561    24897789.802    24897808.158
       207.000         141.000
   -737398.94449   -562366.62947  20799121.726    20799120.522    20799129.216
       238.000         207.000
    827964.73749    638343.09747  21550109.759    21550108.510    21550117.655
       239.000         202.000
    175544.17549    135148.98446  24186562.920    24186561.710    24186574.082
       220.000         165.000
   1309381.62749   1004322.90345  24087033.897    24087033.041    24087044.397
       222.000         162.000
 00  4 19 15  9  0.0000000  0  9G27G 2G26G 4G 7G 8G 9G11G13
   1067256.66049    822248.92647  22339522.075    22339520.782    22339531.035
       230.000         189.000
   -226572.65549   -172779.09347  21386468.674    21386467.379    21386475.608
       241.000         207.000
   -344925.19849   -264832.84347  22608966.502    22608965.920    22608974.960
       237.000         195.000
  -1591996.29449  -1225009.21645  24875161.941    24875161.222    24875179.628
       210.000         138.000
   -779095.74749   -594857.64547  20791187.108    20791185.914    20791194.580
       237.000         207.000
    883349.61549    681500.03447  21560649.232    21560647.998    21560657.145
       239.000         201.000
  -1855492.20959  -1431344.93055  25223560.044    25223558.849    25223567.831
       208.000         154.000
    191286.24049    147415.39646  24189558.707    24189557.480    24189569.751
       220.000         164.000
   1395022.41749   1071055.68445  24103331.033    24103330.169    24103341.517
       221.000         161.000
 00  4 19 15  9 30.0000000  0  9G27G 2G26G 4G 7G 8G 9G11G13
   1134276.27049    874471.79247  22352275.679    22352274.361    22352284.613
       231.000         189.000
   -237907.21449   -181611.25747  21384311.820    21384310.526    21384318.781
       241.000         207.000
   -359967.21649   -276553.95947  22606104.144    22606103.587    22606112.649
       237.000         195.000
  -1710924.01249  -1317680.18545  24852530.789    24852530.130    24852548.397
       204.000         140.000
   -820238.45249   -626916.88847  20783357.946    20783356.741    20783365.405
       236.000         206.000
    939199.48549    725019.29547  21571277.236    21571275.972    21571285.111
       239.000         201.000
  -1973688.51049  -1523446.09245  25201068.073    25201067.002    25201076.245
       211.000         141.000
    207583.06649    160114.07646  24192659.870    24192658.706    24192671.080
       221.000         166.000
   1480815.71549   1137907.31145  24119657.158    24119656.301    24119667.675
       221.000         160.000
 00  4 19 15 10  0.0000000  0  9G27G 2G26G 4G 7G 8G 9G11G13
   1201743.06949    927043.12347  22365114.311    22365113.026    22365123.319
       231.000         189.000
   -249043.73449   -190289.09647  21382192.674    21382191.367    21382199.624
       241.000         207.000
   -374388.02149   -287791.00647  22603360.055    22603359.474    22603368.529
       236.000         195.000
  -1829882.21349  -1410374.93145  24829893.856    24829893.015    24829911.126
       207.000         143.000
   -860833.69149   -658549.53747  20775632.923    20775631.723    20775640.376
       236.000         206.000
    995490.91749    768882.62647  21581989.222    21581987.978    21581997.112
       238.000         201.000
  -2091833.53049  -1615507.29945  25178585.898    25178584.905    25178594.224
       214.000         150.000
    224436.84949    173246.74246  24195867.202    24195866.024    24195878.396
       219.000         165.000
   1566751.52849   1204869.98345  24136010.373    24136009.579    24136020.942
       221.000         160.000
 00  4 19 15 10 30.0000000  0  9G27G 2G26G 4G 7G 8G 9G11G13
   1269652.97449    979959.73347  22378037.337    22378036.049    22378046.359
       231.000         190.000
   -259959.33749   -198794.78647  21380115.522    21380114.235    21380122.501
       241.000         207.000
   -388187.37949   -298543.81247  22600734.153    22600733.609    22600742.662
       237.000         195.000
  -1948888.73149  -1503107.17845  24807247.432    24807246.855    24807265.147
       202.000         138.000
   -900895.36149   -689766.41847  20768009.422    20768008.245    20768016.904
       235.000         207.000
   1052221.05249    813087.81147  21592784.685    21592783.452    21592792.596
       238.000         200.000
  -2209904.49849  -1707510.88045  25156117.933    25156116.882    25156126.188
       210.000         148.000
    241862.21249    186824.79946  24199183.321    24199182.130    24199194.484
       222.000         163.000
   1652826.89349   1271941.38345  24152390.209    24152389.380    24152400.815
       221.000         160.000
 00  4 19 15 11  0.0000000  0  9G27G 2G26G 4G 7G 8G 9G11G13
   1337993.60849   1033211.96447  22391042.410    22391041.036    22391051.380
       232.000         191.000
   -270665.15149   -207137.01347  21378078.307    21378077.037    21378085.320
       241.000         207.000
   -401380.04449   -308823.87147  22598223.758    22598223.191    22598232.222
       237.000         195.000
  -2067962.88049  -1595892.31545  24784588.396    24784587.756    24784606.052
       206.000         136.000
   -940431.95249   -720574.14947  20760485.843    20760484.714    20760493.350
       236.000         207.000
   1109386.78149    857632.42147  21603663.076    21603661.811    21603670.973
       239.000         200.000
  -2327896.68549  -1799452.98245  25133664.859    25133663.842    25133673.263
       207.000         150.000
    259850.09749    200841.19446  24202606.538    24202605.299    24202617.556
       218.000         164.000
   1739024.02149   1339107.68045  24168793.271    24168792.354    24168803.877
       221.000         160.000
 00  4 19 15 11 30.0000000  0  9G27G 2G26G 4G 7G 8G 9G11G13
   1406770.44849   1086804.09147  22404130.376    22404128.990    22404139.395
       233.000         190.000
   -281155.12749   -215311.04647  21376082.190    21376080.913    21376089.188
       241.000         207.000
   -413956.71249   -318623.92547  22595830.596    22595830.015    22595839.042
       236.000         195.000
  -2187086.48149  -1688715.93645  24761919.986    24761919.372    24761937.584
       199.000         140.000
   -979435.29849   -750966.36347  20753063.800    20753062.647    20753071.276
       236.000         206.000
   1167000.02749    902525.73947  21614626.598    21614625.326    21614634.515
       238.000         199.000
  -2445810.22749  -1891333.82645  25111226.684    25111225.752    25111235.182
       213.000         151.000
    278407.75749    215301.56145  24206137.865    24206136.696    24206149.086
       218.000         161.000
   1825341.38349   1406367.66145  24185219.244    24185218.264    24185229.834
       221.000         159.000
 00  4 19 15 12  0.0000000  0  9G27G 2G26G 4G 7G 8G 9G11G13
   1475968.88249   1140724.71847  22417298.596    22417297.183    22417307.648
       233.000         189.000
   -291430.18049   -223317.61547  21374126.975    21374125.694    21374133.956
       241.000         207.000
   -425907.34849   -327936.15947  22593556.538    22593555.946    22593564.995
       237.000         195.000
  -2306249.92049  -1781570.56045  24739244.081    24739243.345    24739261.448
       207.000         142.000
  -1017907.08649   -780944.37147  20745742.919    20745741.741    20745750.382
       236.000         206.000
   1225064.87749    947770.94747  21625676.025    21625674.793    21625683.994
       238.000         199.000
  -2563628.27749  -1983140.22745  25088806.907    25088805.842    25088815.444
       209.000         145.000
    297528.31649    230200.54245  24209776.603    24209775.391    24209787.624
       219.000         162.000
   1911795.63949   1473734.30645  24201671.301    24201670.221    24201681.798
       222.000         160.000
 00  4 19 15 12 30.0000000  0  9G27G 2G26G 4G 7G 8G 9G11G13
   1545602.49149   1194984.45747  22430549.605    22430548.200    22430558.704
       231.000         189.000
   -301482.50449   -231150.62647  21372214.137    21372212.852    21372221.099
       241.000         207.000
   -437206.98149   -336741.12647  22591406.333    22591405.740    22591414.808
       236.000         195.000
  -2425421.28349  -1874431.39445  24716566.502    24716565.822    24716583.733
       208.000         141.000
  -1055843.29849   -810505.05047  20738523.965    20738522.761    20738531.393
       236.000         207.000
   1283598.15149    993381.17147  21636814.661    21636813.383    21636822.621
       237.000         199.000
  -2681327.67449  -2074854.21045  25066409.611    25066408.568    25066418.176
       211.000         147.000
    317217.25749    245542.41645  24213523.451    24213522.234    24213534.492
       218.000         162.000
   1998404.07949   1541221.09845  24218152.706    24218151.548    24218163.122
       221.000         157.000
 00  4 19 15 13  0.0000000  0  9G27G 2G26G 4G 7G 8G 9G11G13
   1615671.88149   1249583.76347  22443883.557    22443882.130    22443892.686
       232.000         189.000
   -311321.32249   -238817.26947  21370341.927    21370340.637    21370348.871
       242.000         207.000
   -447852.54449   -345036.43347  22589380.628    22589380.029    22589389.104
       237.000         196.000
  -2544590.27549  -1967290.32145  24693889.244    24693888.781    24693906.755
       208.000         140.000
  -1093236.69749   -839642.76647  20731408.246    20731407.058    20731415.669
       237.000         207.000
   1342594.65949   1039352.35147  21648041.399    21648040.139    21648049.403
       238.000         199.000
  -2798914.49149  -2166480.40345  25044033.696    25044032.659    25044042.329
       206.000         148.000
    337471.72449    261324.97945  24217377.921    24217376.655    24217388.954
       219.000         160.000
   2085159.41249   1608822.35345  24234661.975    24234660.817    24234672.412
       222.000         159.000
 00  4 19 15 13 30.0000000  0  9G27G 2G26G 4G 7G 8G 9G11G13
   1686189.35949   1304532.22547  22457302.718    22457301.327    22457311.980
       229.000         188.000
   -320927.34649   -246302.51547  21368514.025    21368512.737    21368520.962
       242.000         207.000
   -457829.67949   -352810.89147  22587482.087    22587481.507    22587490.619
       236.000         195.000
  -2663745.58549  -2060138.70345  24671215.028    24671214.418    24671232.221
       204.000         144.000
  -1130090.33749   -868359.88247  20724395.266    20724394.072    20724402.652
       236.000         206.000
   1402044.54849   1085676.80647  21659354.406    21659353.164    21659362.477
       237.000         199.000
  -2916370.33149  -2258004.65045  25021682.729    25021681.656    25021691.391
       209.000         148.000
    358309.32549    277561.90645  24221343.009    24221341.900    24221354.402
       214.000         160.000
   2172053.98249   1676532.10145  24251197.724    24251196.488    24251208.202
       221.000         156.000
 00  4 19 15 14  0.0000000  0  9G27G 2G26G 4G 7G 8G 9G11G13
   1757162.23249   1359835.54447  22470808.601    22470807.205    22470817.895
       229.000         188.000
   -330287.86349   -253596.45147  21366732.794    21366731.531    21366739.753
       242.000         207.000
   -467133.79349   -360060.91547  22585711.619    22585711.041    22585720.204
       236.000         195.000
  -2782875.21249  -2152966.81845  24648545.389    24648544.686    24648562.570
       210.000         135.000
  -1166395.50049   -896649.61647  20717486.594    20717485.434    20717494.002
       236.000         207.000
   1461946.12349   1132353.22447  21670753.415    21670752.153    21670761.504
       238.000         199.000
  -3033680.67249  -2349415.39845  24999359.468    24999358.349    24999368.230
       206.000         145.000
    379748.45249    294267.53445  24225422.626    24225421.654    24225434.347
       217.000         158.000
   2259088.55749   1744350.92945  24267759.974    24267758.811    24267770.567
       218.000         155.000
 00  4 19 15 14 30.0000000  0  9G27G 2G26G 4G 7G 8G 9G11G13
   1828593.34049   1415495.93446  22484401.656    22484400.271    22484410.998
       233.000         187.000
   -339390.10649   -260689.14447  21365000.707    21364999.457    21365007.689
       241.000         207.000
   -475780.21049   -366798.43747  22584066.353    22584065.743    22584074.929
       237.000         195.000
  -2901978.18049  -2245774.33245  24625880.796    24625880.156    24625898.024
       205.000         149.000
  -1202139.41249   -924502.01047  20710684.785    20710683.629    20710692.160
       235.000         206.000
   1522302.30849   1179383.88747  21682238.878    21682237.644    21682247.038
       237.000         199.000
  -3150847.00149  -2440714.04845  24977063.533    24977062.459    24977072.311
       201.000         146.000
    401804.50749    311453.94745  24229620.061    24229618.915    24229631.488
       219.000         158.000
   2346235.17349   1812257.08045  24284343.651    24284342.492    24284354.302
       220.000         156.000
 00  4 19 15 15  0.0000000  0  9G27G 2G26G 4G 7G 8G 9G11G13
   1900487.87549   1471517.45446  22498082.893    22498081.491    22498092.287
       229.000         187.000
   -348221.88249   -267571.08547  21363320.139    21363318.881    21363327.113
       241.000         207.000
   -483779.99149   -373032.09447  22582544.089    22582543.488    22582552.677
       236.000         195.000
  -3021046.95749  -2338555.15845  24603222.831    24603222.062    24603239.556
       212.000         139.000
  -1237295.14449   -951896.08947  20703994.920    20703993.745    20704002.257
       235.000         205.000
   1583130.34649   1226782.23047  21693814.192    21693812.938    21693822.376
       236.000         198.000
  -3267850.10749  -2531885.41245  24954798.713    24954797.637    24954807.615
       210.000         145.000
    424481.24649    329124.00745  24233935.485    24233934.294    24233946.768
       219.000         159.000
   2433491.41249   1880248.62445  24300948.133    24300947.002    24300958.947
       218.000         157.000
 00  4 19 15 15 30.0000000  0  9G27G 2G26G 4G 7G 8G 9G11G13
   1972942.54049   1527975.41846  22511870.711    22511869.321    22511880.176
       229.000         186.000
   -356684.37049   -274165.25947  21361709.829    21361708.570    21361716.813
       242.000         208.000
   -491037.96249   -378687.71447  22581163.024    22581162.414    22581171.599
       236.000         195.000
  -3139975.82149  -2431226.77145  24580591.349    24580590.605    24580608.461
       212.000         144.000
  -1271765.22049   -978755.89247  20697435.527    20697434.337    20697442.805
       235.000         206.000
   1644534.86849   1274629.77947  21705499.257    21705497.936    21705507.429
       237.000         199.000
  -3384588.87949  -2622850.79145  24932584.177    24932583.058    24932593.101
       214.000         153.000
    447864.39049    347344.49345  24238385.150    24238383.999    24238396.638
       216.000         160.000
   2520955.53349   1948402.15345  24317592.227    24317591.071    24317603.127
       220.000         155.000
 00  4 19 15 16  0.0000000  0  9G27G 2G26G 4G 7G 8G 9G11G13
   2045849.82349   1584786.07146  22525744.705    22525743.284    22525754.202
       231.000         186.000
   -364884.10849   -280554.69147  21360149.497    21360148.249    21360156.503
       242.000         208.000
   -497665.39949   -383852.00847  22579901.910    22579901.311    22579910.503
       236.000         194.000
  -3258868.59649  -2523870.48645  24557966.771    24557966.130    24557983.853
       205.000         142.000
  -1305640.52349  -1005152.23647  20690989.282    20690988.103    20690996.559
       235.000         206.000
   1706430.51449   1322860.01347  21717277.754    21717276.400    21717285.915
       237.000         198.000
  -3501161.75849  -2713686.96545  24910401.236    24910400.042    24910410.216
       212.000         143.000
    471840.71749    366027.20945  24242947.905    24242946.680    24242959.413
       218.000         159.000
   2608538.02949   2016647.95545  24334258.860    24334257.717    24334269.810
       218.000         157.000
 00  4 19 15 16 30.0000000  0  9G27G 2G26G 4G 7G 8G 9G11G13
   2119179.89549   1641926.16846  22539699.106    22539697.705    22539708.679
       229.000         186.000
   -372841.09749   -286754.96247  21358635.365    21358634.116    21358642.375
       242.000         207.000
   -503693.68949   -388549.43647  22578754.798    22578754.201    22578763.397
       237.000         195.000
  -3377756.83549  -2616510.46945  24535343.135    24535342.480    24535360.248
       204.000         140.000
  -1338942.07749  -1031101.49847  20684652.234    20684651.053    20684659.506
       235.000         206.000
   1768797.27649   1371457.35147  21729145.843    21729144.524    21729154.086
       237.000         199.000
  -3617598.17649  -2804416.74045  24888244.434    24888243.108    24888253.277
       210.000         148.000
    496378.23849    385147.20545  24247617.326    24247616.107    24247628.953
       217.000         160.000
   2696234.68349   2084982.67045  24350947.185    24350946.030    24350958.250
       217.000         154.000
 00  4 19 15 17  0.0000000  0  9G27G 2G26G 4G 7G 8G 9G11G13
   2192918.85249   1699384.88846  22553731.332    22553729.929    22553740.984
       229.000         185.000
   -380572.46249   -292779.42747  21357164.213    21357162.938    21357171.201
       242.000         207.000
   -509110.37349   -392770.28847  22577724.080    22577723.500    22577732.680
       238.000         195.000
  -3496641.42349  -2709147.67545  24512720.042    24512719.461    24512737.189
       213.000         147.000
  -1371689.60949  -1056619.05847  20678420.572    20678419.417    20678427.864
       236.000         206.000
   1831624.60149   1420413.57647  21741101.608    21741100.292    21741109.897
       237.000         199.000
  -3733914.24249  -2895052.83945  24866110.392    24866109.056    24866119.158
       214.000         150.000
    521457.85849    404689.61345  24252389.911    24252388.699    24252401.615
       217.000         156.000
   2784070.01549   2153425.47745  24367661.911    24367660.776    24367673.128
       215.000         154.000
 00  4 19 15 17 30.0000000  0  9G27G 2G26G 4G 7G 8G 9G11G13
   2267070.88449   1757165.46746  22567842.104    22567840.758    22567851.919
       229.000         184.000
   -388065.09149   -298617.87047  21355738.452    21355737.174    21355745.434
       242.000         207.000
   -513903.94949   -396505.60647  22576811.934    22576811.378    22576820.553
       237.000         195.000
  -3615513.89549  -2801775.34945  24490099.267    24490098.726    24490116.617
       212.000         140.000
  -1403889.69949  -1081710.04347  20672293.144    20672291.956    20672300.417
       235.000         206.000
   1894912.64749   1469728.80647  21753145.035    21753143.705    21753153.368
       237.000         198.000
  -3850106.29949  -2985592.15745  24843999.845    24843998.536    24844008.724
       216.000         146.000
    547104.58549    424673.98345  24257270.519    24257269.261    24257282.044
       219.000         159.000
   2872066.26349   2221993.64845  24384407.371    24384406.181    24384418.639
       217.000         155.000
 00  4 19 15 18  0.0000000  0  9G27G 2G26G 4G 7G 8G 9G11G13
   2341618.68349   1815254.43646  22582028.274    22582026.895    22582038.111
       229.000         183.000
   -395334.41249   -304282.31247  21354355.184    21354353.921    21354362.172
       241.000         207.000
   -518094.05449   -399770.69347  22576014.628    22576014.075    22576023.254
       236.000         195.000
  -3734389.94349  -2894405.88645  24467477.714    24467477.349    24467495.204
       208.000         142.000
  -1435552.67649  -1106382.50047  20666267.919    20666266.724    20666275.186
       235.000         206.000
   1958634.38249   1519381.95947  21765270.999    21765269.662    21765279.364
       236.000         199.000
  -3966181.40449  -3076040.44045  24821911.545    24821910.350    24821920.507
       207.000         150.000
    573316.10649    445098.43045  24262258.633    24262257.336    24262270.098
       218.000         160.000
   2960205.88349   2290673.54445  24401180.012    24401178.832    24401191.335
       218.000         155.000
 00  4 19 15 18 30.0000000  0  9G27G 2G26G 4G 7G 8G 9G11G13
   2416557.53949   1873648.13046  22596288.903    22596287.438    22596298.747
       229.000         182.000
   -402379.43949   -309771.97447  21353014.615    21353013.350    21353021.596
       242.000         207.000
   -521670.44849   -402557.56347  22575334.144    22575333.573    22575342.779
       237.000         194.000
  -3853256.22749  -2987028.81845  24444858.051    24444857.819    24444875.561
       205.000         145.000
  -1466679.91349  -1130637.49547  20660344.654    20660343.448    20660351.923
       236.000         206.000
   2022789.45549   1569372.79547  21777479.466    21777478.102    21777487.837
       238.000         199.000
  -4082144.40649  -3166401.36145  24799844.592    24799843.477    24799853.678
       215.000         148.000
    600104.29149    465972.21645  24267356.375    24267355.064    24267367.970
       218.000         162.000
   3048469.50649   2359450.05845  24417976.193    24417975.103    24417987.743
       217.000         155.000
 00  4 19 15 19  0.0000000  0  9G27G 2G26G 4G 7G 8G 9G11G13
   2491904.59849   1932359.90146  22610627.122    22610625.666    22610637.025
       226.000         182.000
   -409192.73649   -315081.05947  21351718.151    21351716.877    21351725.102
       242.000         207.000
   -524617.34149   -404853.91547  22574773.475    22574772.854    22574782.100
       237.000         195.000
  -3972096.46449  -3079631.44745  24422243.466    24422243.181    24422260.873
       205.000         142.000
  -1497277.65249  -1154479.89947  20654522.096    20654520.903    20654529.398
       234.000         205.000
   2087380.24249   1619703.14047  21789770.824    21789769.459    21789779.220
       237.000         199.000
  -4197974.08449  -3256658.34845  24777802.928    24777801.889    24777812.118
       210.000         143.000
    627483.57949    487306.57345  24272566.522    24272565.295    24272578.377
       218.000         161.000
   3136837.29849   2428307.73445  24434792.320    24434791.162    24434804.007
       217.000         154.000
 00  4 19 15 19 30.0000000  0  9G27G 2G26G 4G 7G 8G 9G11G13
   2567660.95549   1991390.59346  22625043.274    22625041.789    22625053.215
       228.000         181.000
   -415775.66449   -320210.64347  21350465.495    21350464.222    21350472.435
       241.000         207.000
   -526959.84449   -406679.31947  22574327.778    22574327.173    22574336.434
       237.000         194.000
  -4090918.49849  -3172219.78745  24399632.280    24399631.967    24399649.714
       211.000         145.000
  -1527346.21349  -1177909.95747  20648800.232    20648799.053    20648807.537
       235.000         205.000
   2152392.58949   1670361.97447  21802142.459    21802141.041    21802150.843
       239.000         198.000
  -4313664.53949  -3346806.90445  24755787.811    24755786.940    24755797.170
       209.000         149.000
    655442.79849    509092.86745  24277887.241    24277885.904    24277898.891
       218.000         159.000
   3225275.15349   2497220.03145  24451621.764    24451620.551    24451633.533
       217.000         157.000
 00  4 19 15 20  0.0000000  0  9G27G 2G26G 4G 7G 8G 9G11G13
   2643837.57749   2050748.76346  22639539.342    22639537.870    22639549.346
       226.000         180.000
   -422129.95449   -325162.06847  21349256.342    21349255.081    21349263.299
       242.000         207.000
   -528690.01849   -408027.58147  22573998.611    22573997.983    22574007.276
       237.000         194.000
  -4209707.27349  -3264782.32045  24377027.307    24377027.117    24377044.927
       210.000         146.000
  -1556870.03549  -1200915.54147  20643182.016    20643180.842    20643189.333
       234.000         205.000
   2217838.62949   1721358.74547  21814596.593    21814595.141    21814604.983
       237.000         199.000
  -4429207.80649  -3436840.74645  24733800.817    24733799.854    24733810.060
       213.000         148.000
    683973.44149    531324.39246  24283316.549    24283315.274    24283328.312
       218.000         163.000
   3313770.66549   2566177.21745  24468462.120    24468460.956    24468474.102
       218.000         157.000
 00  4 19 15 20 30.0000000  0  9G27G 2G26G 4G 7G 8G 9G11G13
   2720431.65749   2110432.26046  22654114.944    22654113.450    22654124.906
       228.000         181.000
   -428262.69949   -329940.84947  21348089.291    21348088.085    21348096.315
       241.000         207.000
   -529807.08149   -408898.08547  22573786.061    22573785.471    22573794.773
       236.000         193.000
  -4328461.56749  -3357317.90645  24354429.131    24354428.865    24354446.587
       211.000         141.000
  -1585870.87349  -1223513.59147  20637663.327    20637662.171    20637670.660
       234.000         204.000
   2283721.81149   1772696.15047  21827133.878    21827132.445    21827142.324
       238.000         198.000
  -4544618.75049  -3526771.40645  24711838.952    24711837.963    24711848.297
       215.000         150.000
    713062.93049    553991.38845  24288852.138    24288850.917    24288864.098
       216.000         160.000
   3402326.89449   2635181.70145  24485314.018    24485312.905    24485326.160
       217.000         157.000
 00  4 19 15 21  0.0000000  0  9G27G 2G26G 4G 7G 8G 9G11G13
   2797436.51549   2170435.80446  22668768.597    22668767.142    22668778.654
       225.000         180.000
   -434184.03049   -334554.90747  21346962.514    21346961.303    21346969.566
       241.000         207.000
   -530327.34149   -409303.55047  22573687.098    22573686.530    22573695.834
       236.000         194.000
  -4447182.95849  -3449827.87045  24331837.072    24331836.854    24331854.625
       208.000         144.000
  -1614363.23049  -1245715.43947  20632241.393    20632240.274    20632248.739
       233.000         204.000
   2350018.32449   1824355.62847  21839749.815    21839748.385    21839758.286
       236.000         199.000
  -4659906.93449  -3616606.46845  24689900.385    24689899.393    24689909.733
       212.000         149.000
    742683.22149    577072.03145  24294488.776    24294487.561    24294500.745
       218.000         159.000
   3490951.09749   2704239.21845  24502178.921    24502177.791    24502191.053
       215.000         158.000
 00  4 19 15 21 30.0000000  0  9G27G 2G26G 4G 7G 8G 9G11G13
   2874829.58749   2230741.85446  22683496.174    22683494.740    22683506.264
       224.000         180.000
   -439909.52549   -339016.37847  21345873.016    21345871.804    21345880.075
       241.000         207.000
   -530271.57949   -409260.16747  22573697.785    22573697.198    22573706.522
       236.000         194.000
  -4565885.47349  -3542323.17645  24309248.699    24309248.565    24309266.069
       203.000         142.000
  -1642352.80849  -1267525.50447  20626915.178    20626914.047    20626922.497
       233.000         204.000
   2416719.12849   1876330.13147  21852442.669    21852441.255    21852451.179
       238.000         198.000
  -4775086.30949  -3706356.69545  24667982.703    24667981.631    24667991.979
       216.000         148.000
    772818.77849    600554.15745  24300223.457    24300222.260    24300235.340
       217.000         157.000
   3579640.40649   2773347.42945  24519056.314    24519055.108    24519068.385
       217.000         157.000
 00  4 19 15 22  0.0000000  0  9G27G 2G26G 4G 7G 8G 9G11G13
   2952610.30849   2291349.98446  22698297.535    22698296.125    22698307.643
       228.000         180.000
   -445437.31049   -343323.78247  21344821.131    21344819.929    21344828.218
       241.000         207.000
   -529621.48149   -408753.65547  22573821.489    22573820.924    22573830.290
       236.000         194.000
  -4684560.27949  -3634796.77645  24286665.541    24286665.373    24286682.890
       208.000         145.000
  -1669837.98949  -1288942.53747  20621684.857    20621683.765    20621692.236
       233.000         204.000
   2483839.67449   1928631.71247  21865215.446    21865213.999    21865223.933
       238.000         198.000
  -4890153.80849  -3796019.73245  24646086.063    24646085.076    24646095.509
       216.000         150.000
    803480.50549    624446.30345  24306058.343    24306057.132    24306070.205
       215.000         158.000
   3668414.84649   2842521.96145  24535949.762    24535948.533    24535961.951
       217.000         153.000
 00  4 19 15 22 30.0000000  0  9G27G 2G26G 4G 7G 8G 9G11G13
   3030756.97549   2352243.23346  22713168.521    22713167.115    22713178.665
       228.000         179.000
   -450769.68249   -347478.91647  21343806.452    21343805.244    21343813.553
       242.000         207.000
   -528387.22749   -407791.96447  22574056.393    22574055.837    22574065.226
       236.000         193.000
  -4803224.24149  -3727261.95945  24264084.226    24264084.173    24264101.768
       211.000         150.000
  -1696833.35049  -1309977.89547  20616547.810    20616546.715    20616555.196
       234.000         204.000
   2551360.06449   1981244.84447  21878064.245    21878062.828    21878072.757
       238.000         197.000
  -5005121.18449  -3885604.77045  24624208.656    24624207.587    24624218.052
       215.000         148.000
    834656.03649    648738.78345  24311990.849    24311989.692    24312002.773
       219.000         158.000
   3757271.11649   2911760.27045  24552858.821    24552857.617    24552871.075
       215.000         154.000
 00  4 19 15 23  0.0000000  0  9G27G 2G26G 4G 7G 8G 9G11G13
   3109274.40849   2413425.43346  22728110.184    22728108.698    22728120.248
       224.000         179.000
   -455881.46549   -351462.17447  21342833.723    21342832.548    21342840.858
       241.000         207.000
   -526561.01249   -406368.99947  22574403.975    22574403.416    22574412.827
       237.000         194.000
  -4921866.48549  -3819710.28845  24241507.323    24241507.150    24241524.657
       212.000         151.000
  -1723309.99849  -1330609.06147  20611509.511    20611508.397    20611516.869
       234.000         204.000
   2619280.55649   2034169.75347  21890989.217    21890987.792    21890997.727
       236.000         197.000
  -5119963.02449  -3975091.97445  24602355.007    24602353.909    24602364.551
       213.000         150.000
    866360.00449    673443.06545  24318023.967    24318022.871    24318035.983
       216.000         156.000
   3846212.54049   2981064.93245  24569784.103    24569782.867    24569796.415
       217.000         157.000
 00  4 19 15 23 30.0000000  0  9G27G 2G26G 4G 7G 8G 9G11G13
   3188160.95849   2474895.22346  22743121.993    22743120.517    22743132.071
       225.000         179.000
   -460779.46249   -355278.85047  21341901.734    21341900.538    21341908.855
       241.000         208.000
   -524139.72949   -404482.35147  22574864.758    22574864.218    22574873.671
       235.000         194.000
  -5040491.49149  -3912145.09745  24218933.573    24218933.442    24218951.003
       213.000         145.000
  -1749257.28649  -1350827.74047  20606571.976    20606570.823    20606579.284
       233.000         204.000
   2687602.99849   2087407.85847  21903990.638    21903989.234    21903999.199
       236.000         196.000
  -5234670.99749  -4064474.84845  24580526.860    24580525.776    24580536.449
       214.000         147.000
    898609.24349    698572.28945  24324161.031    24324159.878    24324172.768
       215.000         153.000
   3935234.03049   3050431.95945  24586724.558    24586723.335    24586736.922
       219.000         154.000
 00  4 19 15 24  0.0000000  0  9G27G 2G26G 4G 7G 8G 9G11G13
   3267404.03749   2536642.82746  22758201.683    22758200.167    22758211.782
       226.000         179.000
   -465478.23049   -358940.28747  21341007.623    21341006.422    21341014.766
       241.000         208.000
   -521143.24049   -402147.48347  22575435.033    22575434.483    22575443.974
       236.000         194.000
  -5159112.96449  -4004577.16445  24196360.482    24196360.419    24196377.967
       211.000         149.000
  -1774688.64549  -1370644.39547  20601732.585    20601731.422    20601739.882
       234.000         205.000
   2756305.33049   2140941.98847  21917064.350    21917062.972    21917072.975
       236.000         196.000
  -5349262.60749  -4153767.04145  24558720.827    24558719.797    24558730.505
       215.000         150.000
    931381.35949    724108.90945  24330397.348    24330396.242    24330409.208
       218.000         156.000
   4024296.97449   3119831.33045  24603672.912    24603671.716    24603685.376
       215.000         151.000
 00  4 19 15 24 30.0000000  0  9G27G 2G26G 4G 7G 8G 9G11G13
   3347019.49749   2598680.60746  22773352.183    22773350.668    22773362.364
       225.000         178.000
   -469951.75849   -362426.19447  21340156.361    21340155.159    21340163.531
       242.000         208.000
   -517557.52149   -399353.47847  22576117.447    22576116.896    22576126.398
       237.000         194.000
  -5277709.80849  -4096990.08545  24173792.107    24173792.083    24173809.583
       210.000         149.000
  -1799594.34549  -1390051.44747  20596993.235    20596992.044    20597000.523
       234.000         205.000
   2825394.63449   2194777.64347  21930211.711    21930210.355    21930220.394
       237.000         196.000
  -5463717.91949  -4242953.06245  24536940.683    24536939.749    24536950.534
       215.000         149.000
    964694.07449    750066.75745  24336736.520    24336735.462    24336748.622
       217.000         152.000
   4113401.00149   3189262.67745  24620629.212    24620627.905    24620641.681
       217.000         151.000
 00  4 19 15 25  0.0000000  0  9G27G 2G26G 4G 7G 8G 9G11G13
   3427001.92949   2661004.34246  22788572.572    22788571.031    22788582.769
       226.000         180.000
   -474216.47349   -365749.39547  21339344.848    21339343.649    21339352.066
       242.000         208.000
   -513389.07649   -396105.41147  22576910.747    22576910.193    22576919.684
       237.000         194.000
  -5396283.98049  -4189385.29345  24151227.973    24151228.052    24151245.592
       209.000         146.000
  -1823983.36249  -1409055.89247  20592352.198    20592351.010    20592359.496
       234.000         205.000
   2894870.84049   2248914.77947  21943432.728    21943431.352    21943441.421
       236.000         196.000
  -5578035.72349  -4332031.95345  24515186.850    24515185.861    24515196.575
       213.000         152.000
    998540.27849    776440.40245  24343177.455    24343176.306    24343189.416
       216.000         155.000
   4202521.93849   3258707.22445  24637588.617    24637587.368    24637601.183
       215.000         153.000
 00  4 19 15 25 30.0000000  0  9G27G 2G26G 4G 7G 8G 9G11G13
   3507346.48249   2723610.22846  22803861.830    22803860.278    22803872.080
       225.000         179.000
   -478295.14049   -368927.61447  21338568.761    21338567.539    21338575.996
       241.000         208.000
   -508654.11149   -392415.90247  22577811.803    22577811.275    22577820.782
       237.000         194.000
  -5514856.68949  -4281779.42145  24128664.244    24128664.346    24128681.680
       209.000         147.000
  -1847874.91049  -1427672.69247  20587805.854    20587804.623    20587813.116
       233.000         205.000
   2964733.38849   2303352.94947  21956727.205    21956725.870    21956735.965
       235.000         196.000
  -5692231.71749  -4421015.93245  24493456.176    24493455.103    24493465.830
       216.000         150.000
   1032899.25749    803213.58345  24349715.890    24349714.716    24349727.831
       216.000         155.000
   4291632.17549   3328143.39645  24654546.000    24654544.754    24654558.644
       216.000         153.000
 00  4 19 15 26  0.0000000  0  9G27G 2G26G 4G 7G 8G 9G11G13
   3588058.12649   2786502.16346  22819220.952    22819219.387    22819231.203
       226.000         178.000
   -482161.47349   -371940.38047  21337833.065    21337831.848    21337840.321
       242.000         208.000
   -503344.19849   -388278.38247  22578822.331    22578821.786    22578831.286
       237.000         193.000
  -5633417.03849  -4374163.89145  24106102.780    24106102.886    24106120.117
       216.000         150.000
  -1871272.26049  -1445904.40347  20583353.537    20583352.308    20583360.777
       235.000         205.000
   3035005.21749   2358110.04247  21970099.658    21970098.278    21970108.402
       236.000         195.000
  -5806287.69049  -4509890.80445  24471752.200    24471751.098    24471761.776
       214.000         150.000
   1067758.39449    830376.45345  24356349.298    24356348.224    24356361.680
       214.000         155.000
   4380727.32049   3397567.81745  24671500.527    24671499.301    24671513.272
       214.000         148.000
 00  4 19 15 26 30.0000000  0  9G27G 2G26G 4G 7G 8G 9G11G13
   3669122.93349   2849669.29646  22834647.361    22834645.731    22834657.574
       227.000         178.000
   -485822.21249   -374792.95047  21337136.512    21337135.280    21337143.763
       242.000         208.000
   -497453.71649   -383688.47147  22579943.330    22579942.770    22579952.283
       237.000         193.000
  -5751961.31349  -4466535.79545  24083544.531    24083544.524    24083561.779
       212.000         147.000
  -1894181.06349  -1463755.43647  20578994.165    20578992.952    20579001.406
       235.000         205.000
   3105679.61949   2413180.82147  21983548.708    21983547.284    21983557.446
       235.000         195.000
  -5920201.98949  -4598655.28345  24450075.130    24450074.016    24450084.657
       215.000         151.000
   1103111.62049    857924.39345  24363076.813    24363075.793    24363089.191
       215.000         154.000
   4469820.56449   3466990.78745  24688454.674    24688453.459    24688467.548
       216.000         151.000
 00  4 19 15 27  0.0000000  0  9G27G 2G26G 4G 7G 8G 9G11G13
   3750547.59249   2913116.80046  22850142.049    22850140.506    22850152.363
       224.000         177.000
   -489278.50049   -377486.20447  21336478.840    21336477.609    21336486.106
       241.000         208.000
   -490996.71249   -378657.11947  22581172.122    22581171.565    22581181.105
       236.000         194.000
  -5870482.33049  -4558889.59845  24060990.479    24060990.565    24061007.812
       212.000         152.000
  -1916583.55849  -1481211.93747  20574731.112    20574729.927    20574738.384
       234.000         205.000
   3176760.26049   2468568.14347  21997075.054    21997073.618    21997083.831
       234.000         195.000
  -6033966.40349  -4687302.96945  24428426.470    24428425.454    24428436.116
       218.000         148.000
   1138965.01849    885861.99445  24369899.432    24369898.506    24369912.109
       218.000         157.000
   4558915.65549   3536415.16045  24705409.111    24705407.952    24705422.124
       211.000         147.000
 00  4 19 15 27 30.0000000  0  9G27G 2G26G 4G 7G 8G 9G11G13
   3832313.96549   2976830.59246  22865701.835    22865700.331    22865712.254
       224.000         176.000
   -492539.56549   -380027.34147  21335858.303    21335857.090    21335865.606
       241.000         208.000
   -484005.77649   -373209.71247  22582502.514    22582501.962    22582511.502
       237.000         194.000
  -5988985.85349  -4651229.78645  24038439.684    24038439.955    24038457.111
       209.000         149.000
  -1938513.47549  -1498300.19747  20570558.005    20570556.813    20570565.246
       235.000         205.000
   3248221.43849   2524251.97147  22010673.774    22010672.358    22010682.613
       236.000         194.000
  -6147600.78549  -4775849.33345  24406802.547    24406801.587    24406812.329
       217.000         155.000
   1175307.17249    914180.54445  24376815.411    24376814.387    24376827.764
       216.000         154.000
   4647998.11249   3605829.72845  24722361.337    24722360.046    24722374.295
       215.000         150.000
 00  4 19 15 28  0.0000000  0  9G27G 2G26G 4G 7G 8G 9G11G13
   3914423.62349   3040811.88246  22881326.978    22881325.485    22881337.466
       223.000         175.000
   -495594.42349   -382407.79947  21335277.000    21335275.809    21335284.346
       241.000         209.000
   -476467.32649   -367335.67247  22583936.998    22583936.496    22583946.082
       237.000         193.000
  -6107437.84949  -4743529.82245  24015898.904    24015899.115    24015916.243
       212.000         148.000
  -1959961.98249  -1515013.33147  20566476.527    20566475.332    20566483.743
       235.000         205.000
   3320065.83149   2580234.43647  22024345.458    22024344.026    22024354.327
       233.000         194.000
  -6261101.77449  -4864291.76845  24385204.087    24385203.188    24385213.817
       214.000         154.000
   1212152.54249    942891.09945  24383826.756    24383825.810    24383839.379
       211.000         155.000
   4737084.50649   3675247.32545  24739314.053    24739312.934    24739327.264
       212.000         149.000
 00  4 19 15 28 30.0000000  0  9G27G 2G26G 4G 7G 8G 9G11G13
   3996870.67149   3105056.07046  22897016.333    22897014.835    22897026.883
       223.000         175.000
   -498461.58449   -384641.99047  21334731.454    21334730.242    21334738.811
       242.000         209.000
   -468401.03049   -361050.32147  22585471.976    22585471.490    22585481.090
       237.000         193.000
  -6225838.04549  -4835789.45845  23993368.021    23993368.173    23993385.301
       210.000         149.000
  -1980940.53449  -1531360.26547  20562484.517    20562483.287    20562491.677
       235.000         205.000
   3392266.53849   2636494.52047  22038084.963    22038083.509    22038093.820
       234.000         193.000
  -6374500.12849  -4952654.19145  24363625.230    24363624.229    24363634.932
       218.000         154.000
   1249514.71149    972004.40445  24390936.626    24390935.638    24390949.186
       216.000         156.000
   4826172.02649   3744665.78545  24756267.223    24756266.045    24756280.392
       213.000         151.000
 00  4 19 15 29  0.0000000  0  9G27G 2G26G 4G 7G 8G 9G11G13
   4079657.52849   3169565.02446  22912770.298    22912768.805    22912780.949
       225.000         173.000
   -501140.58549   -386729.56847  21334221.713    21334220.487    21334229.088
       241.000         209.000
   -459812.20349   -354357.80747  22587106.499    22587105.946    22587115.595
       237.000         194.000
  -6344182.66149  -4928005.81345  23970847.614    23970847.783    23970864.868
       207.000         151.000
  -2001450.47249  -1547342.04547  20558581.693    20558580.423    20558588.776
       235.000         206.000
   3464828.27049   2693035.92947  22051893.135    22051891.666    22051902.030
       233.000         193.000
  -6487795.10249  -5040936.05845  24342065.965    24342065.008    24342075.754
       215.000         156.000
   1287403.61049   1001528.15445  24398146.769    24398145.764    24398159.350
       208.000         154.000
   4915250.11949   3814076.94545  24773218.559    24773217.343    24773231.701
       214.000         151.000
 00  4 19 15 29 30.0000000  0  9G27G 2G26G 4G 7G 8G 9G11G13
   4162779.74949   3234335.30346  22928588.111    22928586.640    22928598.841
       221.000         172.000
   -503632.39449   -388671.27547  21333747.620    21333746.373    21333754.981
       242.000         209.000
   -450671.33449   -347235.13447  22588846.039    22588845.484    22588855.140
       236.000         193.000
  -6462462.28349  -5020171.52445  23948339.481    23948339.718    23948356.784
       212.000         152.000
  -2021484.50949  -1562952.99547  20554769.409    20554768.123    20554776.433
       235.000         205.000
   3537753.42649   2749860.51847  22065770.437    22065768.995    22065779.402
       234.000         192.000
  -6600987.18449  -5129137.72445  24320526.351    24320525.370    24320536.116
       217.000         157.000
   1325812.56249   1031457.11045  24405455.749    24405454.759    24405468.451
       213.000         157.000
   5004328.64149   3883488.38245  24790170.001    24790168.718    24790183.154
       214.000         148.000
 00  4 19 15 30  0.0000000  0  9G27G 2G26G 4G 7G 8G 9G11G13
   4246234.80049   3299364.89946  22944469.180    22944467.763    22944480.105
       222.000         174.000
   -505937.10049   -390467.20147  21333309.102    21333307.850    21333316.463
       242.000         209.000
   -440956.66749   -339665.33947  22590694.749    22590694.180    22590703.881
       236.000         193.000
  -6580679.24649  -5112288.37845  23925843.332    23925843.588    23925860.687
       211.000         151.000
  -2041014.97849  -1578171.55547  20551052.891    20551051.625    20551059.900
       235.000         205.000
   3611039.35349   2806966.24147  22079716.455    22079714.976    22079725.440
       233.000         192.000
  -6714068.86449  -5217253.36345  24299007.643    24299006.717    24299017.456
       217.000         156.000
   1364730.62149   1061782.77645  24412861.570    24412860.614    24412874.386
       213.000         154.000
   5093421.12249   3952910.73145  24807123.973    24807122.678    24807137.257
       217.000         153.000
 00  4 19 15 30 30.0000000  0  9G27G 2G26G 4G 7G 8G 9G11G13
   4330000.68049   3364636.73346  22960409.545    22960408.092    22960420.486
       225.000         174.000
   -508065.95449   -392126.09547  21332904.042    21332902.784    21332911.403
       242.000         209.000
   -430685.77449   -331662.12247  22592649.275    22592648.721    22592658.456
       237.000         193.000
  -6698860.88049  -5204377.72245  23903353.801    23903354.205    23903371.275
       209.000         153.000
  -2060055.08649  -1593008.01647  20547429.668    20547428.421    20547436.699
       236.000         205.000
   3684668.41849   2864339.32447  22093727.761    22093726.263    22093736.755
       234.000         192.000
  -6827029.24749  -5305274.48945  24277512.033    24277511.160    24277521.825
       220.000         158.000
   1404144.10849   1092494.55645  24420361.853    24420360.862    24420374.487
       215.000         157.000
   5182517.66749   4022336.23145  24824078.708    24824077.474    24824092.189
       213.000         146.000
 00  4 19 15 31  0.0000000  0  9G27G 2G26G 4G 7G 8G 9G11G13
   4414076.69249   3430150.18246  22976408.816    22976407.413    22976419.885
       220.000         173.000
   -510020.63449   -393649.27047  21332532.112    21332530.863    21332539.489
       242.000         208.000
   -419849.22749   -323218.14247  22594711.463    22594710.923    22594720.695
       236.000         194.000
  -6817006.91949  -5296439.32945  23880871.155    23880871.567    23880888.573
       212.000         152.000
  -2078594.17749  -1607454.07747  20543901.758    20543900.547    20543908.833
       234.000         205.000
   3758654.07549   2921990.28647  22107806.953    22107805.425    22107815.935
       234.000         192.000
  -6939850.57049  -5393187.22445  24256042.960    24256042.031    24256052.748
       219.000         158.000
   1444029.53849   1123574.00045  24427951.850    24427950.892    24427964.785
       212.000         159.000
   5271617.71349   4091764.47045  24841034.100    24841032.882    24841047.751
       209.000         146.000
 00  4 19 15 31 30.0000000  0  9G27G 2G26G 4G 7G 8G 9G11G13
   4498467.97049   3495909.30246  22992468.203    22992466.753    22992479.289
       222.000         174.000
   -511805.04349   -395039.77147  21332192.590    21332191.343    21332199.978
       241.000         208.000
   -408455.82049   -314340.24247  22596879.634    22596879.081    22596888.876
       236.000         193.000
  -6935117.59949  -5388473.35245  23858395.400    23858395.703    23858412.738
       210.000         151.000
  -2096642.61649  -1621517.81347  20540467.256    20540466.066    20540474.351
       234.000         205.000
   3832984.24049   2979909.70547  22121951.696    22121950.172    22121960.706
       232.000         191.000
  -7052538.90849  -5480996.35945  24234599.036    24234598.230    24234608.956
       217.000         158.000
   1484362.90849   1155002.55845  24435627.078    24435626.080    24435639.829
       216.000         155.000
   5360714.50649   4161190.17545  24857989.047    24857987.754    24858002.610
       214.000         148.000
 00  4 19 15 32  0.0000000  0  9G27G 2G26G 4G 7G 8G 9G11G13
   4583193.93249   3561929.21046  23008591.274    23008589.792    23008602.428
       223.000         174.000
   -513398.38249   -396281.38947  21331889.428    21331888.193    21331896.829
       242.000         208.000
   -396514.56249   -305035.44647  22599152.055    22599151.495    22599161.313
       237.000         193.000
  -7053189.11549  -5480476.87845  23835927.067    23835927.209    23835944.299
       212.000         154.000
  -2114202.30949  -1635200.70747  20537125.778    20537124.590    20537132.874
       235.000         205.000
   3907678.90049   3038113.12847  22136165.778    22136164.262    22136174.828
       235.000         191.000
  -7165072.42049  -5568684.83445  24213184.558    24213183.809    24213194.623
       219.000         158.000
   1525166.18549   1186797.26045  24443391.762    24443390.751    24443404.520
       212.000         154.000
   5449804.44649   4230610.54745  24874942.577    24874941.272    24874956.180
       215.000         148.000
 00  4 19 15 32 30.0000000  0  9G27G 2G26G 4G 7G 8G 9G11G13
   4668243.35049   3628201.15146  23024775.872    23024774.380    23024787.081
       220.000         173.000
   -514815.89649   -397386.00447  21331619.690    21331618.470    21331627.106
       242.000         208.000
   -384067.38049   -295336.42147  22601520.809    22601520.196    22601530.030
       236.000         193.000
  -7171229.91849  -5572456.50445  23813464.486    23813464.586    23813481.631
       213.000         156.000
  -2131304.51449  -1648527.12147  20533871.359    20533870.174    20533878.454
       234.000         205.000
   3982728.46849   3096593.11947  22150447.464    22150445.906    22150456.490
       232.000         191.000
  -7277477.28749  -5656273.05945  24191794.768    24191793.913    24191804.768
       220.000         161.000
   1566425.67349   1218947.40845  24451243.084    24451242.118    24451256.021
       215.000         158.000
   5538841.11949   4299989.38545  24891885.941    24891884.656    24891899.740
       210.000         142.000
 00  4 19 15 33  0.0000000  0  9G27G 2G26G 4G 7G 8G 9G11G13
   4753624.21549   3694731.36446  23041023.591    23041022.089    23041034.840
       220.000         172.000
   -516064.25649   -398358.80747  21331382.198    21331380.968    21331389.596
       242.000         208.000
   -371116.11649   -285244.61547  22603985.439    22603984.813    22603994.655
       236.000         193.000
  -7289228.44949  -5664403.19945  23791009.951    23791010.003    23791026.961
       215.000         157.000
  -2147952.02949  -1661499.22947  20530703.455    20530702.272    20530710.541
       235.000         205.000
   4058128.85349   3155346.47047  22164795.871    22164794.290    22164804.903
       232.000         190.000
  -7389761.41049  -5743767.19745  24170427.841    24170426.967    24170437.857
       219.000         161.000
   1608143.68949   1251454.90045  24459182.048    24459181.028    24459194.885
       211.000         157.000
   5627815.76049   4369319.91745  24908817.548    24908816.295    24908831.421
       211.000         142.000
 00  4 19 15 33 30.0000000  0  9G27G 2G26G 4G 7G 8G 9G11G13
   4839336.27449   3761519.66546  23057334.343    23057332.813    23057345.611
       220.000         172.000
   -517136.26349   -399194.19547  21331178.278    21331177.031    21331185.641
       243.000         208.000
   -357656.15449   -274756.41747  22606546.812    22606546.209    22606556.050
       237.000         193.000
  -7407183.68049  -5756316.14145  23768563.709    23768563.670    23768580.603
       218.000         159.000
  -2164145.49249  -1674117.53247  20527621.926    20527620.762    20527629.042
       235.000         205.000
   4133873.29549   3214367.90147  22179209.709    22179208.142    22179218.780
       231.000         190.000
  -7501910.24449  -5831155.97645  24149086.589    24149085.820    24149096.729
       221.000         161.000
   1650345.23149   1284339.13345  24467212.550    24467211.614    24467225.692
       215.000         155.000
   5716726.33249   4438600.46045  24925736.993    24925735.649    24925751.003
       214.000         150.000
 00  4 19 15 34  0.0000000  0  9G27G 2G26G 4G 7G 8G 9G11G13
   4925356.88549   3828548.37946  23073703.804    23073702.212    23073715.158
       220.000         173.000
   -518023.99649   -399886.00647  21331009.398    21331008.141    21331016.744
       242.000         208.000
   -343692.52549   -263875.75547  22609204.056    22609203.438    22609213.289
       236.000         194.000
  -7525099.99649  -5848198.77245  23746124.900    23746124.842    23746141.650
       216.000         158.000
  -2179890.84749  -1686386.65347  20524625.748    20524624.552    20524632.841
       235.000         206.000
   4209966.19549   3273660.85847  22193689.800    22193688.297    22193698.964
       231.000         190.000
  -7613917.06049  -5918434.09045  24127772.379    24127771.634    24127782.551
       217.000         162.000
   1693038.86449   1317606.83745  24475337.132    24475336.084    24475350.059
       217.000         154.000
   5805576.13649   4507833.76845  24942644.850    24942643.521    24942658.864
       208.000         146.000
 00  4 19 15 34 30.0000000  0  9G27G 2G26G 4G 7G 8G 9G11G13
   5011678.20949   3895811.40846  23090130.375    23090128.839    23090141.886
       220.000         172.000
   -518710.60949   -400421.10047  21330878.801    21330877.533    21330886.108
       242.000         208.000
   -329209.11849   -252590.06947  22611960.236    22611959.614    22611969.482
       237.000         193.000
  -7642950.81849  -5940030.36745  23723698.346    23723698.448    23723715.196
       220.000         159.000
  -2195183.71749  -1698303.19347  20521715.682    20521714.464    20521722.726
       236.000         205.000
   4286397.50749   3333217.51647  22208234.390    22208232.853    22208243.554
       232.000         190.000
  -7725766.99349  -6005589.95745  24106488.017    24106487.337    24106498.302
       218.000         162.000
   1736227.39349   1351260.17145  24483555.506    24483554.564    24483568.540
       217.000         154.000
   5894390.81449   4577039.62245  24959545.980    24959544.601    24959560.127
       211.000         147.000
 00  4 19 15 35  0.0000000  0  9G27G 2G26G 4G 7G 8G 9G11G13
   5098294.93549   3963304.59546  23106613.245    23106611.682    23106624.821
       220.000         172.000
   -519195.26649   -400798.82147  21330786.639    21330785.369    21330793.922
       242.000         208.000
   -314191.55849   -240888.15547  22614818.052    22614817.444    22614827.316
       237.000         193.000
  -7760739.91549  -6031813.86145  23701283.758    23701283.777    23701300.461
       218.000         157.000
  -2210034.65249  -1709875.36647  20518889.644    20518888.434    20518896.708
       235.000         205.000
   4363159.25749   3393031.64647  22222841.744    22222840.283    22222851.022
       232.000         189.000
  -7837446.18949  -6092612.77846  24085236.244    24085235.530    24085246.540
       219.000         163.000
   1779903.91249   1385293.73245  24491867.101    24491866.093    24491880.093
       213.000         157.000
   5983185.59649   4646230.02145  24976443.159    24976441.896    24976457.569
       208.000         146.000
 00  4 19 15 35 30.0000000  0  9G27G 2G26G 4G 7G 8G 9G11G13
   5185202.91849   4031024.78746  23123151.528    23123149.963    23123163.192
       222.000         171.000
   -519452.94649   -400999.67047  21330737.673    21330736.390    21330744.938
       242.000         208.000
   -298643.98549   -228773.24947  22617776.731    22617776.109    22617785.998
       236.000         193.000
  -7878460.10749  -6123543.68745  23678882.167    23678882.203    23678898.841
       218.000         156.000
  -2224448.19549  -1721106.71847  20516146.869    20516145.667    20516153.944
       235.000         205.000
   4440254.54249   3453105.69847  22237512.651    22237511.189    22237521.957
       230.000         189.000
  -7948961.17649  -6179507.62746  24064015.685    24064014.946    24064025.996
       220.000         163.000
   1824047.01749   1419690.87145  24500267.302    24500266.314    24500280.270
       216.000         150.000
   6071957.13949   4715402.29945  24993336.007    24993334.858    24993350.523
       210.000         143.000
 00  4 19 15 36  0.0000000  0  9G27G 2G26G 4G 7G 8G 9G11G13
   5272384.52849   4098958.14446  23139741.839    23139740.284    23139753.648
       221.000         170.000
   -519478.10149   -401019.32347  21330732.961    21330731.660    21330740.204
       242.000         207.000
   -282588.37749   -216262.46647  22620832.058    22620831.458    22620841.353
       235.000         192.000
  -7996105.88949  -6215215.52645  23656494.784    23656494.804    23656511.391
       215.000         158.000
  -2238429.71749  -1732001.42547  20513486.297    20513485.099    20513493.343
       234.000         205.000
   4517672.38149   3513431.06647  22252244.936    22252243.464    22252254.261
       233.000         189.000
  -8060329.19749  -6266287.93145  24042823.148    24042822.365    24042833.432
       219.000         162.000
   1868630.94649   1454431.52645  24508751.509    24508750.483    24508764.460
       216.000         157.000
   6160696.60849   4784549.51345  25010222.685    25010221.635    25010237.477
       207.000         142.000
 00  4 19 15 36 30.0000000  0  9G27G 2G26G 4G 7G 8G 9G11G13
   5359850.00349   4167112.73446  23156386.194    23156384.661    23156398.057
       222.000         170.000
   -519296.28749   -400877.70747  21330767.613    21330766.313    21330774.836
       242.000         208.000
   -266025.18749   -203356.17247  22623984.006    22623983.398    22623993.307
       236.000         192.000
  -8113669.70949  -6306823.52345  23634122.935    23634123.055    23634139.476
       215.000         156.000
  -2251962.60749  -1742546.54547  20510911.122    20510909.910    20510918.162
       236.000         205.000
   4595404.01649   3574000.96547  22267036.999    22267035.479    22267046.321
       233.000         188.000
  -8171553.08549  -6352955.93246  24021658.030    24021657.222    24021668.305
       220.000         165.000
   1913641.18949   1489504.38045  24517316.623    24517315.623    24517329.723
       213.000         151.000
   6249390.78849   4853661.50945  25027100.830    25027099.828    25027115.735
       212.000         142.000
 00  4 19 15 37  0.0000000  0  9G27G 2G26G 4G 7G 8G 9G11G13
   5447597.26349   4235486.86746  23173084.163    23173082.653    23173096.188
       221.000         168.000
   -518942.96249   -400602.44147  21330834.898    21330833.602    21330842.127
       242.000         207.000
   -248968.62049   -190065.42547  22627229.829    22627229.222    22627239.159
       236.000         193.000
  -8231166.79849  -6398379.51945  23611763.886    23611763.979    23611780.304
       217.000         157.000
  -2265042.22149  -1752738.46747  20508422.181    20508420.973    20508429.210
       236.000         205.000
   4673455.75149   3634820.29547  22281889.931    22281888.393    22281899.280
       233.000         188.000
  -8282649.24249  -6439524.39646  24000517.230    24000516.391    24000527.465
       219.000         165.000
   1959056.71949   1524893.07945  24525959.014    24525958.009    24525972.028
       216.000         153.000
   6338009.98649   4922715.05145  25043964.862    25043963.807    25043979.854
       211.000         141.000
 00  4 19 15 37 30.0000000  0  9G27G 2G26G 4G 7G 8G 9G11G13
   5535640.00849   4304091.26246  23189838.390    23189836.890    23189850.466
       219.000         168.000
   -518392.85349   -400173.83347  21330939.587    21330938.315    21330946.866
       242.000         208.000
   -231400.52749   -176376.08947  22630573.042    22630572.408    22630582.360
       236.000         193.000
  -8348569.32249  -6489861.82845  23589422.814    23589422.889    23589439.127
       217.000         159.000
  -2277612.00649  -1762533.12447  20506030.262    20506029.063    20506037.299
       236.000         205.000
   4751868.64749   3695921.04946  22296811.626    22296810.029    22296820.951
       232.000         187.000
  -8393584.70949  -6525967.61546  23979407.028    23979406.147    23979417.211
       220.000         165.000
   2004918.12949   1560629.17245  24534686.165    24534685.156    24534699.199
       213.000         150.000
   6426578.83449   4991729.43145  25060819.447    25060818.192    25060834.165
       207.000         142.000
 00  4 19 15 38  0.0000000  0  9G27G 2G26G 4G 7G 8G 9G11G13
   5623945.31249   4372900.27646  23206642.627    23206641.109    23206654.665
       215.000         165.000
   -517701.59749   -399635.22347  21331071.177    21331069.902    21331078.480
       242.000         208.000
   -213340.82249   -162303.67647  22634009.804    22634009.137    22634019.129
       236.000         193.000
  -8465910.91649  -6581296.70445  23567093.406    23567093.387    23567109.561
       219.000         159.000
  -2289686.88949  -1771942.13847  20503732.547    20503731.316    20503739.536
       236.000         205.000
   4830620.17949   3757285.66046  22311797.719    22311796.119    22311807.069
       233.000         187.000
  -8504372.45649  -6612295.70046  23958324.959    23958323.973    23958335.068
       221.000         165.000
   2051214.32149   1596704.02345  24543496.237    24543495.140    24543509.283
       216.000         153.000
   6515072.87249   5060685.38945  25077659.511    25077658.318    25077674.564
       208.000         134.000
 00  4 19 15 38 30.0000000  0  9G27G 2G26G 4G 7G 8G 9G11G13
   5712519.35749   4441918.65646  23223498.004    23223496.446    23223510.080
       220.000         167.000
   -516886.65749   -399000.24047  21331226.276    21331225.025    21331233.624
       242.000         208.000
   -194790.96349   -147849.32247  22637539.806    22637539.134    22637549.149
       236.000         193.000
  -8583207.09149  -6672696.16945  23544772.573    23544772.555    23544788.627
       216.000         159.000
  -2301275.01349  -1780971.86147  20501527.417    20501526.208    20501534.414
       235.000         204.000
   4909713.17949   3818916.35346  22326848.746    22326847.179    22326858.167
       232.000         187.000
  -8615009.03849  -6698506.00046  23937271.540    23937270.575    23937281.695
       219.000         164.000
   2097948.99049   1633120.68445  24552389.451    24552388.418    24552402.204
       211.000         143.000
   6603481.89949   5129575.23945  25094483.332    25094482.155    25094498.463
       202.000         139.000
 00  4 19 15 39  0.0000000  0  9G27G 2G26G 4G 7G 8G 9G11G13
   5801360.96049   4511145.54046  23240404.417    23240402.697    23240416.438
       221.000         168.000
   -515913.70149   -398242.12747  21331411.471    21331410.209    21331418.834
       242.000         208.000
   -175745.41549   -133008.72247  22641164.144    22641163.460    22641173.501
       236.000         193.000
  -8700464.56049  -6764065.48345  23522459.148    23522459.112    23522475.090
       215.000         157.000
  -2312395.37649  -1789637.09347  20499411.305    20499410.094    20499418.285
       236.000         205.000
   4989158.16749   3880821.33246  22341966.812    22341965.227    22341976.278
       234.000         187.000
  -8725488.61449  -6784593.93346  23916247.930    23916247.001    23916258.154
       220.000         164.000
   2145142.41749   1669894.68045  24561370.269    24561369.162    24561383.197
       211.000         152.000
   6691813.13249   5198404.46645  25111292.646    25111291.359    25111307.703
       206.000         139.000
 00  4 19 15 39 30.0000000  0  9G27G 2G26G 4G 7G 8G 9G11G13
   5890472.03449   4580582.38146  23257361.961    23257360.226    23257374.043
       221.000         165.000
   -514756.82749   -397340.70547  21331631.669    21331630.403    21331639.041
       241.000         208.000
   -156202.43349   -117780.51147  22644883.132    22644882.451    22644892.494
       236.000         193.000
  -8817670.22249  -6855394.41345  23500155.529    23500155.538    23500171.440
       216.000         158.000
  -2323065.36049  -1797951.38047  20497380.923    20497379.695    20497387.869
       235.000         205.000
   5068935.90149   3942985.60246  22357148.178    22357146.594    22357157.682
       233.000         186.000
  -8835818.31249  -6870565.07146  23895252.817    23895251.969    23895263.173
       220.000         166.000
   2192807.79149   1707036.53045  24570440.594    24570439.586    24570453.550
       210.000         143.000
   6780067.43249   5267173.66545  25128087.044    25128085.833    25128102.323
       208.000         135.000
 00  4 19 15 40  0.0000000  0  9G27G 2G26G 4G 7G 8G 9G11G13
   5979896.23949   4650263.21246  23274379.085    23274377.353    23274391.272
       223.000         169.000
   -513390.88349   -396276.36647  21331891.644    21331890.370    21331899.037
       242.000         208.000
   -136129.04149   -102138.99047  22648703.002    22648702.358    22648712.424
       237.000         193.000
  -8934776.45849  -6946645.90145  23477870.906    23477870.811    23477886.641
       215.000         159.000
  -2333292.42449  -1805920.53347  20495434.785    20495433.568    20495441.740
       235.000         205.000
   5149056.29749   4005416.86946  22372394.740    22372393.162    22372404.298
       231.000         186.000
  -8945982.31049  -6956407.08646  23874289.241    23874288.462    23874299.679
       219.000         165.000
   2240962.17549   1744559.38045  24579604.003    24579603.055    24579617.223
       211.000         154.000
   6868264.19549   5335898.05645  25144870.681    25144869.498    25144886.089
       208.000         146.000
 00  4 19 15 40 30.0000000  0  9G27G 2G26G 4G 7G 8G 9G11G13
   6069621.89449   4720178.98246  23291453.557    23291451.848    23291465.741
       223.000         168.000
   -511824.75949   -395056.03947  21332189.728    21332188.445    21332197.120
       242.000         208.000
   -115545.35349    -86099.83447  22652620.050    22652619.391    22652629.473
       236.000         193.000
  -9051791.09649  -7037825.99145  23455603.656    23455603.526    23455619.354
       217.000         160.000
  -2343114.00349  -1813573.72247  20493565.767    20493564.588    20493572.767
       235.000         204.000
   5229497.32349   4068097.97946  22387702.319    22387700.744    22387711.943
       229.000         186.000
  -9056001.12749  -7042135.96346  23853353.354    23853352.566    23853363.845
       220.000         165.000
   2289593.99849   1782454.27945  24588858.594    24588857.531    24588871.659
       214.000         141.000
   6956377.02549   5404557.10845  25161638.116    25161636.951    25161653.410
       218.000         144.000
 00  4 19 15 41  0.0000000  0  9G27G 2G26G 4G 7G 8G 9G11G13
   6159634.48349   4790318.31246  23308582.661    23308580.931    23308594.868
       220.000         167.000
   -510062.60849   -393682.96647  21332525.096    21332523.825    21332532.508
       242.000         208.000
    -94454.14849    -69665.22047  22656633.653    22656632.988    22656643.076
       236.000         193.000
  -9168688.54449  -7128914.78545  23433358.791    23433358.612    23433374.360
       213.000         161.000
  -2352534.75249  -1820914.57847  20491773.083    20491771.906    20491780.078
       235.000         205.000
   5310243.00149   4131016.45646  22403067.825    22403066.282    22403077.544
       230.000         186.000
  -9165884.02449  -7127758.94346  23832443.409    23832442.554    23832453.838
       220.000         166.000
   2338699.31949   1820718.22945  24598203.187    24598202.024    24598216.173
       217.000         154.000
   7044401.08249   5473146.91845  25178388.856    25178387.727    25178404.461
       200.000         138.000
 00  4 19 15 41 30.0000000  0  9G27G 2G26G 4G 7G 8G 9G11G13
   6249928.54849   4860676.94846  23325765.253    23325763.574    23325777.629
       219.000         165.000
   -508123.74849   -392172.20247  21332894.103    21332892.821    21332901.511
       242.000         208.000
    -72860.50949    -52839.09547  22660742.886    22660742.207    22660752.299
       235.000         193.000
  -9285451.72849  -7219898.93645  23411139.346    23411139.167    23411154.924
       217.000         160.000
  -2361543.63249  -1827934.49447  20490058.725    20490057.577    20490065.749
       235.000         204.000
   5391280.33749   4194162.20846  22418488.917    22418487.367    22418498.667
       229.000         186.000
  -9275621.56349  -7213268.67046  23811561.068    23811560.184    23811571.493
       219.000         165.000
   2388264.51849   1859340.42845  24607635.178    24607634.032    24607648.288
       211.000         147.000
   7132337.73549   5541668.64445  25195123.078    25195121.771    25195138.503
       213.000         132.000
 00  4 19 15 42  0.0000000  0  9G27G 2G26G 4G 7G 8G 9G11G13
   6340488.54449   4931242.78646  23342998.372    23342996.762    23343010.973
       219.000         165.000
   -506029.83849   -390540.61947  21333292.576    21333291.312    21333300.018
       242.000         208.000
    -50780.13549    -35633.69947  22664944.727    22664944.054    22664954.132
       236.000         193.000
  -9402099.43049  -7310793.05445  23388941.775    23388941.719    23388957.512
       218.000         160.000
  -2370136.66749  -1834630.37247  20488423.529    20488422.379    20488430.551
       235.000         204.000
   5472607.03749   4257533.45746  22433965.169    22433963.505    22433974.871
       231.000         186.000
  -9385206.75549  -7298659.67146  23790707.633    23790706.803    23790718.138
       219.000         165.000
   2438266.53349   1898303.07045  24617150.291    24617149.204    24617163.181
       219.000         150.000
   7220186.74549   5610122.03745  25211840.318    25211839.086    25211856.082
       209.000         143.000
 00  4 19 15 42 30.0000000  0  9G27G 2G26G 4G 7G 8G 9G11G13
   6431294.07649   5001999.97646  23360278.394    23360276.769    23360291.063
       220.000         165.000
   -503778.64449   -388786.47447  21333720.988    21333719.739    21333728.439
       242.000         208.000
    -28233.47649    -18064.97147  22669235.215    22669234.598    22669244.677
       235.000         193.000
  -9518657.46049  -7401617.34646  23366761.453    23366761.343    23366777.078
       221.000         163.000
  -2378302.49849  -1840993.36747  20486869.590    20486868.470    20486876.645
       235.000         205.000
   5554205.04749   4321116.10546  22449492.983    22449491.288    22449502.709
       230.000         185.000
  -9494646.36749  -7383937.23046  23769881.895    23769881.082    23769892.437
       220.000         166.000
   2488692.54949   1937596.17445  24626745.971    24626744.969    24626758.880
       207.000         143.000
   7307937.86049   5678499.24944  25228539.317    25228537.967    25228554.572
       204.000         130.000
 00  4 19 15 43  0.0000000  0  9G27G 2G26G 4G 7G 8G 9G11G13
   6522366.43449   5072965.05546  23377609.098    23377607.503    23377621.928
       219.000         165.000
   -501331.96349   -386880.00847  21334186.615    21334185.362    21334194.061
       242.000         207.000
     -5201.07949      -117.75547  22673618.187    22673617.568    22673627.662
       235.000         193.000
  -9635103.74149  -7492354.54046  23344602.253    23344602.219    23344617.937
       220.000         163.000
  -2385995.49749  -1846987.92547  20485405.699    20485404.574    20485412.745
       236.000         205.000
   5636096.99749   4384927.76746  22465076.675    22465074.995    22465086.463
       230.000         184.000
  -9603909.97249  -7469077.65546  23749089.630    23749088.867    23749100.243
       221.000         167.000
   2539541.05549   1977218.36245  24636422.091    24636421.104    24636435.210
       217.000         158.000
   7395619.44749   5746822.19644  25245224.937    25245223.623    25245240.421
       196.000         130.000
 00  4 19 15 43 30.0000000  0  9G27G 2G26G 4G 7G 8G 9G11G13
   6613687.27249   5144123.75646  23394987.226    23394985.517    23395000.031
       213.000         163.000
   -498699.41449   -384828.70347  21334687.606    21334686.367    21334695.056
       242.000         207.000
     18293.69349     18189.75747  22678089.148    22678088.531    22678098.655
       235.000         193.000
  -9751472.64349  -7583031.42146  23322457.865    23322457.787    23322473.577
       223.000         164.000
  -2393233.44449  -1852627.89647  20484028.433    20484027.273    20484035.439
       235.000         205.000
   5718269.80449   4448958.29446  22480713.788    22480712.116    22480723.665
       230.000         184.000
  -9713002.80749  -7554085.01746  23728329.899    23728329.188    23728340.560
       221.000         167.000
   2590781.87949   2017146.23845  24646172.955    24646171.997    24646186.168
       211.000         143.000
   7483210.74149   5815074.82145  25261893.392    25261891.980    25261908.991
       210.000         148.000
 00  4 19 15 44  0.0000000  0  9G27G 2G26G 4G 7G 8G 9G11G13
   6705251.02249   5215471.77246  23412411.537    23412409.788    23412424.325
       212.000         164.000
   -495873.81349   -382626.96847  21335225.316    21335224.087    21335232.774
       242.000         207.000
     42236.42749     36846.32747  22682645.406    22682644.758    22682654.903
       235.000         193.000
  -9867776.94649  -7673657.96146  23300325.727    23300325.691    23300341.411
       221.000         166.000
  -2400023.27449  -1857918.68847  20482736.410    20482735.245    20482743.382
       236.000         205.000
   5800726.52049   4513210.04046  22496404.893    22496403.283    22496414.883
       230.000         184.000
  -9821941.48049  -7638972.26446  23707599.493    23707598.870    23707610.222
       221.000         167.000
   2642403.07749   2057370.59945  24655995.970    24655995.031    24656009.067
       216.000         152.000
   7570681.08249   5883233.21945  25278538.502    25278537.151    25278554.232
       212.000         135.000
 00  4 19 15 44 30.0000000  0  9G27G 2G26G 4G 7G 8G 9G11G13
   6797077.47249   5287024.43946  23429885.960    23429884.111    23429898.746
       215.000         163.000
   -492827.06049   -380252.91147  21335805.117    21335803.900    21335812.599
       242.000         208.000
     66638.46849     55860.80347  22687289.050    22687288.388    22687298.576
       236.000         193.000
  -9983986.23249  -7764210.45246  23278211.665    23278211.628    23278227.360
       223.000         165.000
  -2406345.86449  -1862845.39647  20481533.304    20481532.131    20481540.251
       236.000         205.000
   5883493.29849   4577703.41046  22512155.070    22512153.470    22512165.114
       231.000         184.000
  -9930698.90249  -7723718.26446  23686903.602    23686902.947    23686914.321
       222.000         168.000
   2694429.09749   2097910.33445  24665896.471    24665895.414    24665909.569
       213.000         152.000
   7658032.83149   5951299.07045  25295161.158    25295159.857    25295177.336
       207.000         136.000
 00  4 19 15 45  0.0000000  0  9G27G 2G26G 4G 7G 8G 9G11G13
   6889161.62349   5358777.92246  23447409.404    23447407.471    23447422.086
       218.000         166.000
   -489569.87849   -377714.88147  21336424.964    21336423.742    21336432.479
       242.000         208.000
     91506.76449     75238.59147  22692021.438    22692020.775    22692030.965
       237.000         193.000
 -10100086.39149  -7854677.90346  23256118.519    23256118.367    23256134.052
       222.000         166.000
  -2412211.74749  -1867416.23247  20480417.072    20480415.897    20480424.020
       236.000         206.000
   5966579.08249   4642445.34746  22527965.962    22527964.337    22527976.021
       228.000         183.000
 -10039260.90349  -7808311.99746  23666244.929    23666244.293    23666255.635
       223.000         169.000
   2746858.07849   2138764.05845  24675873.207    24675872.176    24675886.382
       213.000         147.000
   7745265.59549   6019272.39845  25311761.293    25311759.937    25311777.289
       207.000         135.000
 00  4 19 15 45 30.0000000  0  9G27G 2G26G 4G 7G 8G 9G11G13
   6981492.45749   5430723.57146  23464979.572    23464977.687    23464992.533
       219.000         166.000
   -486111.63549   -375020.18747  21337083.096    21337081.855    21337090.609
       242.000         208.000
    116837.84049     94976.98647  22696841.868    22696841.200    22696851.407
       236.000         192.000
 -10216079.38249  -7945061.82846  23234045.594    23234045.466    23234061.116
       223.000         166.000
  -2417646.22249  -1871650.90647  20479382.963    20479381.779    20479389.896
       236.000         206.000
   6049972.35749   4707426.86646  22543835.335    22543833.709    22543845.448
       231.000         183.000
 -10147642.24049  -7892764.95646  23645620.729    23645620.007    23645631.318
       223.000         169.000
   2799705.12149   2179943.53745  24685929.912    24685928.822    24685943.089
       215.000         156.000
   7832369.00049   6087144.79945  25328336.629    25328335.385    25328352.989
       205.000         132.000
 00  4 19 15 46  0.0000000  0  9G27G 2G26G 4G 7G 8G 9G11G13
   7074074.73849   5502865.22145  23482597.687    23482595.828    23482610.743
       210.000         160.000
   -482457.77649   -372173.06047  21337778.409    21337777.195    21337785.961
       242.000         208.000
    142634.93549    115078.51847  22701750.994    22701750.303    22701760.545
       236.000         192.000
 -10331964.59649  -8035361.80446  23211993.281    23211993.097    23212008.750
       217.000         168.000
  -2422657.74649  -1875556.01247  20478429.310    20478428.139    20478436.247
       236.000         206.000
   6133664.05149   4772640.95146  22559761.540    22559759.866    22559771.672
       230.000         183.000
 -10255858.24949  -7977089.07846  23625027.886    23625027.164    23625038.455
       225.000         170.000
   2852977.92649   2221454.68045  24696067.034    24696066.122    24696080.639
       209.000         145.000
   7919335.98849   6154911.02045  25344886.246    25344884.953    25344902.428
       204.000         137.000
 00  4 19 15 46 30.0000000  0  9G27G 2G26G 4G 7G 8G 9G11G13
   7166900.96149   5575196.95545  23500262.250    23500260.394    23500275.340
       213.000         160.000
   -478617.27049   -369180.49847  21338509.303    21338508.070    21338516.843
       242.000         207.000
    168918.53849    135559.13447  22706752.709    22706752.008    22706762.255
       236.000         192.000
 -10447736.00349  -8125573.06246  23189962.412    23189962.388    23189978.002
       218.000         167.000
  -2427251.07449  -1879135.25747  20477555.257    20477554.090    20477562.198
       236.000         206.000
   6217635.77449   4838073.19546  22575740.894    22575739.298    22575751.187
       225.000         182.000
 -10363896.32349  -8061274.55546  23604468.872    23604468.205    23604479.434
       225.000         168.000
   2906690.27849   2263308.48445  24706288.336    24706287.360    24706301.622
       216.000         150.000
   8006189.88049   6222588.97245  25361413.856    25361412.871    25361430.730
       204.000         132.000
 00  4 19 15 47  0.0000000  0  9G27G 2G26G 4G 7G 8G 9G11G13
   7259967.27449   5647715.70846  23517972.502    23517970.640    23517985.675
       217.000         166.000
   -474600.96049   -366050.94147  21339273.620    21339272.381    21339281.171
       242.000         207.000
    195698.17449    156426.28547  22711848.808    22711848.108    22711858.363
       235.000         191.000
 -10563398.52149  -8215699.46746  23167952.460    23167952.392    23167967.951
       221.000         166.000
  -2431450.33049  -1882407.42947  20476756.173    20476755.002    20476763.139
       236.000         206.000
   6301879.56049   4903717.45846  22591772.186    22591770.549    22591782.504
       229.000         182.000
 -10471768.27449  -8145330.58046  23583941.517    23583940.853    23583952.028
       224.000         170.000
   2960840.24549   2305503.09345  24716592.624    24716591.746    24716606.139
       212.000         150.000
   8092926.86849   6290175.90144  25377919.790    25377918.698    25377936.542
       200.000         127.000
 00  4 19 15 47 30.0000000  0  9G27G 2G26G 4G 7G 8G 9G11G13
   7353284.20049   5720429.77245  23535730.451    23535728.586    23535743.676
       219.000         160.000
   -470413.19249   -362787.78147  21340070.544    21340069.317    21340078.125
       242.000         207.000
    222961.81249    177670.57347  22717036.961    22717036.280    22717046.546
       236.000         191.000
 -10678948.24749  -8305738.00846  23145963.935    23145963.877    23145979.362
       223.000         165.000
  -2435251.38949  -1885369.31647  20476032.868    20476031.685    20476039.827
       237.000         206.000
   6386398.14849   4969575.83046  22607855.679    22607854.073    22607866.089
       227.000         181.000
 -10579474.63349  -8229257.56746  23563445.642    23563444.976    23563456.150
       223.000         170.000
   3015426.46149   2348037.66245  24726980.161    24726979.178    24726993.591
       216.000         145.000
   8179541.74049   6357667.73945  25394402.437    25394401.278    25394418.891
       206.000         143.000
 00  4 19 15 48  0.0000000  0  9G27G 2G26G 4G 7G 8G 9G11G13
   7446850.53349   5793338.21345  23553535.864    23553533.969    23553549.142
       217.000         159.000
   -466071.57949   -359404.74947  21340896.773    21340895.538    21340904.346
       241.000         207.000
    250703.82249    199287.61247  22722316.162    22722315.471    22722325.750
       235.000         192.000
 -10794378.32449  -8395683.32046  23123998.143    23123998.108    23124013.533
       217.000         164.000
  -2438643.47949  -1888012.52947  20475387.392    20475386.235    20475394.366
       236.000         205.000
   6471200.70549   5035655.49946  22623993.322    22623991.638    22624003.712
       227.000         181.000
 -10686991.68049  -8313037.04346  23542985.779    23542985.132    23542996.282
       224.000         170.000
   3070437.61449   2390903.48745  24737448.151    24737447.344    24737461.691
       210.000         145.000
   8266036.44649   6425065.83644  25410862.016    25410861.017    25410878.627
       201.000         126.000
 00  4 19 15 48 30.0000000  0  9G27G 2G26G 4G 7G 8G 9G11G13
   7540650.39849   5866428.58545  23571385.874    23571383.915    23571399.165
       217.000         160.000
   -461594.76949   -355916.37247  21341748.682    21341747.468    21341756.302
       241.000         207.000
    278913.07049    221268.73547  22727684.258    22727683.579    22727693.897
       235.000         191.000
 -10909688.11649  -8485534.90346  23102055.321    23102055.223    23102070.624
       221.000         165.000
  -2441635.37549  -1890343.89947  20474818.115    20474816.927    20474825.043
       236.000         206.000
   6556291.74049   5101959.94146  22640185.738    22640184.101    22640196.240
       226.000         181.000
 -10794309.68349  -8396661.40946  23522563.827    23522563.157    23522574.257
       224.000         169.000
   3125853.74649   2434084.70345  24747993.566    24747992.770    24748007.324
       211.000         152.000
   8352401.25549   6492362.87844  25427297.225    25427295.998    25427313.253
       200.000         128.000
 00  4 19 15 49  0.0000000  0  9G27G 2G26G 4G 7G 8G 9G11G13
   7634691.06249   5939706.61945  23589281.578    23589279.622    23589294.803
       215.000         161.000
   -456966.35149   -352309.86347  21342629.445    21342628.258    21342637.096
       241.000         206.000
    307568.61949    243597.62347  22733137.265    22733136.616    22733146.939
       236.000         191.000
 -11024864.37149  -8575282.43446  23080137.669    23080137.783    23080153.106
       218.000         164.000
  -2444221.80249  -1892359.31947  20474325.946    20474324.777    20474332.872
       236.000         205.000
   6641685.02749   5168499.90146  22656435.769    22656434.090    22656446.287
       228.000         180.000
 -10901421.70449  -8480125.27046  23502181.049    23502180.362    23502191.461
       225.000         171.000
   3181654.73749   2477565.92745  24758612.315    24758611.418    24758625.903
       212.000         139.000
   8438626.27549   6559550.82145  25443705.448    25443704.206    25443721.933
       204.000         140.000
 00  4 19 15 49 30.0000000  0  9G27G 2G26G 4G 7G 8G 9G11G13
   7728964.99149   6013166.35145  23607221.555    23607219.654    23607234.986
       218.000         162.000
   -452174.41549   -348575.94447  21343541.355    21343540.156    21343548.995
       242.000         206.000
    336662.41749    266267.99747  22738673.723    22738673.072    22738683.408
       236.000         191.000
 -11139893.10749  -8664915.01946  23058248.272    23058248.362    23058263.614
       219.000         163.000
  -2446385.30849  -1894045.19747  20473914.284    20473913.091    20473921.171
       237.000         205.000
   6727376.57949   5235272.28646  22672742.558    22672740.824    22672753.087
       225.000         179.000
 -11008320.04549  -8563422.65846  23481838.945    23481838.223    23481849.301
       227.000         170.000
   3237832.59149   2521340.82745  24769302.620    24769301.703    24769316.249
       210.000         149.000
   8524724.57649   6626640.06744  25460089.630    25460088.435    25460106.093
       203.000         128.000
 00  4 19 15 50  0.0000000  0  8G27G 2G26G 4G 7G 8G 9G11
   7823448.16249   6086789.17545  23625201.356    23625199.489    23625214.875
       219.000         161.000
   -447203.54249   -344702.58547  21344487.331    21344486.110    21344494.958
       241.000         206.000
    366194.10749    289279.59647  22744293.517    22744292.839    22744303.196
       236.000         190.000
 -11254783.72149  -8754439.99646  23036385.060    23036385.232    23036400.426
       218.000         163.000
  -2448142.05249  -1895414.11347  20473580.015    20473578.830    20473586.886
       236.000         205.000
   6813348.02849   5302262.75846  22689102.585    22689100.823    22689113.147
       225.000         180.000
 -11115016.59749  -8646562.81146  23461535.229    23461534.528    23461545.576
       226.000         171.000
   3294372.36849   2565397.65345  24780061.841    24780060.914    24780075.603
       213.000         151.000
 00  4 19 15 50 30.0000000  0  8G27G 2G26G 4G 7G 8G 9G11
   7918139.98549   6160574.55445  23643220.891    23643219.121    23643234.567
       219.000         161.000
   -442011.96349   -340657.25247  21345475.266    21345474.053    21345482.924
       241.000         206.000
    396156.11149    312626.49547  22749995.183    22749994.504    22750004.873
       237.000         190.000
 -11369526.17849  -8843849.53146  23014550.096    23014550.277    23014565.487
       221.000         163.000
  -2449492.02749  -1896466.06847  20473323.154    20473321.957    20473330.010
       237.000         205.000
   6899584.60049   5369459.81946  22705513.047    22705511.280    22705523.691
       227.000         178.000
 -11221518.43049  -8729551.23046  23441268.594    23441267.911    23441278.888
       225.000         172.000
   3351273.24549   2609735.91545  24790889.714    24790888.839    24790903.577
       212.000         142.000
 00  4 19 15 51  0.0000000  0  8G27G 2G26G 4G 7G 8G 9G11
   8013043.64849   6234525.03945  23661280.721    23661278.959    23661294.425
       209.000         157.000
   -436569.49049   -336416.41347  21346510.955    21346509.753    21346518.628
       241.000         206.000
    426550.14949    336310.04347  22755779.028    22755778.377    22755788.770
       235.000         191.000
 -11484105.46849  -8933131.92446  22992746.231    22992746.428    22992761.570
       220.000         165.000
  -2450410.33449  -1897181.65647  20473148.473    20473147.246    20473155.282
       236.000         206.000
   6986092.95349   5436868.65446  22721975.222    22721973.468    22721985.962
       226.000         178.000
 -11327811.38349  -8812376.88446  23421041.620    23421040.970    23421051.957
       225.000         171.000
   3408559.17149   2654374.29845  24801791.110    24801790.145    24801804.527
       213.000         143.000
 00  4 19 15 51 30.0000000  0  8G27G 2G26G 4G 7G 8G 9G11
   8108143.02649   6308627.98045  23679377.863    23679376.083    23679391.603
       216.000         158.000
   -430910.94149   -332007.20347  21347587.789    21347586.569    21347595.464
       241.000         206.000
    457363.90549    360320.64647  22761642.793    22761642.133    22761652.534
       235.000         190.000
 -11598540.96249  -9022302.26346  22970969.731    22970969.941    22970985.044
       221.000         165.000
  -2450925.09349  -1897582.79147  20473050.560    20473049.317    20473057.354
       236.000         205.000
   7072854.35049   5504474.65646  22738485.540    22738483.796    22738496.362
       227.000         177.000
 -11433918.62849  -8895057.83546  23400850.019    23400849.415    23400860.388
       225.000         172.000
   3466225.24949   2699308.80345  24812764.585    24812763.647    24812778.156
       212.000         149.000
 00  4 19 15 52  0.0000000  0  8G27G 2G26G 4G 7G 8G 9G11
   8203463.26349   6382903.03745  23697517.123    23697515.298    23697530.884
       217.000         157.000
   -425026.50749   -327421.98347  21348707.626    21348706.389    21348715.290
       241.000         206.000
    488617.19649    384673.74547  22767590.194    22767589.504    22767599.953
       235.000         190.000
 -11712822.46949  -9111352.62846  22949222.526    22949222.753    22949237.796
       220.000         165.000
  -2451026.65749  -1897661.96347  20473031.287    20473030.017    20473038.039
       237.000         205.000
   7159881.38449   5572287.64146  22755046.371    22755044.679    22755057.317
       226.000         177.000
 -11539820.18949  -8977578.52746  23380697.611    23380696.991    23380707.947
       227.000         173.000
   3524295.62649   2744558.37745  24823814.896    24823814.008    24823828.562
       207.000         140.000
 00  4 19 15 52 30.0000000  0  8G27G 2G26G 4G 7G 8G 9G11
   8298996.03449   6457343.75145  23715696.754    23715694.893    23715710.531
       214.000         157.000
   -418964.83949   -322698.65647  21349861.147    21349859.922    21349868.839
       241.000         206.000
    520285.14349    409349.95747  22773616.509    22773615.810    22773626.270
       235.000         189.000
 -11826957.46649  -9200288.82846  22927503.274    22927503.436    22927518.448
       224.000         167.000
  -2450737.32049  -1897436.52547  20473086.332    20473085.089    20473093.115
       236.000         205.000
   7247156.01449   5640293.57646  22771654.402    22771652.673    22771665.376
       225.000         176.000
 -11645524.40149  -9059945.42746  23360582.767    23360582.151    23360593.039
       227.000         173.000
   3582761.74349   2790116.31945  24834941.032    24834939.943    24834954.453
       218.000         151.000
 00  4 19 15 52 59.9990000  0  8G27G 2G26G 4G 7G 8G 9G11
   8394762.25449   6531966.31545  23733920.786    23733918.941    23733934.720
       210.000         161.000
   -412745.45549   -317852.43647  21351044.738    21351043.488    21351052.424
       241.000         206.000
    552392.76449    434368.76947  22779726.392    22779725.748    22779736.239
       234.000         189.000
 -11940928.19149  -9289097.01546  22905815.197    22905815.350    22905830.364
       222.000         167.000
  -2450053.73349  -1896903.88547  20473216.401    20473215.182    20473223.210
       236.000         205.000
   7334692.83849   5708503.79646  22788312.242    22788310.604    22788323.325
       226.000         176.000
 -11751015.27549  -9142146.07246  23340508.532    23340507.909    23340518.774
       227.000         173.000
   3641634.61449   2835991.22445  24846144.209    24846143.045    24846157.600
       210.000         143.000
 00  4 19 15 53 29.9990000  0  8G27G 2G26G 4G 7G 8G 9G11
   8490777.50949   6606782.89945  23752192.053    23752190.318    23752206.317
       212.000         159.000
   -406377.46749   -312890.42347  21352256.587    21352255.321    21352264.279
       241.000         206.000
    584949.80349    459737.76947  22785921.833    22785921.221    22785931.746
       234.000         189.000
 -12054746.30649  -9377786.31046  22884156.214    22884156.374    22884171.336
       221.000         167.000
  -2448995.93149  -1896079.64047  20473417.687    20473416.499    20473424.526
       236.000         205.000
   7422482.54949   5776911.08746  22805018.330    22805016.645    22805029.403
       225.000         175.000
 -11856305.47149  -9224190.36246  23320472.458    23320471.813    23320482.663
       227.000         173.000
   3700897.05949   2882169.61945  24857421.561    24857420.469    24857435.050
       214.000         150.000
 00  4 19 15 53 59.9990000  0  8G27G 2G26G 4G 7G 8G 9G11
   8587027.98749   6681782.77445  23770508.266    23770506.511    23770522.671
       215.000         159.000
   -399849.06549   -307803.41747  21353498.938    21353497.681    21353506.645
       241.000         206.000
    617945.86849    485448.87347  22792200.838    22792200.221    22792210.808
       233.000         188.000
 -12168403.14149  -9466349.90946  22862527.917    22862528.049    22862543.014
       224.000         170.000
  -2447548.86149  -1894952.07647  20473693.064    20473691.883    20473699.911
       236.000         205.000
   7510527.11849   5845516.95746  22821772.937    22821771.221    22821783.976
       223.000         175.000
 -11961386.18849  -9306071.40146  23300476.185    23300475.606    23300486.431
       226.000         173.000
   3760552.74549   2928654.50045  24868773.564    24868772.612    24868787.097
       208.000         134.000
 00  4 19 15 54 29.9990000  0  8G27G 2G26G 4G 7G 8G 9G11
   8683494.57349   6756951.08845  23788865.645    23788863.828    23788880.081
       214.000         157.000
   -393157.26349   -302589.07847  21354772.398    21354771.120    21354780.099
       241.000         206.000
    651360.82749    511486.38447  22798559.551    22798558.923    22798569.562
       235.000         188.000
 -12281906.58949  -9554793.98946  22840928.800    22840928.944    22840943.896
       222.000         170.000
  -2445711.28249  -1893520.21247  20474042.746    20474041.561    20474049.595
       236.000         204.000
   7598834.27549   5914327.43246  22838577.516    22838575.738    22838588.490
       219.000         174.000
 -12066266.61149  -9387796.37346  23280518.095    23280517.491    23280528.325
       228.000         174.000
   3820593.88749   2975439.70445  24880199.194    24880198.118    24880212.534
       211.000         147.000
 00  4 19 15 54 59.9990000  0  8G27G 2G26G 4G 7G 8G 9G11
   8780169.76949   6832281.96945  23807262.678    23807260.804    23807277.065
       215.000         157.000
   -386275.81249   -297226.96247  21356081.941    21356080.670    21356089.635
       242.000         206.000
    685194.56849    537850.21646  22804997.967    22804997.337    22805008.005
       235.000         187.000
 -12395266.91249  -9643126.55646  22819357.000    22819357.063    22819371.979
       224.000         172.000
  -2443469.22149  -1891773.16847  20474469.447    20474468.245    20474476.269
       237.000         205.000
   7687414.13049   5983350.42146  22855434.049    22855432.200    22855444.946
       222.000         173.000
 -12170951.25049  -9469368.78146  23260597.272    23260596.671    23260607.499
       228.000         173.000
   3881016.45249   3022522.09545  24891697.389    24891696.258    24891710.738
       213.000         146.000
 00  4 19 15 55 29.9990000  0  8G27G 2G26G 4G 7G 8G 9G11
   8877014.07249   6907744.56245  23825691.971    23825689.997    23825706.381
       210.000         149.000
   -379208.15849   -291719.74447  21357426.953    21357425.651    21357434.607
       241.000         206.000
    719411.22649    564512.42946  22811509.241    22811508.627    22811519.320
       234.000         187.000
 -12508494.20449  -9731355.44646  22797810.459    22797810.526    22797825.351
       225.000         172.000
  -2440833.17649  -1889719.11847  20474971.072    20474969.877    20474977.899
       236.000         204.000
   7776258.91349   6052579.83246  22872340.862    22872339.035    22872351.773
       225.000         174.000
 -12275456.10949  -9550801.08546  23240710.683    23240710.038    23240720.872
       228.000         174.000
   3941803.63249   3069888.64545  24903264.785    24903263.723    24903278.181
       208.000         138.000
 00  4 19 15 55 59.9990000  0  8G27G 2G26G 4G 7G 8G 9G11
   8974018.46649   6983331.88745  23844151.625    23844149.645    23844166.313
       212.000         156.000
   -371943.55749   -286059.05747  21358809.413    21358808.124    21358817.062
       242.000         206.000
    754000.90149    591465.30146  22818091.502    22818090.888    22818101.632
       234.000         187.000
 -12621567.43949  -9819464.29546  22776293.198    22776293.319    22776308.062
       223.000         173.000
  -2437792.90149  -1887350.08747  20475549.635    20475548.434    20475556.477
       236.000         204.000
   7865375.27549   6122020.86146  22889299.459    22889297.582    22889310.295
       226.000         173.000
 -12379768.62149  -9632083.50246  23220860.599    23220859.999    23220870.822
       227.000         174.000
   4002968.05049   3117549.17645  24914904.255    24914903.100    24914917.405
       217.000         149.000
 00  4 19 15 56 29.9990000  0  8G27G 2G26G 4G 7G 8G 9G11
   9071179.85749   7059041.62645  23862641.207    23862639.238    23862655.956
       214.000         162.000
   -364484.47749   -280246.82047  21360228.886    21360227.592    21360236.515
       241.000         206.000
    788973.99549    618716.94546  22824746.823    22824746.148    22824756.939
       234.000         187.000
 -12734484.96049  -9907451.80446  22754805.653    22754805.750    22754820.421
       224.000         175.000
  -2434362.15249  -1884676.78447  20476202.491    20476201.302    20476209.361
       236.000         205.000
   7954737.78049   6191653.68546  22906304.771    22906302.932    22906315.684
       222.000         173.000
 -12483879.15749  -9713208.54246  23201049.053    23201048.424    23201059.193
       227.000         174.000
   4064476.75649   3165477.93845  24926609.148    24926608.002    24926622.367
       210.000         148.000
 00  4 19 15 56 59.9990000  0  8G27G 2G26G 4G 7G 8G 9G11
   9168511.55849   7134884.00045  23881163.113    23881161.211    23881177.970
       212.000         158.000
   -356828.30549   -274281.00647  21361685.883    21361684.562    21361693.496
       242.000         207.000
    824346.82949    646280.07546  22831478.159    22831477.467    22831488.293
       234.000         187.000
 -12847224.48249  -9995300.61246  22733352.009    22733352.048    22733366.642
       224.000         174.000
  -2430535.12549  -1881694.69947  20476930.743    20476929.579    20476937.638
       236.000         205.000
   8044330.60149   6261465.96546  22923353.903    22923352.090    22923364.874
       223.000         172.000
 -12587771.85149  -9794163.82646  23181278.915    23181278.290    23181289.057
       228.000         176.000
   4126318.86649   3213666.46145  24938377.515    24938376.390    24938390.692
       210.000         139.000
 00  4 19 15 57 29.9990000  0  8G27G 2G26G 4G 7G 8G 9G11
   9266005.13449   7210852.53245  23899715.993    23899714.014    23899730.844
       213.000         155.000
   -348986.95849   -268170.90847  21363178.076    21363176.778    21363185.695
       242.000         206.000
    860108.54949    674146.22746  22838283.485    22838282.796    22838293.644
       235.000         187.000
 -12959777.12149 -10083003.80146  22711933.907    22711933.887    22711948.431
       223.000         174.000
  -2426321.90949  -1878411.68847  20477732.500    20477731.330    20477739.414
       236.000         205.000
   8134135.00549   6331443.12546  22940443.360    22940441.530    22940454.334
       225.000         172.000
 -12691437.40449  -9874942.10846  23161551.989    23161551.356    23161562.088
       228.000         175.000
   4188483.31749   3262106.37045  24950207.216    24950206.042    24950220.162
       213.000         147.000
 00  4 19 15 57 59.9990000  0  8G27G 2G26G 4G 7G 8G 9G11
   9363682.85949   7286964.51345  23918303.910    23918301.867    23918318.730
       214.000         153.000
   -340962.64449   -261918.22147  21364705.131    21364703.816    21364712.734
       242.000         207.000
    896276.67149    702329.06146  22845166.143    22845165.445    22845176.338
       234.000         187.000
 -13072152.97649 -10170569.21546  22690549.401    22690549.365    22690563.857
       229.000         175.000
  -2421723.72249  -1874828.69847  20478607.491    20478606.337    20478614.454
       236.000         205.000
   8224143.90149   6401579.61046  22957571.652    22957569.859    22957582.739
       225.000         171.000
 -12794865.07949  -9955535.03546  23141870.244    23141869.715    23141880.394
       229.000         175.000
   4250973.57149   3310800.03845  24962098.950    24962097.675    24962111.834
       212.000         147.000
 00  4 19 15 58 29.9990000  0  8G27G 2G26G 4G 7G 8G 9G11
   9461564.45649   7363235.38145  23936930.441    23936928.457    23936945.434
       210.000         156.000
   -332744.10249   -255514.20047  21366269.110    21366267.794    21366276.728
       242.000         207.000
    932880.50349    730851.40446  22852131.726    22852131.036    22852141.944
       234.000         186.000
 -13184347.39549 -10257993.22746  22669199.415    22669199.392    22669213.819
       226.000         175.000
  -2416722.85649  -1870931.93847  20479559.165    20479557.994    20479566.132
       236.000         205.000
   8314379.81549   6471893.00446  22974743.143    22974741.398    22974754.336
       222.000         172.000
 -12898040.29049 -10035931.24446  23122236.697    23122236.112    23122246.739
       228.000         176.000
   4313802.39649   3359757.53645  24974054.747    24974053.587    24974067.757
       213.000         133.000
 00  4 19 15 58 59.9990000  0  8G27G 2G26G 4G 7G 8G 9G11
   9559633.28549   7439652.10545  23955592.699    23955590.690    23955607.798
       211.000         154.000
   -324348.15049   -248971.93147  21367866.839    21367865.531    21367874.468
       242.000         207.000
    969897.68849    759695.83946  22859175.986    22859175.267    22859186.209
       234.000         186.000
 -13296375.06049 -10345287.33846  22647881.214    22647881.155    22647895.492
       225.000         175.000
  -2411334.21749  -1866733.01447  20480584.603    20480583.430    20480591.580
       236.000         205.000
   8404855.01249   6542392.86946  22991960.202    22991958.470    22991971.483
       222.000         172.000
 -13000991.09349 -10116152.57546  23102645.839    23102645.202    23102655.833
       229.000         176.000
   4376981.66649   3408988.25645  24986077.518    24986076.255    24986090.203
       208.000         146.000
 00  4 19 15 59 29.9990000  0  8G27G 2G26G 4G 7G 8G 9G11
   9657886.71549   7516212.67045  23974290.078    23974288.018    23974305.371
       213.000         157.000
   -315777.91449   -242293.86547  21369497.720    21369496.435    21369505.384
       242.000         207.000
   1007333.85949    788866.75646  22866299.915    22866299.213    22866310.179
       234.000         186.000
 -13408227.84449 -10432445.16146  22626596.171    22626596.169    22626610.424
       224.000         175.000
  -2405572.49449  -1862243.38247  20481680.985    20481679.833    20481688.004
       236.000         205.000
   8495583.36449   6613089.96646  23009225.416    23009223.717    23009236.804
       226.000         171.000
 -13103709.57449 -10196192.87946  23083099.097    23083098.489    23083109.060
       228.000         177.000
   4440537.19949   3458511.94745  24998171.628    24998170.484    24998184.663
       212.000         145.000
 00  4 19 15 59 59.9990000  0  8G27G 2G26G 4G 7G 8G 9G11
   9756328.34749   7592919.88145  23993023.218    23993021.192    23993038.745
       214.000         156.000
   -307023.71049   -235472.44447  21371163.611    21371162.341    21371171.296
       242.000         207.000
   1045207.31149    818378.41146  22873507.081    22873506.382    22873517.362
       233.000         186.000
 -13519895.07849 -10519458.39346  22605346.518    22605346.508    22605360.662
       225.000         175.000
  -2399434.23349  -1857460.34347  20482849.047    20482847.902    20482856.088
       237.000         205.000
   8586563.46249   6683983.25046  23026538.550    23026536.870    23026550.053
       222.000         170.000
 -13206191.81049 -10276049.09646  23063597.369    23063596.739    23063607.272
       230.000         177.000
   4504479.27649   3508337.10245  25010339.478    25010338.373    25010352.346
       212.000         147.000
 00  4 19 16  0 29.9990000  0  8G27G 2G26G 4G 7G 8G 9G11
   9854930.99949   7669752.61045  24011787.113    24011785.083    24011802.721
       211.000         156.000
   -298073.54049   -228498.32347  21372866.825    21372865.545    21372874.518
       242.000         207.000
   1083502.58449    848218.76146  22880794.557    22880793.835    22880804.850
       234.000         186.000
 -13631361.26649 -10606314.96046  22584135.166    22584135.080    22584149.142
       226.000         175.000
  -2392926.99149  -1852389.79147  20484087.355    20484086.210    20484094.410
       236.000         205.000
   8677783.97649   6755063.86346  23043897.515    23043895.766    23043909.041
       224.000         170.000
 -13308438.55449 -10355721.80146  23044140.378    23044139.793    23044150.304
       229.000         178.000
   4568800.01049   3558457.07245  25022579.083    25022578.146    25022592.324
       210.000         145.000
 00  4 19 16  0 59.9990000  0  8G27G 2G26G 4G 7G 8G 9G11
   9953707.64849   7746720.87845  24030584.037    24030582.076    24030599.815
       213.000         154.000
   -288903.69649   -221353.03447  21374611.816    21374610.553    21374619.547
       242.000         207.000
   1122213.20549    878382.75746  22888161.076    22888160.339    22888171.383
       233.000         187.000
 -13742593.99949 -10692989.61046  22562968.109    22562968.071    22562982.044
       226.000         174.000
  -2386043.73749  -1847026.24247  20485397.188    20485396.057    20485404.279
       236.000         205.000
   8769241.33049   6826328.99946  23061301.435    23061299.739    23061313.054
       223.000         170.000
 -13410440.81149 -10435204.00446  23024729.961    23024729.365    23024739.858
       229.000         179.000
   4633509.16649   3608879.84745  25034892.912    25034891.979    25034906.082
       211.000         136.000
 00  4 19 16  1 29.9990000  0  8G27G 2G26G 4G 7G 8G 9G11
  10052647.64249   7823816.45545  24049412.123    24049410.147    24049428.040
       212.000         154.000
   -279523.68349   -214043.97547  21376396.802    21376395.550    21376404.575
       243.000         208.000
   1161314.28049    908851.01246  22895601.899    22895601.124    22895612.184
       235.000         185.000
 -13853595.75849 -10779484.27646  22541845.034    22541844.995    22541858.891
       226.000         175.000
  -2378804.60849  -1841385.37547  20486774.736    20486773.604    20486781.873
       236.000         205.000
   8860889.44649   6897742.83546  23078741.846    23078740.044    23078753.419
       223.000         170.000
 -13512206.47549 -10514501.85546  23005364.552    23005363.943    23005374.442
       229.000         179.000
   4698577.55949   3659582.63845  25047274.988    25047274.054    25047288.172
       201.000         143.000
 00  4 19 16  1 59.9990000  0  8G27G 2G26G 4G 7G 8G 9G11
  10151737.11649   7901028.50945  24068268.697    24068266.683    24068284.684
       212.000         153.000
   -269935.00949   -206572.32747  21378221.506    21378220.256    21378229.307
       242.000         208.000
   1200775.31749    939599.75146  22903111.197    22903110.414    22903121.472
       234.000         185.000
 -13964390.08449 -10865817.29546  22520761.444    22520761.366    22520775.270
       224.000         176.000
  -2371214.22449  -1835470.80947  20488219.154    20488218.009    20488226.274
       237.000         205.000
   8952704.54349   6969286.73246  23096213.915    23096212.116    23096225.538
       226.000         168.000
 -13613753.49449 -10593629.33746  22986040.706    22986040.136    22986050.614
       229.000         180.000
   4763970.00749   3710537.65845  25059718.508    25059717.668    25059732.116
       211.000         145.000
 00  4 19 16  2 29.9990000  0  8G27G 2G26G 4G 7G 8G 9G11
  10251007.55649   7978381.56445  24087159.715    24087157.628    24087175.755
       207.000         151.000
   -260124.64049   -198927.93547  21380088.372    21380087.141    21380096.202
       242.000         208.000
   1240607.67449    970637.83246  22910691.145    22910690.365    22910701.425
       233.000         184.000
 -14074956.21649 -10951972.50946  22499721.142    22499721.167    22499735.069
       225.000         175.000
  -2363247.30749  -1829262.83747  20489735.221    20489734.076    20489742.361
       236.000         205.000
   9044724.33449   7040990.13346  23113724.928    23113723.116    23113736.611
       225.000         168.000
 -13715063.05049 -10672571.77846  22966762.074    22966761.531    22966771.990
       230.000         180.000
   4829697.56349   3761754.10245  25072226.083    25072225.204    25072239.531
       206.000         140.000
 00  4 19 16  2 59.9990000  0  8G27G 2G26G 4G 7G 8G 9G11
  10350471.86649   8055885.70645  24106087.536    24106085.405    24106103.737
       207.000         151.000
   -250126.56049   -191137.27647  21381991.001    21381989.745    21381998.840
       242.000         208.000
   1280809.22149   1001963.59346  22918341.384    22918340.576    22918351.652
       233.000         184.000
 -14185297.76549 -11037952.70946  22478723.569    22478723.696    22478737.569
       224.000         176.000
  -2354896.78749  -1822755.95147  20491324.290    20491323.128    20491331.439
       236.000         206.000
   9136955.68349   7112858.37046  23131276.175    23131274.357    23131287.932
       222.000         166.000
 -13816138.70149 -10751331.95646  22947527.956    22947527.424    22947537.882
       229.000         181.000
   4895757.09649   3813229.01345  25084796.895    25084796.002    25084810.561
       206.000         149.000
 00  4 19 16  3 29.9990000  0  8G27G 2G26G 4G 7G 8G 9G11
  10450122.93749   8133535.32245  24125050.797    24125048.704    24125067.185
       209.000         153.000
   -239961.18749   -183216.25847  21383925.444    21383924.190    21383933.315
       242.000         208.000
   1321380.90449   1033577.76946  22926062.002    22926061.214    22926072.297
       234.000         184.000
 -14295433.48449 -11123772.53946  22457765.246    22457765.409    22457779.262
       228.000         176.000
  -2346157.87149  -1815946.42847  20492987.257    20492986.099    20492994.430
       236.000         206.000
   9229399.89149   7184892.48246  23148868.006    23148866.126    23148879.771
       223.000         166.000
 -13916969.01249 -10829900.97146  22928340.521    22928340.005    22928350.487
       230.000         181.000
   4962138.35449   3864954.64845  25097428.887    25097427.993    25097442.645
       211.000         137.000
 00  4 19 16  3 59.9990000  0  7G27G 2G26G 4G 7G 8G 9
  10549979.76649   8211345.33645  24144053.326    24144051.244    24144069.842
       207.000         148.000
   -229605.34549   -175146.82547  21385896.115    21385894.891    21385904.033
       242.000         208.000
   1362350.50349   1065502.01346  22933858.371    22933857.578    22933868.676
       234.000         185.000
 -14405342.54949 -11209415.74446  22436850.100    22436850.236    22436864.079
       227.000         177.000
  -2336995.78449  -1808807.15747  20494730.759    20494729.604    20494737.942
       237.000         206.000
   9322107.66749   7257131.99546  23166510.143    23166508.153    23166521.769
       219.000         166.000
 -14017524.22249 -10908255.62446  22909205.448    22909204.928    22909215.422
       230.000         182.000
 00  4 19 16  4 29.9990000  0  7G27G 2G26G 4G 7G 8G 9
  10650005.93849   8289287.27845  24163088.095    24163085.970    24163104.716
       205.000         148.000
   -219088.60649   -166952.03147  21387897.435    21387896.189    21387905.363
       242.000         209.000
   1403687.26449   1097712.34646  22941724.617    22941723.811    22941734.910
       233.000         184.000
 -14515034.41349 -11294889.69346  22415976.246    22415976.400    22415990.224
       226.000         176.000
  -2327435.44149  -1801357.55347  20496549.991    20496548.867    20496557.235
       235.000         206.000
   9415056.50949   7329559.28746  23184197.904    23184195.937    23184209.727
       222.000         165.000
 -14117829.82449 -10986415.78346  22890117.882    22890117.368    22890127.867
       230.000         182.000
 00  4 19 16  4 59.9990000  0  7G27G 2G26G 4G 7G 8G 9
  10750188.28849   8367350.90045  24182152.579    24182150.427    24182169.296
       212.000         157.000
   -208395.82149   -158620.04747  21389932.248    21389931.007    21389940.185
       243.000         209.000
   1445375.72349   1130196.74046  22949657.724    22949656.955    22949668.057
       233.000         184.000
 -14624503.29049 -11380189.88746  22395144.802    22395144.973    22395158.818
       227.000         177.000
  -2317497.42449  -1793613.65847  20498441.186    20498440.030    20498448.397
       237.000         206.000
   9508224.83149   7402157.65146  23201927.534    23201925.570    23201939.346
       221.000         165.000
 -14217882.35849 -11064378.74446  22871078.493    22871077.961    22871088.455
       231.000         182.000
 00  4 19 16  5 29.9990000  0  7G27G 2G26G 4G 7G 8G 9
  10850524.71649   8445534.58645  24201246.308    24201244.211    24201263.231
       205.000         151.000
   -197483.85649   -150117.27747  21392008.784    21392007.530    21392016.721
       242.000         208.000
   1487425.49949   1162962.67446  22957659.646    22957658.872    22957669.981
       233.000         185.000
 -14733740.56349 -11465309.61246  22374357.392    22374357.630    22374371.485
       227.000         178.000
  -2307203.41549  -1785592.36947  20500400.076    20500398.916    20500407.298
       236.000         206.000
   9601611.79449   7474926.32346  23219698.652    23219696.758    23219710.623
       221.000         166.000
 -14317670.49249 -11142135.67446  22852089.370    22852088.862    22852099.396
       230.000         183.000
 00  4 19 16  5 59.9990000  0  7G27G 2G26G 4G 7G 8G 9
  10950998.74549   8523825.48645  24220366.303    24220364.167    24220383.331
       203.000         137.000
   -186351.55649   -141442.82047  21394127.265    21394125.981    21394135.181
       242.000         208.000
   1529829.91749   1196004.95246  22965729.048    22965728.281    22965739.420
       233.000         185.000
 -14842742.96849 -11550246.34746  22353614.772    22353615.004    22353628.823
       229.000         178.000
  -2296584.04949  -1777317.55947  20502420.888    20502419.723    20502428.118
       237.000         205.000
   9695206.67449   7547857.08046  23237509.520    23237507.574    23237521.454
       221.000         168.000
 -14417211.01049 -11219699.66546  22833147.374    22833146.869    22833157.411
       231.000         183.000
 00  4 19 16  6 29.9990000  0  7G27G 2G26G 4G 7G 8G 9
  11051609.16648   8602222.69244  24239512.310    24239510.049    24239529.344
       187.000         119.000
   -174993.12849   -132592.15247  21396288.724    21396287.461    21396296.672
       243.000         208.000
   1572595.59949   1229328.73446  22973867.184    22973866.426    22973877.587
       234.000         185.000
 -14951508.90349 -11634998.81146  22332917.148    22332917.371    22332931.151
       228.000         178.000
  -2285650.89249  -1768798.23547  20504501.439    20504500.249    20504508.656
       238.000         205.000
   9788991.35349   7620935.67846  23255356.407    23255354.457    23255368.489
       222.000         168.000
 -14516501.99549 -11297069.21746  22814252.929    22814252.382    22814262.904
       231.000         183.000
 00  4 19 16  6 59.9990000  0  7G27G 2G26G 4G 7G 8G 9
                   8680734.95454  24258686.375
       171.000         103.000
   -163398.97549   -123557.80847  21398495.055    21398493.796    21398503.012
       243.000         208.000
   1615744.93749   1262951.46546  22982078.307    22982077.565    22982088.775
       233.000         185.000
 -15060037.77649 -11719566.53746  22312264.601    22312264.837    22312278.617
       227.000         179.000
  -2274398.93149  -1760030.49647  20506642.592    20506641.428    20506649.861
       236.000         206.000
   9882975.88349   7694170.00446  23273241.300    23273239.411    23273253.539
       223.000         169.000
 -14615525.55249 -11374230.37846  22795409.286    22795408.769    22795419.273
       231.000         183.000
 00  4 19 16  7 29.9990000  0  6G 2G26G 4G 7G 8G 9
   -151582.05349   -114349.87347  21400743.779    21400742.534    21400751.754
       243.000         208.000
   1659290.36649   1296882.84146  22990364.823    22990364.074    22990375.348
       232.000         185.000
 -15168335.05449 -11803953.81646  22291656.220    22291656.394    22291670.148
       230.000         181.000
  -2262804.87949  -1750996.19447  20508848.823    20508847.672    20508856.147
       236.000         206.000
   9977174.66749   7767571.26646  23291166.878    23291165.051    23291179.294
       220.000         168.000
 -14714265.84149 -11451170.81546  22776619.539    22776619.084    22776629.576
       230.000         183.000
 00  4 19 16  7 59.9990000  0  6G 2G26G 4G 7G 8G 9
   -139572.99049   -104992.21447  21403029.111    21403027.830    21403037.070
       242.000         208.000
   1703206.07849   1331102.74546  22998721.794    22998721.059    22998732.360
       232.000         185.000
 -15276412.49049 -11888169.80146  22271089.605    22271089.782    22271103.509
       228.000         180.000
  -2250843.99349  -1741676.05547  20511124.889    20511123.755    20511132.241
       235.000         205.000
  10071577.19549   7841131.29346  23309131.363    23309129.529    23309143.875
       221.000         169.000
 -14812723.75349 -11527891.19946  22757883.539    22757883.085    22757893.603
       230.000         184.000
 00  4 19 16  8 29.9990000  0  6G 2G26G 4G 7G 8G 9
   -127361.72149    -95477.00047  21405352.926    21405351.626    21405360.855
       243.000         208.000
   1747494.17949   1365612.82546  23007149.661    23007148.908    23007160.272
       232.000         185.000
 -15384249.53849 -11972198.45446  22250568.743    22250568.933    22250582.622
       231.000         180.000
  -2238484.09949  -1732044.99347  20513476.917    20513475.781    20513484.293
       236.000         205.000
  10166201.84849   7914864.42746  23327138.139    23327136.302    23327150.692
       220.000         167.000
 -14910869.91649 -11604368.66546  22739206.972    22739206.442    22739216.966
       231.000         184.000
 00  4 19 16  8 59.9990000  0  6G 2G26G 4G 7G 8G 9
   -114956.95049    -85811.00547  21407713.540    21407712.234    21407721.467
       242.000         209.000
   1792145.64549   1400406.04646  23015646.605    23015645.886    23015657.282
       233.000         185.000
 -15491840.06049 -12056035.04646  22230094.880    22230094.999    22230108.626
       227.000         181.000
  -2225727.41249  -1722104.74047  20515904.450    20515903.300    20515911.851
       236.000         206.000
  10261051.22349   7988772.63046  23345187.618    23345185.792    23345200.369
       217.000         164.000
 -15008697.58749 -11680597.94646  22720590.962    22720590.418    22720600.945
       231.000         184.000
 00  4 19 16  9 29.9990000  0  6G 2G26G 4G 7G 8G 9
   -102387.32749    -76016.55247  21410105.488    21410104.197    21410113.436
       242.000         208.000
   1837123.04249   1435453.23746  23024205.621    23024204.895    23024216.346
       232.000         186.000
 -15599191.75349 -12139685.52046  22209666.377    22209666.507    22209680.072
       230.000         182.000
  -2212600.78149  -1711876.22147  20518402.363    20518401.216    20518409.806
       237.000         206.000
  10356092.37449   8062830.26846  23363273.625    23363271.776    23363286.546
       218.000         166.000
 -15106236.45549 -11756602.18746  22702029.848    22702029.332    22702039.867
       231.000         183.000
 00  4 19 16  9 59.9990000  0  6G 2G26G 4G 7G 8G 9
    -89623.73349    -66070.95247  21412534.383    21412533.092    21412542.318
       243.000         208.000
   1882436.58449   1470762.35446  23032828.611    23032827.886    23032839.383
       233.000         186.000
 -15706267.86449 -12223121.28746  22189290.368    22189290.462    22189303.998
       229.000         181.000
  -2199097.99949  -1701354.59347  20520971.874    20520970.721    20520979.360
       236.000         206.000
  10451336.16649   8137045.82446  23381398.146    23381396.336    23381411.187
       218.000         165.000
 -15203488.25149 -11832382.72546  22683523.345    22683522.873    22683533.421
       230.000         184.000
 00  4 19 16 10 29.9990000  0  6G 2G26G 4G 7G 8G 9
    -76653.79349    -55964.56147  21415002.522    21415001.240    21415010.486
       243.000         208.000
   1928101.87549   1506345.56746  23041518.537    23041517.814    23041529.335
       232.000         186.000
 -15813048.91349 -12306327.10646  22168970.533    22168970.579    22168984.056
       232.000         182.000
  -2185244.17449  -1690559.42947  20523608.140    20523606.998    20523615.696
       237.000         207.000
  10546777.62049   8211415.36946  23399560.248    23399558.479    23399573.529
       217.000         163.000
 -15300461.01649 -11907945.82746  22665069.995    22665069.513    22665080.095
       230.000         184.000
 00  4 19 16 10 59.9990000  0  6G 2G26G 4G 7G 8G 9
    -63485.16949    -45703.35647  21417508.486    21417507.199    21417516.445
       242.000         208.000
   1974108.14649   1542194.47746  23050273.328    23050272.607    23050284.171
       232.000         186.000
 -15919544.55149 -12389310.55646  22148705.022    22148705.011    22148718.403
       229.000         183.000
  -2171059.15749  -1679506.19647  20526307.517    20526306.344    20526315.073
       237.000         207.000
  10642394.05549   8285921.27645  23417755.795    23417753.964    23417769.152
       217.000         162.000
 -15397173.74349 -11983306.31246  22646666.154    22646665.613    22646676.229
       231.000         184.000
 00  4 19 16 11 29.9990000  0  6G 2G26G 4G 7G 8G 9
    -50090.98449    -35266.38847  21420057.348    21420056.079    21420065.342
       242.000         208.000
   2020469.79549   1578320.30946  23059095.755    23059095.042    23059106.611
       233.000         186.000
 -16025732.05249 -12472053.89946  22128498.052    22128498.079    22128511.367
       231.000         183.000
  -2156511.52549  -1668170.40247  20529075.880    20529074.695    20529083.428
       237.000         207.000
  10738202.40549   8360576.72146  23435987.894    23435985.980    23436001.296
       220.000         164.000
 -15493610.92049 -12058452.07846  22628314.660    22628314.182    22628324.787
       230.000         184.000
 00  4 19 16 11 59.9990000  0  6G 2G26G 4G 7G 8G 9
    -36449.99449    -24637.11047  21422653.209    21422651.920    21422661.195
       242.000         208.000
   2067199.64149   1614733.03746  23067988.300    23067987.548    23067999.150
       233.000         185.000
 -16131609.60749 -12554555.72146  22108350.064    22108350.124    22108363.336
       231.000         183.000
  -2141592.30049  -1656545.05047  20531914.967    20531913.753    20531922.505
       238.000         207.000
  10834214.12349   8435390.63845  23454258.600    23454256.702    23454272.115
       216.000         161.000
 -15589753.50649 -12133368.30946  22610019.252    22610018.780    22610029.400
       230.000         184.000
 00  4 19 16 12 29.9990000  0  6G 2G26G 4G 7G 8G 9
    -22572.40349    -13823.46247  21425294.076    21425292.788    21425302.073
       242.000         208.000
   2114287.11849   1651424.45746  23076948.857    23076948.108    23076959.748
       232.000         185.000
 -16237198.19349 -12636832.39246  22088257.091    22088257.174    22088270.322
       230.000         184.000
  -2126311.09649  -1644637.63147  20534822.872    20534821.668    20534830.455
       237.000         207.000
  10930426.19149   8510360.66045  23472567.488    23472565.496    23472580.971
       216.000         162.000
 -15685586.40449 -12208043.22046  22591782.781    22591782.320    22591792.944
       231.000         185.000
 00  4 19 16 12 59.9990000  0  7G 2G26G 4G24G 7G 8G 9
     -8474.09849     -2837.83147  21427976.956    21427975.660    21427984.967
       242.000         208.000
   2161688.41149   1688360.38646  23085969.061    23085968.366    23085980.032
       234.000         185.000
 -16342537.31349 -12718914.67446  22068211.544    22068211.671    22068224.771
       231.000         185.000
   -499465.87259   -341158.49855  24772504.765    24772505.748    24772527.157
       203.000         137.000
  -2110693.14549  -1632467.81547  20537794.842    20537793.670    20537802.478
       237.000         207.000
  11026815.90449   8585469.11445  23490910.144    23490908.161    23490923.755
       217.000         161.000
 -15781124.93849 -12282488.75546  22573602.309    22573601.852    22573612.478
       231.000         186.000
 00  4 19 16 13 29.9990000  0  7G 2G26G 4G24G 7G 8G 9
      5869.67949      8339.07647  21430706.548    21430705.253    21430714.572
       242.000         208.000
   2209415.70649   1725550.35346  23095051.319    23095050.657    23095062.373
       233.000         185.000
 -16447612.01049 -12800790.91646  22048216.393    22048216.495    22048229.536
       232.000         185.000
   -619167.58459   -434432.64855  24749726.469    24749727.562    24749749.728
       196.000         132.000
  -2094729.05149  -1620028.28247  20540832.772    20540831.556    20540840.383
       238.000         207.000
  11123406.95149   8660734.45945  23509291.046    23509289.136    23509304.796
       215.000         158.000
 -15876351.94349 -12356691.52346  22555481.142    22555480.697    22555491.323
       230.000         186.000
 00  4 19 16 13 59.9990000  0  7G 2G26G 4G24G 7G 8G 9
     20446.72949     19697.75747  21433480.529    21433479.227    21433488.576
       242.000         208.000
   2257457.64849   1762985.49646  23104193.467    23104192.828    23104204.592
       233.000         185.000
 -16552428.65649 -12882466.08346  22028270.323    22028270.403    22028283.404
       232.000         186.000
   -738911.20749   -527739.43545  24726940.431    24726940.210    24726962.471
       203.000         137.000
  -2078448.86749  -1607342.44547  20543930.841    20543929.606    20543938.444
       237.000         207.000
  11220190.18149   8736149.51645  23527708.620    23527706.684    23527722.423
       217.000         159.000
 -15971270.36449 -12430653.84346  22537418.721    22537418.273    22537428.914
       231.000         187.000
 00  4 19 16 14 29.9990000  0  7G 2G26G 4G24G 7G 8G 9
     35234.42549     31220.58147  21436294.579    21436293.279    21436302.658
       242.000         208.000
   2305786.15149   1800643.93346  23113390.166    23113389.507    23113401.332
       232.000         184.000
 -16656986.13849 -12963939.29846  22008373.571    22008373.636    22008386.607
       231.000         186.000
   -858715.63149   -621093.55745  24704142.889    24704142.423    24704164.623
       210.000         137.000
  -2061874.95949  -1594427.72247  20547084.782    20547083.548    20547092.369
       237.000         207.000
  11317148.90849   8811701.36845  23546159.677    23546157.626    23546173.383
       217.000         160.000
 -16065898.11949 -12504389.67346  22519411.695    22519411.164    22519421.807
       232.000         187.000
 00  4 19 16 14 59.9990000  0  7G 2G26G 4G24G 7G 8G 9
     50242.84649     42915.39047  21439150.618    21439149.329    21439158.727
       242.000         208.000
   2354414.08349   1838535.68546  23122643.907    23122643.195    23122655.060
       232.000         183.000
 -16761252.77549 -13045185.88946  21988532.104    21988532.221    21988545.150
       231.000         187.000
   -978575.67749   -714491.04445  24681334.323    24681333.738    24681356.287
       200.000         136.000
  -2044993.92649  -1581273.68347  20550297.136    20550295.917    20550304.745
       238.000         207.000
  11414283.22849   8887390.01145  23564644.020    23564641.955    23564657.761
       216.000         159.000
 -16160225.52149 -12577891.47547  22501461.744    22501461.223    22501471.834
       232.000         188.000
 00  4 19 16 15 29.9990000  0  7G 2G26G 4G24G 7G 8G 9
     65450.24849     54765.26247  21442044.506    21442043.244    21442052.664
       242.000         207.000
   2403356.61849   1876672.58246  23131957.458    23131956.737    23131968.642
       232.000         183.000
 -16865205.67049 -13126188.01446  21968750.372    21968750.513    21968763.419
       231.000         187.000
  -1098506.39149   -807943.55145  24658512.394    24658511.635    24658534.214
       200.000         132.000
  -2027790.85149  -1567868.70547  20553570.827    20553569.585    20553578.408
       238.000         207.000
  11511590.48049   8963213.39145  23583161.301    23583159.231    23583175.177
       215.000         160.000
 -16254240.20449 -12651149.60547  22483571.312    22483570.774    22483581.377
       232.000         188.000
 00  4 19 16 15 59.9990000  0  7G 2G26G 4G24G 7G 8G 9
     80858.27249     66771.45347  21444976.609    21444975.343    21444984.779
       242.000         207.000
   2452623.09149   1915061.89346  23141332.649    23141331.932    23141343.882
       233.000         183.000
 -16968820.26549 -13206926.52846  21949033.081    21949033.185    21949046.093
       231.000         187.000
  -1218496.80549   -901442.60145  24635679.130    24635678.234    24635700.680
       201.000         140.000
  -2010242.82449  -1554194.93447  20556910.101    20556908.877    20556917.702
       238.000         207.000
  11609076.01849   9039175.73545  23601712.584    23601710.479    23601726.389
       213.000         159.000
 -16347914.15649 -12724142.22247  22465745.709    22465745.176    22465755.806
       233.000         189.000
 00  4 19 16 16 29.9990000  0  7G 2G26G 4G24G 7G 8G 9
     96458.22349     78927.20147  21447945.274    21447943.969    21447953.417
       241.000         207.000
   2502207.35649   1953698.83446  23150768.329    23150767.597    23150779.610
       231.000         183.000
 -17072098.96749 -13287403.31546  21929379.647    21929379.785    21929392.663
       231.000         187.000
  -1338535.59249   -994979.18245  24612836.522    24612835.581    24612858.217
       208.000         140.000
  -1992340.24849  -1540244.89947  20560316.871    20560315.653    20560324.466
       239.000         208.000
  11706732.53849   9115271.26145  23620296.339    23620294.220    23620310.320
       214.000         158.000
 -16441247.59549 -12796869.50947  22447984.878    22447984.363    22447994.983
       232.000         190.000
 00  4 19 16 16 59.9990000  0  7G 2G26G 4G24G 7G 8G 9
    112245.05849     91228.56747  21450949.438    21450948.147    21450957.615
       241.000         207.000
   2552120.47449   1992592.02946  23160266.598    23160265.866    23160277.914
       232.000         182.000
 -17175055.96149 -13367629.41747  21909787.444    21909787.596    21909800.471
       231.000         188.000
  -1458625.45649  -1088555.76845  24589984.077    24589983.381    24590005.733
       204.000         135.000
  -1974077.90649  -1526014.52447  20563792.130    20563790.892    20563799.689
       239.000         207.000
  11804548.04749   9191490.70745  23638910.282    23638908.179    23638924.330
       216.000         161.000
 -16534240.25649 -12869331.24347  22430288.912    22430288.414    22430299.020
       233.000         190.000
 00  4 19 16 17 29.9990000  0  7G 2G26G 4G24G 7G 8G 9
    128230.53249    103684.71847  21453991.438    21453990.131    21453999.619
       241.000         207.000
   2602369.08449   2031746.62646  23169828.657    23169827.966    23169840.028
       231.000         182.000
 -17277692.71949 -13447605.99347  21890256.238    21890256.358    21890269.188
       231.000         188.000
  -1578760.03149  -1182166.88945  24567123.210    24567122.588    24567145.096
       211.000         139.000
  -1955446.97649  -1511496.94247  20567337.502    20567336.259    20567345.044
       238.000         207.000
  11902542.41849   9267849.50245  23657558.331    23657556.250    23657572.495
       215.000         159.000
 -16626891.22649 -12941526.73447  22412658.002    22412657.501    22412668.076
       233.000         191.000
 00  4 19 16 17 59.9990000  0  7G 2G26G 4G24G 7G 8G 9
    144434.49149    116311.11647  21457074.987    21457073.672    21457083.183
       241.000         206.000
   2652930.81049   2071145.22746  23179450.327    23179449.648    23179461.756
       231.000         180.000
 -17380030.10449 -13527349.29347  21870781.951    21870782.069    21870794.885
       233.000         188.000
  -1698940.79649  -1275814.20145  24544253.323    24544252.942    24544275.482
       211.000         137.000
  -1936464.94749  -1496705.77647  20570949.663    20570948.427    20570957.217
       238.000         208.000
  12000708.63949   9344342.21845  23676239.129    23676237.023    23676253.350
       215.000         158.000
 -16719221.63449 -13013472.42147  22395088.116    22395087.562    22395098.140
       234.000         191.000
 00  4 19 16 18 29.9990000  0  7G 2G26G 4G24G 7G 8G 9
    160897.14549    129139.09147  21460207.764    21460206.466    21460215.983
       241.000         206.000
   2703835.44349   2110811.02246  23189137.256    23189136.555    23189148.687
       231.000         180.000
 -17482048.06649 -13606843.69046  21851368.490    21851368.581    21851381.361
       234.000         187.000
  -1819150.93449  -1369484.46745  24521378.306    24521377.732    24521400.278
       207.000         143.000
  -1917127.39849  -1481637.57947  20574629.504    20574628.277    20574637.043
       239.000         208.000
  12099058.73049   9420978.18445  23694954.840    23694952.796    23694969.244
       212.000         156.000
 -16811218.77649 -13085158.42747  22377581.588    22377581.046    22377591.611
       233.000         191.000
 00  4 19 16 18 59.9990000  0  7G 2G26G 4G24G 7G 8G 9
    177626.62349    142174.98447  21463391.307    21463390.019    21463399.534
       241.000         206.000
   2755079.15349   2150741.04146  23198888.713    23198888.010    23198900.172
       231.000         181.000
 -17583748.81949 -13686090.92446  21832015.394    21832015.505    21832028.214
       234.000         187.000
  -1939404.02049  -1463187.97944  24498494.888    24498494.342    24498516.814
       205.000         129.000
  -1897450.55249  -1466304.99847  20578373.960    20578372.707    20578381.442
       239.000         208.000
  12197594.70249   9497758.98145  23713705.951    23713703.946    23713720.428
       214.000         159.000
 -16902883.49649 -13156585.40047  22360138.320    22360137.797    22360148.333
       234.000         191.000
 00  4 19 16 19 29.9990000  0  7G 2G26G 4G24G 7G 8G 9
    194587.54849    155391.22847  21466618.942    21466617.638    21466627.141
       241.000         206.000
   2806604.24649   2190890.31546  23208693.728    23208692.999    23208705.201
       230.000         181.000
 -17685164.85749 -13765116.30046  21812716.566    21812716.585    21812729.202
       234.000         186.000
  -2059731.54549  -1556949.63845  24475597.434    24475596.806    24475619.194
       204.000         142.000
  -1877495.83549  -1450755.89347  20582171.242    20582169.999    20582178.702
       239.000         208.000
  12296269.40249   9574647.90245  23732483.591    23732481.483    23732498.093
       214.000         158.000
 -16994256.36249 -13227784.95847  22342750.552    22342750.071    22342760.586
       234.000         191.000
 00  4 19 16 19 59.9990000  0  7G 2G26G 4G24G 7G 8G 9
    211810.98949    168812.02447  21469896.484    21469895.204    21469904.714
       241.000         206.000
   2858443.82649   2231284.65046  23218558.604    23218557.871    23218570.091
       232.000         180.000
 -17786261.96449 -13843893.15046  21793478.325    21793478.360    21793490.887
       234.000         186.000
  -2180096.27749  -1650740.32445  24452692.648    24452691.977    24452714.239
       201.000         143.000
  -1857245.63549  -1434976.54447  20586024.713    20586023.495    20586032.208
       240.000         208.000
  12395098.47249   9651657.09245  23751290.515    23751288.354    23751304.986
       214.000         156.000
 -17085296.02049 -13298724.86347  22325426.199    22325425.743    22325436.258
       234.000         191.000
 00  4 19 16 20 29.9990000  0  7G 2G26G 4G24G 7G 8G 9
    229266.74649    182413.83547  21473218.268    21473216.991    21473226.505
       241.000         206.000
   2910604.92349   2271929.50046  23228484.613    23228483.914    23228496.143
       231.000         179.000
 -17887034.45149 -13922417.05646  21774301.871    21774301.900    21774314.354
       234.000         187.000
  -2300495.08849  -1744557.35444  24429781.640    24429780.776    24429803.086
       211.000         129.000
  -1836697.61649  -1418965.12247  20589934.843    20589933.661    20589942.389
       239.000         208.000
  12494083.59649   9728787.87745  23770127.191    23770124.960    23770141.742
       210.000         153.000
 -17175988.42149 -13369394.19547  22308167.986    22308167.512    22308178.002
       234.000         192.000
 00  4 19 16 20 59.9990000  0  7G 2G26G 4G24G 7G 8G 9
    246927.17649    196175.13747  21476578.991    21476577.722    21476587.229
       241.000         206.000
   2963066.55749   2312808.54946  23238467.857    23238467.140    23238479.425
       230.000         179.000
 -17987490.03649 -14000694.02246  21755185.747    21755185.749    21755198.143
       235.000         187.000
  -2420920.24649  -1838395.07245  24406865.144    24406864.584    24406886.737
       207.000         138.000
  -1815838.68349  -1402711.42747  20593904.186    20593903.005    20593911.745
       239.000         208.000
  12593221.91649   9806038.04545  23788993.043    23788990.780    23789007.636
       213.000         154.000
 -17266342.49649 -13439799.89047  22290974.141    22290973.639    22290984.136
       235.000         192.000
 00  4 19 16 21 29.9990000  0  7G 2G26G 4G24G 7G 8G 9
    264802.58149    210103.94547  21479980.621    21479979.333    21479988.870
       241.000         206.000
   3015832.59349   2353924.79146  23248509.018    23248508.304    23248520.634
       230.000         179.000
 -18087596.63649 -14078699.04946  21736136.009    21736136.020    21736148.336
       235.000         187.000
  -2541354.37849  -1932239.72245  24383947.294    24383946.827    24383968.900
       196.000         133.000
  -1794631.31749  -1386186.23147  20597939.877    20597938.669    20597947.413
       240.000         209.000
  12692512.67049   9883406.97745  23807887.815    23807885.474    23807902.420
       214.000         153.000
 -17356330.92849 -13509920.68647  22273849.859    22273849.332    22273859.822
       235.000         192.000
 00  4 19 16 21 59.9990000  0  7G 2G26G 4G24G 7G 8G 9
    282875.21949    224186.45647  21483419.752    21483418.485    21483428.024
       241.000         205.000
   3068881.96949   2395261.81046  23258604.120    23258603.360    23258615.749
       230.000         177.000
 -18187358.84849 -14156435.71847  21717151.863    21717151.825    21717164.089
       235.000         188.000
  -2661816.45549  -2026106.12545  24361024.194    24361023.447    24361045.665
       211.000         153.000
  -1773077.78349  -1369391.29247  20602041.420    20602040.202    20602048.948
       239.000         208.000
  12791951.51849   9960891.32745  23826810.705    23826808.422    23826825.362
       215.000         154.000
 -17445961.16649 -13579762.37047  22256793.690    22256793.192    22256803.669
       235.000         192.000
 00  4 19 16 22 29.9990000  0  7G 2G26G 4G24G 7G 8G 9
    301126.98349    238408.53747  21486893.005    21486891.729    21486901.295
       242.000         205.000
   3122175.05749   2436788.74746  23268745.597    23268744.823    23268757.241
       232.000         178.000
 -18286780.75149 -14233907.21047  21698232.444    21698232.388    21698244.611
       237.000         189.000
  -2782323.10449  -2120007.26245  24338092.408    24338091.694    24338113.907
       207.000         143.000
  -1751193.75049  -1352338.82047  20606205.822    20606204.616    20606213.373
       241.000         209.000
  12891519.65249  10038476.40945  23845758.173    23845755.985    23845772.968
       211.000         152.000
 -17535259.65549 -13649345.56047  22239800.700    22239800.201    22239810.645
       236.000         192.000
 00  4 19 16 22 59.9990000  0  7G 2G26G 4G24G 7G 8G 9
    319604.45449    252806.50347  21490409.194    21490407.921    21490417.527
       241.000         205.000
   3175710.09949   2478504.21046  23278933.129    23278932.331    23278944.763
       230.000         178.000
 -18385828.29649 -14311086.99747  21679384.300    21679384.206    21679396.366
       237.000         189.000
  -2902847.04349  -2213921.76745  24315157.438    24315156.747    24315178.945
       212.000         146.000
  -1728978.13049  -1335027.98747  20610433.303    20610432.110    20610440.897
       240.000         209.000
  12991225.46849  10116168.74945  23864732.026    23864729.718    23864746.818
       211.000         153.000
 -17624210.89149 -13718658.15447  22222873.749    22222873.293    22222883.711
       235.000         193.000
 00  4 19 16 23 29.9990000  0  7G 2G26G 4G24G 7G 8G 9
    338337.98249    267403.99347  21493974.118    21493972.838    21493982.479
       241.000         205.000
   3229497.91449   2520416.64146  23289168.758    23289167.937    23289180.361
       230.000         177.000
 -18484488.61749 -14387965.05447  21660609.822    21660609.705    21660621.811
       236.000         191.000
  -3023380.59649  -2307843.76245  24292220.411    24292219.896    24292242.011
       210.000         141.000
  -1706458.46149  -1317480.21947  20614718.696    20614717.483    20614726.296
       240.000         209.000
  13091073.26049  10193971.75245  23883732.798    23883730.446    23883747.676
       207.000         148.000
 -17712799.64549 -13787688.29847  22206015.836    22206015.351    22206025.737
       234.000         192.000
 00  4 19 16 23 59.9990000  0  7G 2G26G 4G24G 7G 8G 9
    357344.54849    282214.24347  21497591.038    21497589.726    21497599.383
       241.000         205.000
   3283546.32149   2562532.13246  23299453.922    23299453.117    23299465.576
       229.000         177.000
 -18582772.09849 -14464549.45447  21641907.005    21641906.901    21641918.962
       235.000         191.000
  -3143902.02649  -2401756.27845  24269285.828    24269285.369    24269307.513
       210.000         148.000
  -1683650.29049  -1299707.64047  20619059.001    20619057.774    20619066.599
       240.000         209.000
  13191082.36349  10271900.42445  23902764.178    23902761.857    23902779.249
       212.000         148.000
 -17801034.38949 -13856442.58747  22189225.269    22189224.784    22189235.141
       235.000         192.000
 00  4 19 16 24 29.9990000  0  7G 2G26G 4G24G 7G 8G 9
    376617.19949    297231.82347  21501258.573    21501257.261    21501266.924
       240.000         205.000
   3337838.90649   2604837.87946  23309785.544    23309784.782    23309797.246
       230.000         178.000
 -18680699.04649 -14540856.04747  21623272.077    21623271.949    21623283.984
       237.000         191.000
  -3264423.42449  -2495668.76645  24246351.212    24246350.777    24246372.921
       210.000         145.000
  -1660561.32449  -1281716.26047  20623452.681    20623451.480    20623460.303
       240.000         209.000
  13291233.20349  10349939.57945  23921822.634    23921820.290    23921837.754
       213.000         150.000
 -17888926.12449 -13924929.59047  22172499.959    22172499.487    22172509.832
       235.000         193.000
 00  4 19 16 24 59.9990000  0  7G 2G26G 4G24G 7G 8G 9
    396161.87449    312461.36847  21504977.819    21504976.529    21504986.216
       240.000         204.000
   3392395.03149   2647348.99846  23320167.353    23320166.588    23320179.071
       230.000         178.000
 -18778263.82649 -14616880.42547  21604706.075    21604705.912    21604717.902
       236.000         192.000
  -3384932.63449  -2589571.69045  24223418.860    24223418.454    24223440.652
       212.000         144.000
  -1637175.39849  -1263493.48747  20627902.912    20627901.694    20627910.501
       240.000         209.000
  13391530.73849  10428093.06845  23940908.862    23940906.613    23940924.102
       214.000         153.000
 -17976448.24149 -13993128.58747  22155845.031    22155844.531    22155854.857
       236.000         194.000
 00  4 19 16 25 29.9990000  0  7G 2G26G 4G24G 7G 8G 9
    415963.78749    327891.36747  21508746.038    21508744.770    21508754.461
       240.000         204.000
   3447227.58849   2690075.51246  23330601.773    23330601.004    23330613.466
       231.000         177.000
 -18875472.99349 -14692627.68947  21586207.679    21586207.547    21586219.504
       237.000         192.000
  -3505445.87449  -2683477.76545  24200485.759    24200485.422    24200507.603
       210.000         147.000
  -1613463.43249  -1245016.65947  20632415.203    20632413.971    20632422.781
       240.000         209.000
  13491985.15449  10506368.77245  23960025.020    23960022.751    23960040.314
       213.000         146.000
 -18063591.03649 -14061032.00447  22139262.297    22139261.775    22139272.079
       236.000         194.000
 00  4 19 16 25 59.9990000  0  7G 2G26G 4G24G 7G 8G 9
    435982.62149    343490.38847  21512555.570    21512554.276    21512563.979
       240.000         204.000
   3502308.13249   2732995.25946  23341083.412    23341082.612    23341095.059
       230.000         177.000
 -18972344.42149 -14768111.79147  21567773.590    21567773.440    21567785.389
       235.000         192.000
  -3625995.79349  -2777412.39945  24177545.761    24177545.343    24177567.555
       208.000         147.000
  -1589420.60349  -1226282.02047  20636990.420    20636989.192    20636998.000
       240.000         209.000
  13592575.28349  10584750.14845  23979167.028    23979164.768    23979182.531
       216.000         147.000
 -18150371.95549 -14128653.44447  22122748.387    22122747.882    22122758.154
       236.000         194.000
 00  4 19 16 26 29.9990000  0  7G 2G26G 4G24G 7G 8G 9
    456212.79849    359254.08847  21516405.305    21516404.012    21516413.724
       240.000         204.000
   3557652.33049   2776120.43246  23351615.151    23351614.385    23351626.833
       230.000         176.000
 -19068860.01549 -14843318.61047  21549407.127    21549407.039    21549418.977
       235.000         193.000
  -3746580.64149  -2871374.27445  24154598.848    24154598.631    24154620.771
       205.000         148.000
  -1565046.47249  -1207289.21947  20641628.706    20641627.470    20641636.279
       240.000         209.000
  13693293.14449  10663231.11945  23998333.259    23998331.185    23998349.057
       211.000         150.000
 -18236771.27449 -14195977.52747  22106307.102    22106306.592    22106316.844
       236.000         194.000
 00  4 19 16 26 59.9990000  0  7G 2G26G 4G24G 7G 8G 9
    476633.21949    375166.03747  21520291.227    21520289.945    21520299.674
       240.000         204.000
   3613253.37549   2819445.76246  23362195.787    23362195.036    23362207.508
       231.000         177.000
 -19165035.93049 -14918260.74147  21531105.303    21531105.254    21531117.216
       235.000         192.000
  -3867207.01749  -2965368.48045  24131644.146    24131643.990    24131666.043
       203.000         145.000
  -1540375.85249  -1188065.38347  20646323.409    20646322.175    20646330.981
       239.000         209.000
  13794125.33249  10741801.15145  24017521.149    24017519.159    24017537.277
       212.000         149.000
 -18322812.35749 -14263022.45447  22089934.011    22089933.492    22089943.692
       237.000         194.000
 00  4 19 16 27 29.9990000  0  7G 2G26G 4G24G 7G 8G 9
    497313.98549    391280.84347  21524226.663    21524225.417    21524235.184
       240.000         204.000
   3669169.81149   2863016.84446  23372836.409    23372835.689    23372848.175
       230.000         177.000
 -19260814.06349 -14992892.91947  21512879.175    21512879.153    21512891.119
       235.000         193.000
  -3987808.68049  -3059343.41645  24108694.306    24108694.062    24108716.142
       211.000         146.000
  -1515356.51049  -1168569.81847  20651084.420    20651083.207    20651092.003
       240.000         209.000
  13895131.92349  10820507.08845  24036742.493    24036740.473    24036758.620
       214.000         148.000
 -18408444.15349 -14329748.46047  22073638.791    22073638.277    22073648.429
       237.000         195.000
 00  4 19 16 27 59.9990000  0  7G 2G26G 4G24G 7G 8G 9
    518224.04749    407574.32947  21528205.787    21528204.531    21528214.304
       240.000         205.000
   3725365.25849   2906805.35246  23383530.214    23383529.441    23383541.978
       231.000         177.000
 -19356232.60249 -15067244.87647  21494721.491    21494721.491    21494733.461
       236.000         194.000
  -4108392.66949  -3153304.62945  24085747.608    24085747.495    24085769.521
       206.000         146.000
  -1490060.96249  -1148859.02147  20655898.027    20655896.812    20655905.617
       240.000         209.000
  13996250.58049  10899300.37145  24055985.249    24055983.071    24056001.455
       210.000         151.000
 -18493710.73249 -14396189.87547  22057413.092    22057412.550    22057422.676
       237.000         195.000
 00  4 19 16 28 29.9990000  0  7G 2G26G 4G24G 7G 8G 9
    539362.09949    424045.46547  21532228.296    21532227.029    21532236.806
       241.000         204.000
   3781832.68849   2950805.78146  23394275.710    23394274.962    23394287.532
       229.000         177.000
 -19451287.52749 -15141313.51547  21476633.055    21476633.035    21476644.990
       236.000         194.000
  -4228947.61749  -3247243.15745  24062806.491    24062806.420    24062828.493
       208.000         142.000
  -1464497.97849  -1128939.83747  20660762.519    20660761.295    20660770.118
       240.000         209.000
  14097472.90149  10978174.43045  24075247.607    24075245.407    24075263.782
       208.000         148.000
 -18578620.41449 -14462353.20447  22041255.316    22041254.755    22041264.812
       237.000         195.000
 00  4 19 16 28 59.9990000  0  7G 2G26G 4G24G 7G 8G 9
    560743.00149    440705.84047  21536297.002    21536295.734    21536305.537
       240.000         204.000
   3838572.47249   2995018.43446  23405073.055    23405072.289    23405084.911
       228.000         176.000
 -19545966.39549 -15215089.10547  21458616.123    21458616.131    21458628.079
       235.000         194.000
  -4349469.24749  -3341155.79245  24039871.793    24039871.688    24039893.708
       212.000         148.000
  -1438647.52849  -1108796.66547  20665681.699    20665680.489    20665689.317
       240.000         209.000
  14198798.81949  11057129.18445  24094529.629    24094527.448    24094546.020
       207.000         145.000
 -18663164.96949 -14528232.02347  22025166.995    22025166.427    22025176.456
       238.000         196.000
 00  4 19 16 29 29.9990000  0  7G 2G26G 4G24G 7G 8G 9
    582382.91349    457568.04447  21540414.994    21540413.730    21540423.559
       240.000         204.000
   3895598.70349   3039454.28646  23415924.952    23415924.151    23415936.820
       227.000         176.000
 -19640233.35549 -15288543.73547  21440677.611    21440677.619    21440689.535
       236.000         194.000
  -4469937.12749  -3435026.56945  24016947.381    24016947.220    24016969.107
       209.000         147.000
  -1412482.41249  -1088408.30547  20670660.775    20670659.571    20670668.395
       240.000         209.000
  14300236.17549  11136170.75345  24113832.924    24113830.702    24113849.449
       207.000         146.000
 -18747306.68149 -14593796.92647  22009155.319    22009154.762    22009164.762
       237.000         196.000
 00  4 19 16 29 59.9990000  0  7G 2G26G 4G24G 7G 8G 9
    604257.67749    474613.24447  21544577.673    21544576.421    21544586.274
       240.000         204.000
   3952883.23449   3084091.40846  23426825.920    23426825.164    23426837.868
       229.000         176.000
 -19734097.28549 -15361684.31647  21422815.758    21422815.777    21422827.678
       236.000         194.000
  -4590373.48449  -3528872.74645  23994028.907    23994028.735    23994050.589
       210.000         149.000
  -1386021.95849  -1067789.80947  20675696.057    20675694.860    20675703.669
       241.000         209.000
  14401776.11049  11215292.28945  24133155.652    24133153.422    24133172.271
       205.000         149.000
 -18831060.96549 -14659059.95347  21993217.374    21993216.820    21993226.790
       238.000         197.000
 00  4 19 16 30 29.9990000  0  8G 2G26G 4G24G 5G 7G 8G 9
    626361.32249    491836.79547  21548783.912    21548782.658    21548792.532
       239.000         204.000
   4010401.83349   3128910.93646  23437771.493    23437770.706    23437783.480
       228.000         176.000
 -19827556.91549 -15434509.84447  21405030.894    21405030.889    21405042.779
       236.000         194.000
  -4710807.26749  -3622716.94545  23971110.813    23971110.667    23971132.547
       209.000         151.000
  -1743148.24658  -1336853.09154  24928676.619    24928675.770    24928691.802
       191.000         123.000
  -1359253.23049  -1046931.09847  20680789.991    20680788.796    20680797.600
       240.000         209.000
  14503435.15349  11294506.62145  24152501.213    24152498.929    24152517.794
       210.000         146.000
 -18914431.70049 -14724024.11247  21977352.430    21977351.874    21977361.804
       238.000         196.000
 00  4 19 16 30 59.9990000  0  8G 2G26G 4G24G 5G 7G 8G 9
    648709.90249    509251.20247  21553036.796    21553035.518    21553045.411
       239.000         204.000
   4068160.13949   3173917.23746  23448762.702    23448761.885    23448774.712
       228.000         175.000
 -19920606.12949 -15507015.58047  21387324.064    21387324.094    21387335.968
       235.000         194.000
  -4831236.45749  -3716557.61045  23948193.702    23948193.631    23948215.286
       209.000         151.000
  -1837311.36949  -1410226.78745  24910757.976    24910756.971    24910773.100
       215.000         144.000
  -1332189.05749  -1025842.17847  20685940.147    20685938.965    20685947.772
       240.000         209.000
  14605219.65649  11373818.62645  24171870.492    24171868.228    24171887.332
       208.000         143.000
 -18997405.78749 -14788679.20547  21961562.944    21961562.382    21961572.273
       238.000         197.000
 00  4 19 16 31 29.9990000  0  8G 2G26G 4G24G 5G 7G 8G 9
    671277.35049    526836.14847  21557331.286    21557330.013    21557339.943
       239.000         203.000
   4126112.63949   3219074.85446  23459790.782    23459790.009    23459802.887
       228.000         175.000
 -20013275.15249 -15579225.05547  21369689.639    21369689.657    21369701.486
       236.000         195.000
  -4951678.98549  -3810408.61145  23925273.895    23925273.916    23925295.550
       215.000         150.000
  -1931521.47349  -1483637.23744  24892830.430    24892829.469    24892845.478
       195.000         128.000
  -1304872.91349  -1004556.90947  20691138.276    20691137.085    20691145.889
       240.000         209.000
  14707111.31549  11453214.21645  24191260.140    24191257.906    24191277.150
       210.000         151.000
 -19080025.34349 -14853058.03947  21945840.916    21945840.372    21945850.223
       238.000         197.000
 00  4 19 16 31 59.9990000  0  8G 2G26G 4G24G 5G 7G 8G 9
    694107.27849    544625.62747  21561675.730    21561674.456    21561684.414
       239.000         203.000
   4184285.92149   3264404.50446  23470860.904    23470860.139    23470873.053
       227.000         175.000
 -20105534.03849 -15651114.94647  21352133.265    21352133.285    21352145.078
       237.000         195.000
  -5072093.07849  -3904237.45245  23902359.612    23902359.578    23902381.245
       214.000         152.000
  -2025739.00849  -1557053.33845  24874901.255    24874900.213    24874916.381
       215.000         144.000
  -1277274.09649   -983051.37247  20696390.165    20696388.974    20696397.785
       241.000         209.000
  14809148.77649  11532723.43745  24210677.493    24210675.357    24210694.656
       206.000         148.000
 -19162259.68449 -14917136.70347  21930192.169    21930191.647    21930201.457
       238.000         196.000
 00  4 19 16 32 29.9990000  0  8G 2G26G 4G24G 5G 7G 8G 9
    717207.66249    562625.85047  21566071.659    21566070.375    21566080.349
       239.000         203.000
   4242681.77149   3309907.58946  23481973.350    23481972.625    23481985.560
       226.000         175.000
 -20197379.81249 -15722682.93147  21334655.502    21334655.521    21334667.275
       237.000         196.000
  -5192464.09049  -3998032.75845  23879453.608    23879453.548    23879475.149
       210.000         151.000
  -2119980.63358  -1630488.21254  24856967.115    24856966.609    24856982.708
       192.000         126.000
  -1249397.22849   -961329.17447  20701694.993    20701693.802    20701702.600
       241.000         209.000
  14911320.61349  11612337.30545  24230120.576    24230118.412    24230137.862
       205.000         141.000
 -19244097.03249 -14980906.02647  21914618.999    21914618.480    21914628.253
       238.000         197.000
 00  4 19 16 32 59.9990000  0  8G 2G26G 4G24G 5G 7G 8G 9
    740572.16749    580831.88147  21570517.839    21570516.566    21570526.549
       239.000         202.000
   4301307.44849   3355589.74346  23493129.562    23493128.847    23493141.831
       226.000         174.000
 -20288815.17449 -15793931.11347  21317255.852    21317255.856    21317267.556
       238.000         195.000
  -5312768.06549  -4091775.82245  23856560.281    23856560.220    23856581.727
       209.000         149.000
  -2214239.30249  -1703936.49645  24839030.580    24839029.819    24839045.554
       216.000         137.000
  -1221252.99149   -939398.63147  20707050.736    20707049.508    20707058.298
       241.000         209.000
  15013612.71749  11692044.89945  24249586.393    24249584.269    24249603.941
       205.000         145.000
 -19325526.94249 -15044357.87147  21899123.351    21899122.839    21899132.571
       238.000         196.000
 00  4 19 16 33 29.9990000  0  8G 2G26G 4G24G 5G 7G 8G 9
    764205.47449    599247.36747  21575015.143    21575013.892    21575023.895
       239.000         202.000
   4360163.34449   3401451.29846  23504329.668    23504328.865    23504341.911
       227.000         174.000
 -20379826.23149 -15864848.66647  21299936.924    21299936.946    21299948.585
       237.000         196.000
  -5432978.38549  -4185445.87645  23833684.754    23833684.742    23833706.169
       210.000         148.000
  -2308499.73949  -1777385.89845  24821093.150    24821092.613    24821108.230
       204.000         136.000
  -1192804.14149   -917230.73047  20712464.403    20712463.177    20712471.948
       241.000         209.000
  15116039.05549  11771857.13445  24269077.940    24269075.748    24269095.505
       204.000         145.000
 -19406527.86449 -15107475.43147  21883709.357    21883708.844    21883718.552
       238.000         197.000
 00  4 19 16 33 59.9990000  0  8G 2G26G 4G24G 5G 7G 8G 9
    788091.23449    617859.56647  21579560.510    21579559.258    21579569.275
       239.000         202.000
   4419249.61349   3447492.35346  23515573.485    23515572.723    23515585.812
       227.000         175.000
 -20470419.79449 -15935440.90947  21282697.470    21282697.464    21282709.040
       237.000         196.000
  -5553111.42249  -4279055.70345  23810823.914    23810823.987    23810845.302
       211.000         151.000
  -2402778.55149  -1850849.84144  24803152.607    24803151.832    24803167.500
       208.000         128.000
  -1164052.03049   -894826.52047  20717935.775    20717934.560    20717943.311
       241.000         209.000
  15218585.13449  11851762.62945  24288592.236    24288590.061    24288609.854
       206.000         143.000
 -19487087.15749 -15170248.86647  21868379.372    21868378.871    21868388.586
       239.000         197.000
 00  4 19 16 34 29.9990000  0  8G 2G26G 4G24G 5G 7G 8G 9
    812224.05249    636664.27547  21584152.882    21584151.632    21584161.676
       239.000         202.000
   4478552.26549   3493702.02646  23526858.511    23526857.785    23526870.916
       226.000         174.000
 -20560602.52949 -16005713.02147  21265536.153    21265536.155    21265547.656
       238.000         196.000
  -5673177.36849  -4372613.28045  23787975.908    23787975.896    23787997.133
       213.000         152.000
  -2497078.71949  -1924330.35145  24785207.679    24785207.031    24785222.783
       208.000         141.000
  -1135001.26649   -872189.59047  20723464.011    20723462.778    20723471.534
       242.000         209.000
  15321233.17949  11931747.57645  24308125.911    24308123.707    24308143.649
       206.000         145.000
 -19567207.33949 -15232680.13247  21853132.996    21853132.469    21853142.181
       239.000         198.000
 00  4 19 16 34 59.9990000  0  8G 2G26G 4G24G 5G 7G 8G 9
    836583.58549    655645.64147  21588788.420    21588787.170    21588797.224
       239.000         202.000
   4538050.75849   3540064.28946  23538180.929    23538180.104    23538193.303
       226.000         173.000
 -20650376.62349 -16075666.71447  21248452.642    21248452.626    21248464.062
       238.000         197.000
  -5793195.85749  -4466133.81745  23765136.827    23765136.886    23765158.102
       216.000         153.000
  -2591394.22549  -1997822.72544  24767260.019    24767259.224    24767274.967
       212.000         128.000
  -1105658.85349   -849325.40147  20729047.732    20729046.492    20729055.253
       241.000         210.000
  15423961.85349  12011795.37445  24327674.928    24327672.713    24327692.821
       207.000         145.000
 -19646896.60849 -15294775.62547  21837968.607    21837968.093    21837977.790
       239.000         198.000
 00  4 19 16 35 29.9990000  0  8G 2G26G 4G24G 5G 7G 8G 9
    861178.71349    674810.58447  21593468.793    21593467.537    21593477.579
       241.000         202.000
   4597748.80949   3586582.06546  23549541.211    23549540.391    23549553.656
       227.000         174.000
 -20739730.00649 -16145292.58547  21231449.169    21231449.140    21231460.539
       239.000         198.000
  -5913183.26549  -4559630.18345  23742303.821    23742303.842    23742324.908
       213.000         152.000
  -2685720.91549  -2071324.01145  24749310.242    24749309.466    24749324.975
       209.000         142.000
  -1076015.30049   -826226.55247  20734688.710    20734687.480    20734696.257
       242.000         209.000
  15526760.55249  12091897.75945  24347237.285    24347235.034    24347255.330
       204.000         141.000
 -19726154.93949 -15356535.31647  21822886.220    21822885.695    21822895.386
       240.000         198.000
 00  4 19 16 35 59.9990000  0  8G 2G26G 4G24G 5G 7G 8G 9
    886005.28449    694155.87947  21598193.216    21598191.939    21598201.986
       240.000         201.000
   4657641.89149   3633251.79546  23560938.597    23560937.770    23560951.111
       225.000         173.000
 -20828680.90549 -16214604.82347  21214522.219    21214522.234    21214533.609
       238.000         198.000
  -6033167.39949  -4653123.95345  23719471.349    23719471.411    23719492.363
       211.000         150.000
  -2780073.14849  -2144845.03345  24731355.564    24731354.761    24731370.319
       207.000         137.000
  -1046110.43849   -802924.09047  20740379.433    20740378.215    20740386.992
       242.000         210.000
  15629605.40149  12172036.04145  24366808.333    24366806.140    24366826.676
       203.000         142.000
 -19805002.68349 -15417975.06547  21807881.956    21807881.442    21807891.135
       239.000         198.000
 00  4 19 16 36 29.9990000  0  8G 2G26G 4G24G 5G 7G 8G 9
    911090.44149    713702.66947  21602966.820    21602965.557    21602975.614
       239.000         201.000
   4717748.69749   3680088.07746  23572376.708    23572375.858    23572389.301
       226.000         173.000
 -20917199.76649 -16283580.42347  21197677.521    21197677.548    21197688.885
       239.000         198.000
  -6153116.11449  -4746590.13845  23696645.607    23696645.676    23696666.605
       214.000         153.000
  -2874421.78349  -2218363.33245  24713401.580    24713400.647    24713416.181
       216.000         138.000
  -1015925.00849   -779403.00547  20746123.576    20746122.343    20746131.118
       242.000         210.000
  15732521.85049  12252230.10045  24386393.160    24386390.938    24386411.608
       209.000         150.000
 -19883420.74049 -15479079.99347  21792959.471    21792958.925    21792968.633
       240.000         199.000
 00  4 19 16 36 59.9990000  0  8G 2G26G 4G24G 5G 7G 8G 9
    936418.44449    733438.68547  21607786.639    21607785.388    21607795.480
       239.000         202.000
   4778068.05349   3727089.97446  23583855.245    23583854.408    23583867.895
       225.000         172.000
 -21005296.67249 -16352227.21947  21180913.150    21180913.179    21180924.480
       240.000         199.000
  -6273053.85649  -4840047.76845  23673821.943    23673822.032    23673842.903
       213.000         152.000
  -2968779.43349  -2291888.62145  24695445.787    24695445.033    24695460.354
       203.000         143.000
   -985477.39049   -755677.61647  20751917.592    20751916.367    20751925.131
       241.000         210.000
  15835512.22749  12332481.79445  24405992.074    24405989.800    24406010.602
       210.000         153.000
 -19961431.93749 -15539867.88547  21778114.411    21778113.843    21778123.567
       239.000         199.000
 00  4 19 16 37 29.9990000  0  8G 2G26G 4G24G 5G 7G 8G 9
    962007.15649    753377.84347  21612656.085    21612654.817    21612664.941
       240.000         202.000
   4838614.60449   3774268.89146  23595377.050    23595376.199    23595389.692
       226.000         172.000
 -21092962.16749 -16420537.86847  21164230.901    21164230.903    21164242.167
       239.000         199.000
  -6392957.97649  -4933479.18945  23651004.708    23651004.756    23651025.552
       214.000         154.000
  -3063142.48449  -2365418.06245  24677489.001    24677488.169    24677503.576
       216.000         138.000
   -954764.91549   -731745.84947  20757761.974    20757760.777    20757769.557
       242.000         209.000
  15938603.68149  12412812.25445  24425610.199    24425607.875    24425628.781
       208.000         147.000
 -20039031.98949 -15600335.40547  21763347.571    21763347.014    21763356.746
       240.000         199.000
 00  4 19 16 37 59.9990000  0  8G 2G26G 4G24G 5G 7G 8G 9
    987862.47549    773524.75647  21617576.288    21617574.993    21617585.128
       240.000         201.000
   4899367.55049   3821608.63746  23606938.144    23606937.283    23606950.822
       226.000         172.000
 -21180186.73049 -16488504.92847  21147632.505    21147632.517    21147643.766
       240.000         199.000
  -6512799.09149  -5026861.55645  23628199.420    23628199.500    23628220.242
       213.000         153.000
  -3157512.15149  -2438952.73345  24659530.825    24659530.188    24659545.480
       209.000         143.000
   -923791.76949   -707610.96047  20763656.001    20763654.791    20763663.584
       242.000         209.000
  16041823.25449  12493242.55245  24445252.686    24445250.377    24445271.421
       200.000         137.000
 -20116218.57349 -15660480.74347  21748659.417    21748658.862    21748668.587
       241.000         199.000
 00  4 19 16 38 29.9990000  0  8G 2G26G 4G24G 5G 7G 8G 9
   1013980.84849    793876.64447  21622546.557    21622545.250    21622555.366
       240.000         202.000
   4960320.92749   3869104.57046  23618537.287    23618536.486    23618550.095
       224.000         172.000
 -21266946.87449 -16556110.10547  21131122.474    21131122.520    21131133.736
       239.000         199.000
  -6632552.20849  -5120175.32945  23605410.863    23605411.006    23605431.699
       211.000         152.000
  -3251875.06049  -2512482.07045  24641574.203    24641573.425    24641588.690
       214.000         143.000
   -892537.95049   -683257.36947  20769603.451    20769602.228    20769611.011
       242.000         209.000
  16145184.16848  12573782.97044  24464922.018    24464919.582    24464940.783
       193.000         123.000
 -20192977.81549 -15720293.09247  21734052.543    21734052.009    21734061.725
       240.000         199.000
 00  4 19 16 38 59.9990000  0  8G 2G26G 4G24G 5G 7G 8G 9
   1040353.50449    814426.68147  21627565.165    21627563.866    21627574.004
       240.000         201.000
   5021461.12849   3916746.07546  23630172.021    23630171.243    23630184.877
       226.000         170.000
 -21353248.22049 -16623357.78847  21114699.795    21114699.839    21114711.013
       239.000         199.000
  -6752215.19249  -5213418.88445  23582639.411    23582639.647    23582660.196
       213.000         154.000
  -3346238.53149  -2586011.89545  24623617.274    24623616.554    24623631.668
       214.000         145.000
   -861018.49749   -658696.79047  20775601.451    20775600.216    20775608.979
       242.000         209.000
  16248668.68248  12654419.67044  24484614.907    24484612.751    24484633.525
       182.000         112.000
 -20269309.51249 -15779772.28847  21719527.034    21719526.522    21719536.222
       240.000         199.000
 00  4 19 16 39 29.9990000  0  8G 2G26G 4G24G 5G 7G 8G 9
   1066981.75449    835175.87647  21632632.426    21632631.115    21632641.293
       240.000         202.000
   5082776.54349   3964524.10846  23641840.134    23641839.342    23641853.007
       224.000         170.000
 -21439082.22449 -16690241.31447  21098366.076    21098366.074    21098377.201
       240.000         199.000
  -6871757.98849  -5306568.76845  23559890.843    23559891.156    23559911.622
       216.000         155.000
  -3440596.80849  -2659537.62445  24605661.546    24605660.843    24605675.825
       211.000         143.000
   -829230.76649   -633927.15447  20781650.476    20781649.247    20781658.008
       242.000         209.000
                  12735141.79354  24504328.563
       182.000         103.000
 -20345201.85449 -15838909.12447  21705085.167    21705084.669    21705094.329
       241.000         200.000
 00  4 19 16 39 59.9990000  0  8G 2G26G 4G24G 5G 7G 8G 9
   1093859.62649    856119.58647  21637747.179    21637745.878    21637756.098
       240.000         201.000
   5144263.91549   4012436.12946  23653540.991    23653540.178    23653553.822
       224.000         169.000
 -21524457.59049 -16756767.45547  21082119.603    21082119.602    21082130.660
       239.000         198.000
  -6991186.05049  -5399629.26645  23537164.187    23537164.500    23537184.876
       212.000         155.000
  -3534960.59149  -2733067.69345  24587704.565    24587703.880    24587718.737
       220.000         147.000
   -797175.69649   -608949.21047  20787750.360    20787749.157    20787757.911
       241.000         209.000
                  12815930.21153  24524058.380
       170.000          90.000
 -20420657.32149 -15897705.54147  21690726.468    21690725.937    21690735.568
       240.000         200.000
 00  4 19 16 40 29.9990000  0  7G 2G26G 4G24G 5G 7G 9
   1121008.65549    877274.58847  21642913.571    21642912.247    21642922.501
       240.000         202.000
   5205973.74549   4060521.49646  23665284.145    23665283.308    23665296.991
       225.000         170.000
 -21609354.50749 -16822920.78947  21065964.145    21065964.161    21065975.177
       239.000         199.000
  -7110486.14249  -5492590.06245  23514461.903    23514462.148    23514482.449
       217.000         155.000
  -3629316.33049  -2806591.43745  24569749.207    24569748.552    24569763.418
       207.000         141.000
   -764833.75949   -583747.73647  20793904.826    20793903.641    20793912.401
       242.000         209.000
 -20495652.91649 -15956143.62147  21676455.259    21676454.741    21676464.327
       241.000         200.000
 00  4 19 16 40 59.9990000  0  7G 2G26G 4G24G 5G 7G 9
   1148418.55449    898632.86347  21648129.603    21648128.251    21648138.535
       239.000         202.000
   5267888.24349   4108766.34446  23677066.236    23677065.397    23677079.136
       223.000         170.000
 -21693802.69049 -16888724.45847  21049894.094    21049894.105    21049905.069
       239.000         199.000
  -7229685.78449  -5585472.57745  23491778.767    23491778.981    23491799.229
       215.000         156.000
  -3723704.35649  -2880140.43545  24551787.706    24551786.962    24551801.709
       217.000         146.000
   -732225.56949   -558338.79347  20800109.998    20800108.805    20800117.552
       242.000         209.000
 -20570216.49449 -16014245.06347  21662266.253    21662265.731    21662275.306
       241.000         201.000
 00  4 19 16 41 29.9990000  0  7G 2G26G 4G24G 5G 7G 9
   1176067.55549    920177.46647  21653391.105    21653389.752    21653400.076
       240.000         201.000
   5329983.61049   4157152.12646  23688882.669    23688881.886    23688895.661
       225.000         170.000
 -21777819.05549 -16954191.65347  21033906.236    21033906.228    21033917.145
       239.000         199.000
  -7348813.60549  -5678299.14345  23469109.290    23469109.502    23469129.634
       215.000         156.000
  -3818159.65849  -2953741.69345  24533813.126    24533812.508    24533827.439
       209.000         142.000
   -699364.56949   -532732.85847  20806363.265    20806362.077    20806370.825
       242.000         208.000
 -20644376.03249 -16072031.67247  21648154.152    21648153.618    21648163.186
       241.000         201.000
 00  4 19 16 41 59.9990000  0  7G 2G26G 4G24G 5G 7G 9
   1203989.26349    941934.55747  21658704.485    21658703.152    21658713.486
       239.000         201.000
   5392297.83149   4205708.43346  23700740.838    23700740.041    23700753.875
       225.000         169.000
 -21861373.10549 -17019298.59547  21018006.301    21018006.323    21018017.207
       238.000         199.000
  -7467849.20349  -5771053.85345  23446457.419    23446457.621    23446477.588
       214.000         156.000
  -3912652.10649  -3027372.13545  24515831.842    24515831.089    24515845.817
       216.000         146.000
   -666217.75549   -506904.21247  20812670.892    20812669.719    20812678.488
       241.000         209.000
 -20718093.61749 -16129473.89647  21634126.118    21634125.595    21634135.165
       241.000         201.000
 00  4 19 16 42 29.9990000  0  7G 2G26G 4G24G 5G 7G 9
   1232185.26049    963905.38647  21664070.083    21664068.729    21664079.093
       239.000         201.000
   5454822.35649   4254428.62246  23712639.107    23712638.273    23712652.117
       224.000         170.000
 -21944457.15949 -17084039.31147  21002195.817    21002195.849    21002206.719
       238.000         200.000
  -7586794.95749  -5863738.52745  23423822.613    23423822.776    23423842.668
       219.000         155.000
  -4007162.52649  -3101016.32045  24497846.911    24497846.183    24497861.017
       216.000         146.000
   -632782.42349   -480850.75347  20819033.446    20819032.273    20819041.070
       241.000         208.000
 -20791349.97349 -16186556.72247  21620185.879    21620185.345    21620194.908
       241.000         202.000
 00  4 19 16 42 59.9990000  0  7G 2G26G 4G24G 5G 7G 9
   1260642.63949    986079.89547  21669485.355    21669484.044    21669494.447
       239.000         200.000
   5517519.20449   4303283.07746  23724570.113    23724569.237    23724583.111
       224.000         170.000
 -22027086.80849 -17148425.94347  20986471.813    20986471.847    20986482.708
       239.000         201.000
  -7705671.68049  -5956369.42745  23401200.967    23401201.073    23401220.913
       215.000         158.000
  -4101678.19049  -3174664.78545  24479861.048    24479860.373    24479875.044
       211.000         139.000
   -599087.23449   -454594.80747  20825445.456    20825444.287    20825453.107
       241.000         209.000
 -20864152.02849 -16243285.54547  21606332.052    21606331.537    21606341.095
       241.000         201.000
 00  4 19 16 43 29.9990000  0  7G 2G26G 4G24G 5G 7G 9
   1289360.15949   1008457.10347  21674950.128    21674948.852    21674959.289
       238.000         200.000
   5580389.87149   4352272.98946  23736534.169    23736533.277    23736547.197
       224.000         168.000
 -22109248.67549 -17212448.07547  20970836.843    20970836.864    20970847.725
       238.000         201.000
  -7824463.46649  -6048934.13045  23378595.442    23378595.515    23378615.204
       218.000         157.000
  -4196168.75349  -3248293.58945  24461880.024    24461879.315    24461893.973
       215.000         153.000
   -565139.16449   -428141.80847  20831905.584    20831904.419    20831913.251
       241.000         208.000
 -20936477.49749 -16299643.00247  21592568.941    21592568.415    21592577.968
       241.000         202.000
 00  4 19 16 43 59.9990000  0  7G 2G26G 4G24G 5G 7G 9
   1318348.11749   1031045.03447  21680466.426    21680465.134    21680475.596
       238.000         200.000
   5643431.32449   4401395.98346  23748530.701    23748529.831    23748543.779
       224.000         167.000
 -22190940.29749 -17276103.77947  20955291.359    20955291.361    20955302.237
       239.000         201.000
  -7943153.65549  -6141419.66245  23356009.277    23356009.324    23356028.895
       217.000         157.000
  -4290614.88049  -3321887.81845  24443907.355    24443906.642    24443921.161
       216.000         145.000
   -530942.39249   -401495.02047  20838413.025    20838411.866    20838420.725
       241.000         208.000
 -21008314.51949 -16355619.85747  21578898.825    21578898.272    21578907.793
       240.000         202.000
 00  4 19 16 44 29.9990000  0  7G 2G26G 4G24G 5G 7G 9
   1347606.02249   1053843.31847  21686034.071    21686032.788    21686043.288
       237.000         200.000
   5706628.44449   4450640.27146  23760556.920    23760556.039    23760570.000
       222.000         166.000
 -22272157.85349 -17339390.08347  20939836.076    20939836.075    20939846.958
       239.000         202.000
  -8061735.46049  -6233820.73345  23333443.574    23333443.715    23333463.194
       217.000         157.000
  -4385017.69149  -3395448.25645  24425942.942    24425942.238    24425956.726
       212.000         153.000
   -496505.30449   -374660.97547  20844966.212    20844965.045    20844973.932
       240.000         208.000
 -21079671.83649 -16411222.91347  21565319.967    21565319.398    21565328.915
       240.000         202.000
 00  4 19 16 44 59.9990000  0  7G 2G26G 4G24G 5G 7G 9
   1377134.63549   1076852.55447  21691653.140    21691651.929    21691662.490
       237.000         200.000
   5769975.85549   4500001.66346  23772611.702    23772610.826    23772624.811
       222.000         167.000
 -22352888.21849 -17402296.75847  20924473.522    20924473.520    20924484.405
       238.000         202.000
  -8180197.53949  -6326128.52745  23310900.733    23310900.873    23310920.232
       219.000         160.000
  -4479389.94849  -3468984.88445  24407984.318    24407983.669    24407998.124
       213.000         146.000
   -461825.97049   -347638.16447  20851565.504    20851564.323    20851573.240
       241.000         208.000
 -21150558.29549 -16466459.05747  21551830.674    21551830.133    21551839.630
       240.000         202.000
 00  4 19 16 45 29.9990000  0  7G 2G26G 4G24G 5G 7G 9
   1406930.67549   1100070.16447  21697323.177    21697321.969    21697332.582
       238.000         199.000
   5833463.12549   4549472.04146  23784693.116    23784692.219    23784706.281
       223.000         167.000
 -22433126.08849 -17464819.66747  20909204.699    20909204.681    20909215.587
       239.000         202.000
  -8298536.59649  -6418340.44545  23288381.432    23288381.520    23288400.765
       217.000         161.000
  -4573762.65849  -3542521.88745  24390025.610    24390024.956    24390039.413
       214.000         150.000
   -426893.88949   -320418.40947  20858212.846    20858211.688    20858220.635
       241.000         208.000
 -21220988.64649 -16521339.79447  21538428.167    21538427.633    21538437.126
       240.000         202.000
 00  4 19 16 45 59.9990000  0  7G 2G26G 4G24G 5G 7G 9
   1437019.40249   1123515.84447  21703048.976    21703047.722    21703058.371
       237.000         200.000
   5897110.73649   4599067.36646  23796804.997    23796804.120    23796818.263
       222.000         166.000
 -22512841.80549 -17526935.69647  20894035.229    20894035.189    20894046.122
       240.000         203.000
  -8416744.52949  -6510450.13445  23265886.894    23265887.050    23265906.252
       218.000         158.000
  -4668131.14149  -3616055.57345  24372067.685    24372067.139    24372081.591
       213.000         148.000
   -391686.57049   -292984.18147  20864912.614    20864911.442    20864920.422
       241.000         208.000
 -21290954.94049 -16575858.93247  21525113.948    21525113.440    21525122.917
       241.000         202.000
 00  4 19 16 46 29.9990000  0  7G 2G26G 4G24G 5G 7G 9
   1467389.03949   1147180.40847  21708828.209    21708826.941    21708837.632
       238.000         199.000
   5960919.01149   4648787.87546  23808947.511    23808946.603    23808960.834
       223.000         167.000
 -22592034.93549 -17588644.52547  20878965.158    20878965.150    20878976.084
       240.000         202.000
  -8534836.52749  -6602469.53745  23243414.585    23243414.688    23243433.788
       218.000         159.000
  -4762507.87149  -3689595.69245  24354108.354    24354107.741    24354122.104
       217.000         149.000
   -356206.95649   -265337.78247  20871664.205    20871663.033    20871672.008
       242.000         208.000
 -21360463.36249 -16630021.29447  21511886.880    21511886.389    21511895.847
       240.000         202.000
 00  4 19 16 46 59.9990000  0  7G 2G26G 4G24G 5G 7G 9
   1498042.08549   1171065.81047  21714661.356    21714660.090    21714670.829
       237.000         199.000
   6024883.74349   4698630.30246  23821119.679    23821118.794    23821133.105
       222.000         167.000
 -22670706.93649 -17649947.27347  20863994.309    20863994.282    20864005.210
       240.000         202.000
  -8652812.92549  -6694398.83545  23220964.039    23220964.274    23220983.303
       219.000         160.000
  -4856902.91949  -3763150.08345  24336145.383    24336144.793    24336159.220
       217.000         151.000
   -320455.61849   -237479.64647  20878467.518    20878466.323    20878475.291
       241.000         208.000
 -21429508.39749 -16683822.56947  21498747.976    21498747.506    21498756.964
       240.000         203.000
 00  4 19 16 47 29.9990000  0  7G 2G26G 4G24G 5G 7G 9
   1528958.62749   1195156.53547  21720544.662    21720543.385    21720554.182
       237.000         200.000
   6088998.61349   4748589.71146  23833320.553    23833319.628    23833333.982
       222.000         166.000
 -22748880.67349 -17710861.77247  20849118.298    20849118.253    20849129.151
       240.000         203.000
  -8770676.50049  -6786240.19745  23198535.048    23198535.308    23198554.278
       219.000         160.000
  -4951320.97349  -3836722.43745  24318178.062    24318177.516    24318191.878
       211.000         147.000
   -284449.58149   -209423.04947  20885319.273    20885318.077    20885327.043
       241.000         208.000
 -21498092.33549 -16737264.55747  21485696.848    21485696.378    21485705.828
       241.000         203.000
 00  4 19 16 47 59.9990000  0  7G 2G26G 4G24G 5G 7G 9
   1560139.21649   1219453.01147  21726478.219    21726476.933    21726487.750
       237.000         199.000
   6153282.91249   4798681.15546  23845553.628    23845552.681    23845567.129
       221.000         165.000
 -22826551.41949 -17771384.31947  20834337.976    20834337.938    20834348.807
       240.000         203.000
  -8888392.31849  -6877966.44945  23176134.256    23176134.512    23176153.387
       218.000         160.000
  -5045730.29549  -3910288.00545  24300212.441    24300211.875    24300226.186
       212.000         150.000
   -248179.13149   -181160.41147  20892221.268    20892220.117    20892229.113
       241.000         208.000
 -21566181.48149 -16790320.99047  21472739.881    21472739.417    21472748.855
       241.000         204.000
 00  4 19 16 48 29.9990000  0  7G 2G26G 4G24G 5G 7G 9
   1591580.24349   1243952.42447  21732461.326    21732460.033    21732470.851
       238.000         200.000
   6217726.38949   4848896.61646  23857816.973    23857816.049    23857830.553
       221.000         166.000
 -22903736.34249 -17831528.30347  20819650.086    20819650.057    20819660.900
       240.000         203.000
  -9005943.86549  -6969564.68845  23153764.629    23153764.932    23153783.691
       222.000         160.000
  -5140136.41749  -3983851.02045  24282247.405    24282246.827    24282261.170
       213.000         148.000
   -211647.91149   -152694.57547  20899172.980    20899171.816    20899180.811
       241.000         208.000
 -21633773.48049 -16842990.03847  21459877.489    21459877.027    21459886.465
       241.000         204.000
 00  4 19 16 48 59.9990000  0  7G 2G26G 4G24G 5G 7G 9
   1623299.66349   1268668.75647  21738497.398    21738496.103    21738506.952
       237.000         200.000
   6282329.32549   4899236.34846  23870110.727    23870109.720    23870124.318
       222.000         165.000
 -22980425.65949 -17891286.10647  20805056.535    20805056.486    20805067.280
       240.000         203.000
  -9123315.64749  -7061022.82145  23131429.268    23131429.592    23131448.289
       220.000         161.000
  -5234531.46449  -4057405.47745  24264284.617    24264283.944    24264298.184
       210.000         152.000
   -174869.04849   -124035.77647  20906171.851    20906170.643    20906179.648
       241.000         208.000
 -21700862.98349 -16895267.53647  21447110.763    21447110.300    21447119.719
       241.000         204.000
 00  4 19 16 49 29.9990000  0  7G 2G26G 4G24G 5G 7G 9
   1655281.67849   1293589.72247  21744583.439    21744582.161    21744593.026
       237.000         199.000
   6347093.19349   4949701.45646  23882434.983    23882433.991    23882448.713
       222.000         165.000
 -23056631.17149 -17950666.91547  20790555.018    20790554.983    20790565.731
       241.000         203.000
  -9240518.68649  -7152349.47945  23109126.071    23109126.306    23109144.967
       220.000         162.000
  -5328912.76649  -4130949.14845  24246324.295    24246323.659    24246337.943
       210.000         150.000
   -137864.92849    -95201.44547  20913213.574    20913212.355    20913221.355
       241.000         208.000
 -21767463.75249 -16947164.20147  21434437.034    21434436.547    21434445.967
       241.000         204.000
 00  4 19 16 49 59.9990000  0  7G 2G26G 4G24G 5G 7G 9
   1687556.60649   1318738.92547  21750725.245    21750723.949    21750734.813
       238.000         199.000
   6412013.99749   5000288.86646  23894789.111    23894788.179    23894802.929
       221.000         164.000
 -23132340.28449 -18009660.91947  20776147.952    20776147.939    20776158.638
       241.000         203.000
  -9357560.23749  -7243550.31145  23086853.535    23086853.753    23086872.276
       222.000         161.000
  -5423282.90849  -4204484.19145  24228366.105    24228365.540    24228379.678
       210.000         149.000
   -100632.24849    -66189.02147  20920298.742    20920297.532    20920306.537
       242.000         208.000
 -21833578.21649 -16998681.91847  21421855.814    21421855.324    21421864.748
       242.000         204.000
 00  4 19 16 50 29.9990000  0  7G 2G26G 4G24G 5G 7G 9
   1720170.46949   1344152.23247  21756931.512    21756930.224    21756941.094
       237.000         198.000
   6477106.07149   5051009.73046  23907175.830    23907174.937    23907189.777
       222.000         163.000
 -23207516.41249 -18068239.61647  20761842.330    20761842.327    20761852.969
       241.000         203.000
  -9474444.76249  -7334628.75945  23064610.825    23064611.072    23064629.519
       221.000         162.000
  -5517622.56349  -4277995.45045  24210413.787    24210413.222    24210427.249
       212.000         152.000
    -63148.56349    -36981.01047  20927431.687    20927430.478    20927439.486
       241.000         208.000
 -21899187.20649 -17049805.76347  21409370.807    21409370.315    21409379.744
       241.000         204.000
 00  4 19 16 50 59.9990000  0  7G 2G26G 4G24G 5G 7G 9
   1753092.05749   1369805.32447  21763196.389    21763195.082    21763205.949
       239.000         199.000
   6542341.34449   5101842.17546  23919589.896    23919588.973    23919603.804
       222.000         164.000
 -23282178.77249 -18126417.97447  20747634.464    20747634.453    20747645.055
       241.000         203.000
  -9591210.44249  -7425614.63946  23042390.909    23042391.070    23042409.395
       221.000         163.000
  -5611947.31049  -4351495.10245  24192464.214    24192463.676    24192477.774
       209.000         148.000
    -25442.08549     -7599.40147  20934607.012    20934605.808    20934614.818
       242.000         209.000
 -21964306.87249 -17100548.31947  21396978.950    21396978.431    21396987.853
       242.000         205.000
 00  4 19 16 51 29.9990000  0  7G 2G26G 4G24G 5G 7G 9
   1786304.13549   1395684.76347  21769516.507    21769515.206    21769526.076
       237.000         198.000
   6607694.88449   5152766.78246  23932026.476    23932025.514    23932040.380
       222.000         163.000
 -23356329.50649 -18184197.67147  20733523.979    20733523.968    20733534.498
       241.000         203.000
  -9707862.43049  -7516511.91045  23020192.391    23020192.622    23020210.868
       220.000         162.000
  -5706259.65249  -4424985.08245  24174517.010    24174516.485    24174530.528
       212.000         151.000
     12507.57849     21971.70247  20941828.608    20941827.407    20941836.425
       241.000         208.000
 -22028932.89349 -17150906.21747  21384681.005    21384680.493    21384689.905
       241.000         205.000
 00  4 19 16 51 59.9990000  0  7G 2G26G 4G24G 5G 7G 9
   1819811.30249   1421794.14447  21775892.797    21775891.480    21775902.370
       237.000         198.000
   6673143.92049   5203765.79845  23944481.136    23944480.197    23944495.149
       220.000         162.000
 -23429942.93349 -18241558.67947  20719515.714    20719515.707    20719526.195
       241.000         203.000
  -9824396.64549  -7607317.39546  22998016.299    22998016.595    22998034.751
       220.000         164.000
  -5800561.52349  -4498466.91945  24156571.882    24156571.327    24156585.292
       210.000         149.000
     50711.83449     51741.20347  20949098.684    20949097.491    20949106.499
       242.000         208.000
 -22093049.96249 -17200867.52547  21372479.883    21372479.381    21372488.810
       242.000         205.000
 00  4 19 16 52 29.9990000  0  7G 2G26G 4G24G 5G 7G 9
   1853587.28149   1448113.01047  21782320.246    21782318.941    21782329.810
       238.000         197.000
   6738689.87249   5254840.31345  23956954.245    23956953.359    23956968.382
       222.000         162.000
 -23503016.26949 -18298498.84547  20705610.217    20705610.230    20705620.654
       241.000         203.000
  -9940805.79049  -7698025.43246  22975864.079    22975864.405    22975882.473
       221.000         164.000
  -5894852.32149  -4571940.10445  24138628.737    24138628.212    24138642.220
       213.000         153.000
     89152.88649     81695.21547  20956413.857    20956412.636    20956421.652
       242.000         208.000
 -22156656.45049 -17250430.98447  21360375.990    21360375.457    21360384.876
       242.000         205.000
 00  4 19 16 52 59.9990000  0  7G 2G26G 4G24G 5G 7G 9
   1887633.61149   1474642.52647  21788799.126    21788797.803    21788808.679
       237.000         197.000
   6804344.69749   5305999.67845  23969448.120    23969447.247    23969462.270
       221.000         161.000
 -23575531.44749 -18355004.09047  20691810.999    20691810.971    20691821.346
       241.000         202.000
 -10057047.13649  -7788602.73346  22953743.859    22953744.126    22953762.077
       220.000         165.000
  -5989122.35849  -4645397.13345  24120689.533    24120689.018    24120703.061
       211.000         149.000
    127841.15949    111841.86347  20963776.063    20963774.824    20963783.833
       241.000         208.000
 -22219739.73949 -17299586.76147  21348371.614    21348371.081    21348380.511
       241.000         205.000
 00  4 19 16 53 29.9990000  0  7G 2G26G 4G24G 5G 7G 9
   1921962.11749   1501391.92247  21795331.699    21795330.401    21795341.260
       237.000         197.000
   6870104.85449   5357241.12945  23981962.105    23981961.168    23981976.259
       222.000         162.000
 -23647470.61349 -18411060.49147  20678121.363    20678121.333    20678131.661
       240.000         203.000
 -10173098.48649  -7879031.97146  22931659.712    22931659.982    22931677.846
       220.000         164.000
  -6083360.91749  -4718829.62945  24102756.406    24102755.917    24102769.896
       211.000         152.000
    166777.47549    142181.80547  20971185.455    20971184.209    20971193.208
       241.000         207.000
 -22282299.50149 -17348334.58947  21336466.811    21336466.311    21336475.740
       241.000         206.000
 00  4 19 16 53 59.9990000  0  7G 2G26G 4G24G 5G 7G 9
   1956528.61749   1528326.75447  21801909.606    21801908.272    21801919.121
       238.000         197.000
   6935944.39149   5408544.41745  23994491.186    23994490.193    23994505.337
       221.000         161.000
 -23718896.29649 -18466716.78647  20664529.439    20664529.395    20664539.696
       241.000         203.000
 -10288994.50249  -7969340.16546  22909605.102    22909605.424    22909623.218
       222.000         165.000
  -6177619.43449  -4792277.69145  24084819.489    24084819.006    24084832.950
       214.000         153.000
    205890.33949    172659.30447  20978628.421    20978627.188    20978636.194
       242.000         208.000
 -22344384.99549 -17396712.86547  21324652.304    21324651.801    21324661.233
       242.000         206.000
 00  4 19 16 54 29.9990000  0  7G 2G26G 4G24G 5G 7G 9
   1991358.95749   1555467.18547  21808537.700    21808536.359    21808547.199
       237.000         197.000
   7001896.16449   5459935.16845  24007041.594    24007040.600    24007055.728
       222.000         162.000
 -23789810.09649 -18521974.21447  20651034.911    20651034.881    20651045.131
       240.000         202.000
 -10404699.32249  -8059499.39546  22887586.854    22887587.227    22887604.919
       221.000         166.000
  -6271872.78349  -4865721.69845  24066883.583    24066883.058    24066897.004
       212.000         149.000
    245208.59449    203296.85047  20986110.462    20986109.240    20986118.242
       241.000         207.000
 -22405981.16249 -17444709.83947  21312930.935    21312930.420    21312939.842
       242.000         206.000
 00  4 19 16 54 59.9990000  0  7G 2G26G 4G24G 5G 7G 9
   2026472.43149   1582828.23847  21815219.659    21815218.302    21815229.171
       237.000         196.000
   7067962.57449   5511415.23645  24019613.809    24019612.792    24019627.987
       221.000         162.000
 -23860209.90149 -18576831.12447  20637638.141    20637638.154    20637648.397
       240.000         203.000
 -10520202.06649  -8149501.16846  22865607.098    22865607.502    22865625.095
       222.000         167.000
  -6366108.17249  -4939151.72445  24048951.110    24048950.555    24048964.472
       214.000         153.000
    284757.90749    234114.44147  20993636.483    20993635.268    20993644.285
       241.000         207.000
 -22467087.42349 -17492325.06947  21301302.750    21301302.265    21301311.679
       243.000         206.000
 00  4 19 16 55 29.9990000  0  7G 2G26G 4G24G 5G 7G 9
   2061871.56349   1610411.88847  21821955.943    21821954.597    21821965.495
       236.000         196.000
   7134163.52849   5563000.14845  24032211.666    24032210.619    24032225.809
       221.000         162.000
 -23930092.65249 -18631285.14747  20624339.828    20624339.828    20624350.066
       239.000         203.000
 -10635511.56449  -8239352.36546  22843664.168    22843664.590    22843682.074
       221.000         168.000
  -6460312.66949  -5012557.66345  24031024.396    24031023.898    24031037.792
       215.000         151.000
    324541.94249    265114.92347  21001207.165    21001205.944    21001214.999
       241.000         207.000
 -22527693.15949 -17539550.28447  21289769.843    21289769.349    21289778.762
       242.000         206.000
 00  4 19 16 55 59.9990000  0  7G 2G26G 4G24G 5G 7G 9
   2097572.11849   1638230.40547  21828749.593    21828748.254    21828759.174
       237.000         196.000
   7200524.71949   5614709.91845  24044840.012    24044838.934    24044854.190
       222.000         161.000
 -23999438.17549 -18685320.54347  20611143.710    20611143.731    20611153.983
       240.000         203.000
 -10750614.38249  -8329042.50446  22821760.560    22821760.954    22821778.368
       222.000         168.000
  -6554478.81749  -5085933.70745  24013105.143    24013104.621    24013118.496
       215.000         153.000
    364587.03849    296318.84047  21008827.511    21008826.314    21008835.375
       241.000         207.000
 -22587784.63349 -17586374.77347  21278334.829    21278334.318    21278343.701
       243.000         206.000
 00  4 19 16 56 29.9990000  0  7G 2G26G 4G24G 5G 7G 9
   2133566.64649   1666277.99447  21835599.154    21835597.864    21835608.787
       237.000         196.000
   7267021.69649   5666525.47245  24057494.012    24057493.057    24057508.367
       220.000         161.000
 -24068233.67549 -18738927.35447  20598052.287    20598052.301    20598062.564
       241.000         203.000
 -10865528.11449  -8418585.30946  22799892.952    22799893.323    22799910.658
       223.000         169.000
  -6648620.58149  -5159290.79945  23995190.428    23995189.951    23995203.661
       218.000         151.000
    404896.36849    327728.65647  21016498.185    21016496.966    21016506.045
       242.000         206.000
 -22647367.91449 -17632803.26947  21266996.503    21266995.983    21267005.345
       243.000         206.000
 00  4 19 16 56 59.9990000  0  7G 2G26G 4G24G 5G 7G 9
   2169854.15949   1694553.87747  21842504.464    21842503.206    21842514.147
       236.000         196.000
   7333649.63749   5718443.09145  24070173.046    24070172.138    24070187.522
       219.000         161.000
 -24136459.49249 -18792090.25847  20585069.284    20585069.286    20585079.548
       240.000         203.000
 -10980255.70349  -8507983.10646  22778060.784    22778061.108    22778078.333
       222.000         169.000
  -6742736.25249  -5232627.52645  23977280.767    23977280.175    23977293.941
       218.000         152.000
    445448.85049    359327.94247  21024215.140    21024213.903    21024222.969
       241.000         206.000
 -22706428.67249 -17678824.60247  21255757.583    21255757.055    21255766.435
       242.000         207.000
 00  4 19 16 57 29.9990000  0  7G 2G26G 4G24G 5G 7G 9
   2206447.38449   1723067.97847  21849467.986    21849466.737    21849477.724
       237.000         196.000
   7400405.86849   5770460.67045  24082876.506    24082875.594    24082891.074
       220.000         161.000
 -24204097.58349 -18844795.19147  20572198.163    20572198.150    20572208.370
       241.000         203.000
 -11094781.84549  -8597223.92446  22756266.994    22756267.224    22756284.356
       222.000         168.000
  -6836826.57149  -5305944.51545  23959375.940    23959375.283    23959388.970
       218.000         151.000
    486248.92649    391120.15347  21031979.189    21031977.951    21031987.016
       242.000         206.000
 -22764932.15149 -17724411.69847  21244624.720    21244624.196    21244633.561
       243.000         207.000
 00  4 19 16 57 59.9990000  0  7G 2G26G 4G24G 5G 7G 9
   2243358.76849   1751829.98947  21856492.051    21856490.808    21856501.839
       236.000         196.000
   7467263.99849   5822557.64745  24095599.446    24095598.449    24095613.991
       220.000         160.000
 -24271152.88949 -18897046.01447  20559437.969    20559437.907    20559448.075
       241.000         203.000
 -11209089.44249  -8686294.46646  22734514.771    22734514.952    22734531.972
       222.000         169.000
  -6930895.92249  -5379245.21145  23941475.032    23941474.371    23941488.021
       218.000         150.000
    527295.35949    423104.32447  21039790.055    21039788.843    21039797.941
       241.000         206.000
 -22822870.43549 -17769558.38247  21233599.432    21233598.900    21233608.262
       242.000         207.000
 00  4 19 16 58 29.9990000  0  7G 2G26G 4G24G 5G 7G 9
   2280592.59949   1780843.26247  21863577.435    21863576.223    21863587.296
       236.000         195.000
   7534217.47249   5874728.91645  24108340.513    24108339.442    24108355.057
       219.000         158.000
 -24337625.28449 -18948842.61547  20546788.652    20546788.579    20546798.694
       240.000         203.000
 -11323185.24049  -8775199.95946  22712802.781    22712802.971    22712819.912
       222.000         169.000
  -7024938.05749  -5452524.62745  23923579.234    23923578.638    23923592.304
       217.000         150.000
    568568.37149    455265.05647  21047644.038    21047642.849    21047651.992
       240.000         206.000
 -22880234.07049 -17814257.27847  21222683.483    21222682.958    21222692.310
       242.000         207.000
 00  4 19 16 58 59.9990000  0  7G 2G26G 4G24G 5G 7G 9
   2318132.99549   1810095.40447  21870721.254    21870719.988    21870731.091
       236.000         194.000
   7601249.04149   5926961.01645  24121096.316    24121095.303    24121111.026
       218.000         159.000
 -24403532.50549 -19000198.81847  20534246.852    20534246.796    20534256.857
       241.000         203.000
 -11437086.82249  -8863954.12446  22691127.885    22691127.970    22691144.820
       222.000         169.000
  -7118965.28149  -5525792.48745  23905686.317    23905685.781    23905699.339
       219.000         153.000
    610043.48149    487583.26247  21055536.514    21055535.333    21055544.512
       240.000         206.000
 -22937041.31749 -17858522.63147  21211873.351    21211872.860    21211882.219
       243.000         207.000
 00  4 19 16 59 29.9990000  0  7G 2G26G 4G24G 5G 7G 9
   2355985.33249   1839590.62447  21877924.371    21877923.128    21877934.251
       236.000         194.000
   7668372.62849   5979264.83545  24133869.636    24133868.670    24133884.475
       219.000         159.000
 -24468872.66249 -19051113.16147  20521812.987    20521812.922    20521822.961
       241.000         204.000
 -11550785.94849  -8952550.54346  22669491.437    22669491.490    22669508.239
       224.000         170.000
  -7212971.59249  -5599044.01845  23887797.456    23887796.860    23887810.347
       218.000         150.000
    651739.58549    520073.67847  21063471.081    21063469.888    21063479.098
       240.000         207.000
 -22993303.55249 -17902363.30047  21201167.005    21201166.485    21201175.837
       243.000         208.000
 00  4 19 16 59 59.9990000  0  7G 2G26G 4G24G 5G 7G 9
   2394122.54549   1869307.81447  21885181.705    21885180.466    21885191.618
       236.000         194.000
   7735576.27549   6031631.04045  24146658.306    24146657.297    24146673.131
       218.000         160.000
 -24533660.96049 -19101597.48647  20509484.138    20509484.069    20509494.060
       240.000         204.000
 -11664297.94149  -9041001.15046  22647890.603    22647890.611    22647907.292
       222.000         170.000
  -7306967.02349  -5672287.08945  23869910.666    23869910.046    23869923.461
       218.000         152.000
    693622.63949    552709.77047  21071441.193    21071439.994    21071449.242
       241.000         206.000
 -23049066.33449 -17945814.78247  21190555.693    21190555.166    21190564.521
       243.000         208.000
 00  4 19 17  0 29.9990000  0  7G 2G26G 4G24G 5G 7G 9
   2432577.85449   1899272.87647  21892499.564    21892498.320    21892509.509
       236.000         193.000
   7802918.37249   6084105.13245  24159473.279    24159472.291    24159488.175
       219.000         159.000
 -24597853.76049 -19151617.77947  20497268.637    20497268.539    20497278.512
       242.000         205.000
 -11777586.19449  -9129277.42246  22626332.329    22626332.341    22626348.921
       224.000         170.000
  -7400914.82749  -5745493.06845  23852033.021    23852032.308    23852045.671
       221.000         154.000
    735735.80849    585525.17847  21079455.141    21079453.924    21079463.206
       242.000         207.000
 -23104292.95449 -17988848.47547  21180046.381    21180045.860    21180055.217
       244.000         208.000
 00  4 19 17  0 59.9990000  0  7G 2G26G 4G24G 5G 7G 9
   2471331.71949   1929470.56647  21899874.256    21899873.007    21899884.196
       235.000         193.000
   7870373.07049   6136666.95045  24172309.744    24172308.699    24172324.705
       220.000         159.000
 -24661492.71749 -19201206.51347  20485158.548    20485158.417    20485168.351
       242.000         205.000
 -11890655.84649  -9217383.35946  22604815.571    22604815.658    22604832.174
       224.000         171.000
  -7494831.63149  -5818674.84745  23834161.185    23834160.444    23834173.783
       216.000         154.000
    778077.74049    618518.82147  21087512.603    21087511.392    21087520.697
       241.000         208.000
 -23159002.64649 -18031479.37947  21169635.433    21169634.928    21169644.283
       243.000         208.000
 00  4 19 17  1 29.9990000  0  7G 2G26G 4G24G 5G 7G 9
   2510397.08549   1959910.98947  21907308.263    21907307.002    21907318.189
       234.000         193.000
   7937948.95249   6189323.18945  24185169.200    24185168.174    24185184.269
       215.000         159.000
 -24724569.96949 -19250357.54947  20473155.322    20473155.198    20473165.081
       242.000         205.000
 -12003480.03249  -9305298.03846  22583345.610    22583345.688    22583362.110
       224.000         171.000
  -7588696.25649  -5891815.98945  23816299.246    23816298.541    23816311.741
       219.000         155.000
    820662.98049    651702.06747  21095616.373    21095615.154    21095624.486
       241.000         207.000
 -23213182.28749 -18073697.24847  21159325.381    21159324.869    21159334.211
       243.000         208.000
 00  4 19 17  1 59.9990000  0  7G 2G26G 4G24G 5G 7G 9
   2549776.68349   1990596.27747  21914802.066    21914800.799    21914811.965
       236.000         193.000
   8005632.59949   6242063.40945  24198049.223    24198048.176    24198064.286
       217.000         159.000
 -24787073.46049 -19299061.50147  20461261.285    20461261.149    20461270.997
       243.000         206.000
 -12116060.17049  -9393022.53946  22561922.044    22561922.189    22561938.526
       226.000         172.000
  -7682509.30149  -5964916.94345  23798447.032    23798446.398    23798459.594
       219.000         156.000
    863496.62949    685078.87047  21103767.398    21103766.187    21103775.552
       242.000         208.000
 -23266810.46749 -18115485.40947  21149120.264    21149119.746    21149129.082
       244.000         208.000
 00  4 19 17  2 29.9990000  0  7G 2G26G 4G24G 5G 7G 9
   2589450.43249   2021510.76147  21922351.833    21922350.549    21922361.714
       234.000         193.000
   8073386.31949   6294858.23345  24210942.590    24210941.497    24210957.676
       217.000         159.000
 -24849022.43949 -19347333.36447  20449472.777    20449472.626    20449482.447
       242.000         206.000
 -12228431.94549  -9480584.68246  22540538.222    22540538.314    22540554.577
       226.000         173.000
  -7776291.48849  -6037993.84545  23780600.686    23780600.110    23780613.315
       220.000         157.000
    906576.41149    718647.46547  21111965.300    21111964.063    21111973.447
       241.000         208.000
 -23319885.25549 -18156842.36447  21139020.443    21139019.915    21139029.243
       243.000         208.000
 00  4 19 17  2 59.9990000  0  7G 2G26G 4G24G 5G 7G 9
   2629441.94749   2052672.84747  21929962.039    21929960.771    21929971.957
       235.000         193.000
   8141222.70849   6347717.47145  24223851.603    24223850.521    24223866.799
       216.000         159.000
 -24910372.30349 -19395138.38747  20437798.262    20437798.109    20437807.892
       242.000         206.000
 -12340558.42749  -9567955.68646  22519201.054    22519201.141    22519217.343
       226.000         174.000
  -7870001.20249  -6111014.29145  23762768.211    23762767.659    23762780.812
       217.000         155.000
    949931.98249    752430.96047  21120215.673    21120214.416    21120223.819
       241.000         208.000
 -23372379.01649 -18197746.57247  21129031.184    21129030.654    21129039.949
       243.000         208.000
 00  4 19 17  3 29.9990000  0  7G 2G26G 4G24G 5G 7G 9
   2669703.54549   2084045.39047  21937623.672    21937622.395    21937633.614
       235.000         192.000
   8209095.04049   6400604.72645  24236767.467    24236766.419    24236782.725
       215.000         157.000
 -24971128.52949 -19442480.83647  20426236.711    20426236.548    20426246.314
       242.000         206.000
 -12452479.90149  -9655166.93846  22497902.904    22497902.972    22497919.089
       226.000         172.000
  -7963684.25649  -6184013.94945  23744940.719    23744940.237    23744953.411
       219.000         159.000
    993508.51449    786386.63047  21128508.071    21128506.806    21128516.242
       241.000         208.000
 -23424332.33149 -18238229.65647  21119144.777    21119144.238    21119153.500
       243.000         208.000
 00  4 19 17  3 59.9980000  0  7G 2G26G 4G24G 5G 7G 9
   2710235.97049   2115628.95347  21945336.889    21945335.566    21945346.786
       235.000         192.000
   8276994.68149   6453513.24445  24249688.539    24249687.486    24249703.911
       216.000         156.000
 -25031281.99149 -19489353.59947  20414789.845    20414789.688    20414799.432
       241.000         206.000
 -12564193.49049  -9742216.22446  22476644.283    22476644.339    22476660.413
       226.000         173.000
  -8057334.94649  -6256988.39545  23727119.456    23727118.973    23727132.124
       218.000         157.000
   1037297.56549    820507.89847  21136840.906    21136839.655    21136849.104
       241.000         208.000
 -23475740.16049 -18278287.69147  21109362.158    21109361.633    21109370.866
       243.000         208.000
 00  4 19 17  4 29.9980000  0  7G 2G26G 4G24G 5G 7G 9
   2751066.47349   2147444.79147  21953106.792    21953105.459    21953116.705
       234.000         192.000
   8344941.41349   6506458.45545  24262618.486    24262617.489    24262634.015
       215.000         155.000
 -25090829.01449 -19535753.81547  20403458.370    20403458.219    20403467.946
       242.000         207.000
 -12675677.97449  -9829086.98546  22455429.255    22455429.313    22455445.335
       226.000         174.000
  -8150937.77749  -6329925.53745  23709307.311    23709306.861    23709319.973
       219.000         157.000
   1081300.46149    854795.79647  21145214.446    21145213.180    21145222.655
       242.000         208.000
 -23526598.07449 -18317917.22747  21099684.165    21099683.675    21099692.868
       243.000         208.000
 00  4 19 17  4 59.9980000  0  7G 2G26G 4G24G 5G 7G 9
   2792204.03149   2179499.90347  21960935.086    21960933.788    21960945.032
       236.000         191.000
   8412939.50249   6559443.71845  24275558.367    24275557.341    24275573.809
       214.000         155.000
 -25149775.37649 -19581685.98447  20392241.203    20392241.066    20392250.774
       242.000         207.000
 -12786908.40049  -9915759.78046  22434262.616    22434262.658    22434278.649
       226.000         175.000
  -8244484.62449  -6402819.06445  23691505.894    23691505.390    23691518.478
       219.000         157.000
   1125495.11549    889233.11547  21153624.502    21153623.231    21153632.701
       242.000         209.000
 -23576916.69449 -18357126.53747  21090108.879    21090108.356    21090117.518
       244.000         209.000
 00  4 19 17  5 29.9980000  0  7G 2G26G 4G24G 5G 7G 9
   2833673.43549   2211813.60747  21968826.578    21968825.254    21968836.508
       235.000         191.000
   8481006.12249   6612482.34345  24288511.146    24288510.140    24288526.726
       214.000         152.000
 -25208115.61449 -19627145.84347  20381139.395    20381139.248    20381148.931
       244.000         207.000
 -12897883.77549 -10002233.83746  22413144.485    22413144.537    22413160.483
       226.000         175.000
  -8337974.46749  -6475668.17045  23673715.269    23673714.756    23673727.770
       220.000         159.000
   1169880.52549    923819.08847  21162070.862    21162069.566    21162079.033
       243.000         208.000
 -23626682.98449 -18395905.45047  21080638.661    21080638.129    21080647.295
       244.000         209.000
 00  4 19 17  5 59.9980000  0  7G 2G26G 4G24G 5G 7G 9
   2875501.27149   2244406.58847  21976786.253    21976784.912    21976796.190
       234.000         192.000
   8549165.40149   6665593.18445  24301481.675    24301480.642    24301497.251
       214.000         153.000
 -25265847.70449 -19672131.83047  20370153.317    20370153.163    20370162.834
       243.000         207.000
 -13008581.08649 -10088491.23946  22392079.271    22392079.344    22392095.244
       225.000         177.000
  -8431396.91549  -6548464.73845  23655937.489    23655936.922    23655949.948
       218.000         156.000
   1214474.32149    958567.43047  21170556.883    21170555.569    21170565.020
       242.000         209.000
 -23675872.56349 -18434234.99147  21071278.206    21071277.664    21071286.801
       243.000         209.000
 00  4 19 17  6 29.9980000  0  7G 2G26G 4G24G 5G 7G 9
   2917680.25249   2277273.19447  21984812.794    21984811.440    21984822.707
       234.000         191.000
   8617419.86549   6718778.17945  24314470.269    24314469.262    24314485.951
       215.000         155.000
 -25322986.55849 -19716655.55147  20359280.108    20359279.964    20359289.604
       243.000         207.000
 -13118994.87849 -10174527.71246  22371068.026    22371068.084    22371083.945
       226.000         177.000
  -8524772.39649  -6621224.74345  23638168.684    23638168.087    23638181.061
       218.000         156.000
   1259271.20249    993474.01747  21179081.528    21179080.211    21179089.671
       242.000         209.000
 -23724477.93249 -18472109.29547  21062028.909    21062028.353    21062037.489
       243.000         209.000
 00  4 19 17  6 59.9980000  0  7G 2G26G 4G24G 5G 7G 9
   2960202.54049   2310407.30547  21992904.648    21992903.254    21992914.542
       233.000         190.000
   8685777.00149   6772043.22345  24327478.472    24327477.455    24327494.149
       214.000         153.000
 -25379532.38749 -19760717.18147  20348519.749    20348519.605    20348529.229
       244.000         207.000
 -13229125.32949 -10260343.40946  22350110.703    22350110.773    22350126.583
       227.000         178.000
  -8618101.57649  -6693948.64145  23620408.614    23620408.026    23620420.990
       218.000         157.000
   1304275.46149   1028542.19747  21187645.634    21187644.323    21187653.778
       242.000         209.000
 -23772490.44649 -18509521.63547  21052892.420    21052891.874    21052901.004
       244.000         209.000
 00  4 19 17  7 29.9980000  0  7G 2G26G 4G24G 5G 7G 9
   3003075.29149   2343814.50947  22001063.130    22001061.764    22001073.070
       234.000         190.000
   8754253.85849   6825401.50845  24340509.409    24340508.325    24340525.113
       215.000         155.000
 -25435451.70049 -19804290.61547  20337878.581    20337878.459    20337888.088
       243.000         207.000
 -13338958.27649 -10345927.29746  22329210.076    22329210.066    22329225.834
       226.000         178.000
  -8711379.43449  -6766632.58645  23602658.270    23602657.715    23602670.609
       218.000         156.000
   1349507.21749   1063787.65047  21196253.008    21196251.715    21196261.158
       242.000         209.000
 -23819878.13949 -18546447.10347  21043874.872    21043874.288    21043883.416
       244.000         210.000
 00  4 19 17  7 59.9980000  0  7G 2G26G 4G24G 5G 7G 9
   3046263.15849   2377467.25847  22009281.616    22009280.240    22009291.553
       233.000         189.000
   8822821.19649   6878830.32645  24353557.594    24353556.478    24353573.322
       215.000         156.000
 -25490763.97449 -19847391.03447  20327352.935    20327352.834    20327362.452
       244.000         208.000
 -13448505.49149 -10431288.53246  22308363.739    22308363.756    22308379.435
       227.000         179.000
  -8804619.36449  -6839286.95745  23584915.190    23584914.673    23584927.502
       219.000         155.000
   1394956.75449   1099202.80447  21204901.847    21204900.542    21204909.988
       242.000         208.000
 -23866646.67349 -18582890.10747  21034975.135    21034974.553    21034983.647
       244.000         210.000
 00  4 19 17  8 29.9980000  0  7G 2G26G 4G24G 5G 7G 9
   3089744.57049   2411348.73947  22017555.961    22017554.573    22017565.927
       234.000         190.000
   8891459.37749   6932314.32445  24366619.164    24366618.091    24366635.037
       215.000         156.000
 -25545475.65749 -19890023.46347  20316941.613    20316941.510    20316951.104
       244.000         208.000
 -13557781.80149 -10516438.69746  22287568.938    22287568.987    22287584.602
       227.000         179.000
  -8897817.68549  -6911908.91645  23567180.090    23567179.504    23567192.280
       217.000         157.000
   1440616.24549   1134781.55447  21213590.608    21213589.318    21213598.760
       242.000         208.000
 -23912813.55549 -18618864.29447  21026189.844    21026189.283    21026198.363
       244.000         209.000
 00  4 19 17  8 59.9980000  0  7G 2G26G 4G24G 5G 7G 9
   3133535.96149   2445471.77447  22025889.282    22025887.905    22025899.289
       233.000         188.000
   8960182.25449   6985864.32745  24379696.951    24379695.863    24379712.858
       215.000         156.000
 -25599545.31449 -19932155.61847  20306652.465    20306652.355    20306661.950
       244.000         208.000
 -13666779.83949 -10601372.01746  22266827.147    22266827.180    22266842.728
       229.000         179.000
  -8990942.72649  -6984473.76345  23549458.816    23549458.300    23549471.056
       218.000         156.000
   1486506.93949   1170540.45847  21222323.333    21222322.065    21222331.527
       242.000         207.000
 -23958377.79049 -18654368.88947  21017519.273    21017518.708    21017527.792
       244.000         209.000
 00  4 19 17  9 29.9980000  0  7G 2G26G 4G24G 5G 7G 9
   3177608.58549   2479813.94747  22034276.080    22034274.731    22034286.151
       232.000         188.000
   9028944.88549   7039445.32345  24392782.336    24392781.208    24392798.246
       214.000         155.000
 -25652994.28549 -19973804.11747  20296481.430    20296481.320    20296490.915
       243.000         208.000
 -13775527.90649 -10686110.53946  22246132.944    22246132.930    22246148.428
       228.000         180.000
  -9084030.15949  -7057009.31845  23531744.736    23531744.214    23531756.971
       219.000         159.000
   1532605.09449   1206461.02147  21231095.498    21231094.265    21231103.759
       241.000         207.000
 -24003381.61349 -18689436.79547  21008955.318    21008954.762    21008963.834
       244.000         210.000
 00  4 19 17  9 59.9980000  0  7G 2G26G 4G24G 5G 7G 9
   3221967.58749   2514379.26447  22042717.427    22042716.071    22042727.521
       234.000         189.000
   9097742.02249   7093053.17945  24405874.159    24405873.064    24405890.216
       214.000         157.000
 -25705842.71549 -20014984.66647  20286424.668    20286424.576    20286434.161
       243.000         207.000
 -13884018.96549 -10770648.81246  22225487.632    22225487.606    22225503.049
       230.000         181.000
  -9177069.52749  -7129507.40045  23514039.816    23514039.297    23514052.074
       220.000         158.000
   1578907.18149   1242540.49047  21239906.510    21239905.303    21239914.808
       241.000         207.000
 -24047838.71749 -18724078.68747  21000495.409    21000494.838    21000503.951
       244.000         210.000
 00  4 19 17 10 29.9980000  0  7G 2G26G 4G24G 5G 7G 9
   3266629.47749   2549180.59447  22051216.398    22051215.034    22051226.544
       233.000         188.000
   9166566.21149   7146682.10945  24418971.054    24418970.058    24418987.251
       214.000         153.000
 -25758095.91649 -20055701.40447  20276481.188    20276481.089    20276490.670
       243.000         207.000
 -13992245.64149 -10854981.07246  22204892.656    22204892.574    22204907.969
       229.000         181.000
  -9270063.49249  -7201970.12145  23496343.489    23496342.998    23496355.774
       217.000         158.000
   1625400.04749   1278768.61747  21248753.874    21248752.647    21248762.167
       240.000         206.000
 -24091759.52249 -18758302.68947  20992137.573    20992136.979    20992146.108
       244.000         210.000
 00  4 19 17 10 59.9980000  0  7G 2G26G 4G24G 5G 7G 9
   3311625.65149   2584242.38547  22059778.941    22059777.603    22059789.177
       232.000         188.000
   9235427.30649   7200339.80945  24432075.195    24432074.118    24432091.405
       217.000         155.000
 -25809732.80949 -20095937.90647  20266654.982    20266654.871    20266664.445
       243.000         206.000
 -14100189.65349 -10939093.07446  22184351.400    22184351.328    22184366.686
       230.000         181.000
  -9362999.74849  -7274387.88745  23478658.251    23478657.730    23478670.470
       218.000         159.000
   1672101.20549   1315159.04947  21257640.867    21257639.634    21257649.152
       240.000         205.000
 -24135119.59749 -18792089.75647  20983886.438    20983885.848    20983894.969
       244.000         210.000
 00  4 19 17 11 29.9980000  0  7G 2G26G 4G24G 5G 7G 9
   3356965.46849   2619571.96547  22068406.892    22068405.551    22068417.188
       232.000         189.000
   9304317.98749   7254020.56045  24445184.909    24445183.809    24445201.151
       215.000         153.000
 -25860760.86449 -20135699.98847  20256944.612    20256944.508    20256954.082
       243.000         206.000
 -14207835.85449 -11022973.00846  22163866.769    22163866.771    22163882.068
       230.000         182.000
  -9455869.07249  -7346753.47845  23460985.711    23460985.217    23460997.899
       219.000         161.000
   1719013.06449   1351713.66347  21266567.945    21266566.726    21266576.235
       241.000         205.000
 -24177895.48049 -18825421.61547  20975746.394    20975745.853    20975754.974
       244.000         211.000
 00  4 19 17 11 59.9980000  0  7G 2G26G 4G24G 5G 7G 9
   3402661.00149   2655178.72047  22077102.569    22077101.231    22077112.884
       233.000         189.000
   9373248.71749   7307732.57045  24458302.266    24458301.119    24458318.569
       215.000         154.000
 -25911155.23549 -20174968.29247  20247354.812    20247354.729    20247364.295
       243.000         206.000
 -14315163.52249 -11106604.73446  22143442.787    22143442.801    22143458.093
       230.000         182.000
  -9548641.96149  -7419043.93545  23443331.504    23443331.010    23443343.687
       220.000         160.000
   1766146.00549   1388440.54947  21275537.066    21275535.872    21275545.383
       240.000         205.000
 -24220052.21849 -18858271.01947  20967724.246    20967723.690    20967732.836
       244.000         211.000
 00  4 19 17 12 29.9980000  0  7G 2G26G 4G24G 5G 7G 9
   3448688.67349   2691044.28747  22085861.536    22085860.150    22085871.817
       231.000         189.000
   9442198.05949   7361458.98945  24471423.050    24471421.975    24471439.602
       212.000         150.000
 -25960904.54049 -20213733.94447  20237887.791    20237887.711    20237897.262
       243.000         206.000
 -14422198.13349 -11190008.09646  22123074.569    22123074.607    22123089.881
       230.000         183.000
  -9641333.95249  -7491271.33545  23425692.733    23425692.252    23425704.944
       221.000         162.000
   1813495.51649   1425336.19147  21284547.381    21284546.197    21284555.734
       240.000         204.000
 -24261599.60349 -18890645.60847  20959818.034    20959817.477    20959826.625
       244.000         211.000
 00  4 19 17 12 59.9980000  0  7G 2G26G 4G24G 5G 7G 9
   3495022.63749   2727148.52447  22094678.660    22094677.316    22094689.034
       231.000         189.000
   9511148.04149   7415185.97045  24484543.995    24484542.942    24484560.533
       215.000         150.000
 -26010004.55949 -20251993.65647  20228544.325    20228544.243    20228553.792
       242.000         206.000
 -14528952.41049 -11273193.01646  22102759.761    22102759.764    22102775.008
       231.000         183.000
  -9733955.03249  -7563443.50046  23408067.463    23408066.951    23408079.635
       219.000         164.000
   1861053.90749   1462394.59747  21293597.490    21293596.303    21293605.843
       240.000         203.000
 -24302553.33349 -18922557.60447  20952024.780    20952024.227    20952033.386
       244.000         210.000
 00  4 19 17 13 29.9980000  0  7G 2G26G 4G24G 5G 7G 9
   3541660.59949   2763489.63547  22103553.626    22103552.311    22103564.135
       233.000         189.000
   9580111.86049   7468923.69645  24497667.565    24497666.468    24497684.255
       215.000         152.000
 -26058440.29649 -20289735.75247  20219327.245    20219327.180    20219336.714
       242.000         206.000
 -14635397.16349 -11356136.74646  22082503.824    22082503.833    22082519.050
       230.000         183.000
  -9826487.12249  -7635546.30845  23390459.113    23390458.596    23390471.279
       219.000         162.000
   1908831.74549   1499624.00347  21302689.359    21302688.176    21302697.711
       240.000         203.000
 -24342895.19849 -18953992.82647  20944348.017    20944347.445    20944356.581
       244.000         210.000
 00  4 19 17 13 59.9980000  0  8G16G 2G26G 4G24G 5G 7G 9
  -2715516.49759  -2097657.67755  24722687.337    24722687.036    24722709.589
       204.000         137.000
   3588589.22749   2800057.23747  22112483.975    22112482.643    22112494.540
       231.000         189.000
   9649080.21049   7522664.99345  24510792.070    24510791.022    24510808.729
       212.000         147.000
 -26106228.60149 -20326973.34747  20210233.394    20210233.313    20210242.861
       242.000         206.000
 -14741550.79949 -11438853.63346  22062303.296    22062303.299    22062318.465
       229.000         182.000
  -9918947.64049  -7707593.35646  23372864.363    23372863.875    23372876.532
       217.000         164.000
   1956819.29349   1537016.81947  21311821.151    21311819.952    21311829.487
       240.000         203.000
 -24382637.22149 -18984960.63447  20936785.386    20936784.803    20936793.936
       244.000         210.000
 00  4 19 17 14 29.9980000  0  8G16G 2G26G 4G24G 5G 7G 9
  -2775539.84649  -2144428.97644  24711265.174    24711264.983    24711287.022
       204.000         117.000
   3635799.40749   2836844.22247  22121467.880    22121466.568    22121478.480
       231.000         189.000
   9718043.89049   7576402.62145  24523915.693    24523914.590    24523932.333
       210.000         148.000
 -26153398.03149 -20363728.71147  20201257.329    20201257.240    20201266.759
       243.000         207.000
 -14847425.69949 -11521353.32546  22042155.782    22042155.822    22042170.905
       229.000         183.000
 -10011362.85549  -7779605.10446  23355278.201    23355277.746    23355290.414
       219.000         163.000
   2005002.45049   1574562.05247  21320990.175    21320988.965    21320998.487
       240.000         203.000
 -24421805.23849 -19015481.16547  20929331.954    20929331.373    20929340.487
       244.000         210.000
 00  4 19 17 14 59.9980000  0  8G16G 2G26G 4G24G 5G 7G 9
  -2835162.59749  -2190888.25045  24699919.422    24699919.162    24699940.683
       215.000         149.000
   3683351.67049   2873897.76047  22130516.947    22130515.601    22130527.516
       232.000         190.000
   9787057.61349   7630179.22445  24537048.749    24537047.677    24537065.523
       212.000         152.000
 -26199920.76849 -20399980.15947  20192404.319    20192404.227    20192413.697
       243.000         207.000
 -14952958.80249 -11603586.68346  22022073.347    22022073.358    22022088.366
       231.000         183.000
 -10103685.97949  -7851545.07246  23337709.682    23337709.168    23337721.778
       221.000         163.000
   2053418.95549   1612289.10847  21330203.574    21330202.354    21330211.850
       240.000         203.000
 -24460355.59949 -19045520.40947  20921996.046    20921995.461    20922004.548
       245.000         210.000
 00  4 19 17 15 29.9980000  0  8G16G 2G26G 4G24G 5G 7G 9
  -2894322.67149  -2236986.89645  24688661.612    24688661.286    24688682.859
       200.000         147.000
   3731312.73349   2911269.84247  22139643.791    22139642.397    22139654.348
       231.000         190.000
   9856196.48449   7684053.30945  24550205.473    24550204.493    24550222.562
       212.000         148.000
 -26245759.25449 -20435698.42447  20183681.542    20183681.436    20183690.852
       243.000         208.000
 -15058091.25149 -11685507.83946  22002067.137    22002067.142    22002082.054
       231.000         183.000
 -10195867.48049  -7923374.69746  23320168.091    23320167.537    23320180.076
       221.000         163.000
   2102117.80449   1650236.17047  21339470.750    21339469.506    21339478.981
       240.000         202.000
 -24498230.54149 -19075033.35347  20914788.694    20914788.102    20914797.142
       244.000         210.000
 00  4 19 17 15 59.9980000  0  8G16G 2G26G 4G24G 5G 7G 9
  -2952970.51149  -2282686.21045  24677500.802    24677500.530    24677522.465
       211.000         149.000
   3779761.27849   2949021.77847  22148863.367    22148861.987    22148873.927
       232.000         189.000
   9925524.78349   7738075.07345  24563398.524    24563397.528    24563415.504
       207.000         132.000
 -26290850.84649 -20470834.69547  20175100.899    20175100.761    20175110.141
       243.000         207.000
 -15162766.97449 -11767073.11246  21982147.880    21982147.871    21982162.675
       229.000         183.000
 -10287860.69949  -7995057.64446  23302662.330    23302661.744    23302674.174
       221.000         163.000
   2151143.27849   1688437.74247  21348800.062    21348798.822    21348808.273
       240.000         203.000
 -24535390.75649 -19103989.36147  20907717.383    20907716.773    20907725.746
       244.000         210.000
 00  4 19 17 16 29.9980000  0  8G16G 2G26G 4G24G 5G 7G 9
  -3011209.39949  -2328067.15445  24666418.246    24666418.053    24666439.797
       203.000         132.000
   3828626.68049   2987098.54847  22158162.332    22158160.919    22158172.851
       234.000         190.000
   9994965.50749   7792184.38445  24576612.942    24576611.866    24576629.994
       213.000         148.000
 -26335257.65649 -20505437.36547  20166650.523    20166650.397    20166659.728
       243.000         207.000
 -15267049.90649 -11848332.32246  21962303.330    21962303.343    21962318.018
       231.000         183.000
 -10379745.01749  -8066655.70845  23285177.179    23285176.633    23285189.003
       221.000         162.000
   2200404.71949   1726823.18647  21358174.307    21358173.028    21358182.463
       241.000         203.000
 -24571924.63349 -19132457.31747  20900765.236    20900764.618    20900773.565
       245.000         211.000
 00  4 19 17 16 59.9980000  0  8G16G 2G26G 4G24G 5G 7G 9
  -3069082.58949  -2373162.94145  24655405.519    24655405.044    24655426.763
       214.000         155.000
   3877885.58249   3025481.93047  22167536.159    22167534.738    22167546.646
       231.000         189.000
  10064492.97149   7846361.35545  24589843.972    24589842.860    24589860.881
       216.000         152.000
 -26378993.94249 -20539517.53747  20158327.787    20158327.634    20158336.934
       242.000         207.000
 -15370970.44149 -11929309.13046  21942527.738    21942527.753    21942542.343
       230.000         183.000
 -10471534.41549  -8138179.81845  23267710.283    23267709.623    23267721.895
       220.000         162.000
   2249863.97349   1765362.77547  21367586.170    21367584.891    21367594.313
       240.000         203.000
 -24607840.42449 -19160443.64147  20893930.693    20893930.073    20893938.992
       244.000         210.000
 00  4 19 17 17 29.9980000  0  8G16G 2G26G 4G24G 5G 7G 9
  -3126594.59749  -2417977.23545  24644461.024    24644460.609    24644482.434
       205.000         132.000
   3927507.16249   3064147.93347  22176978.991    22176977.556    22176989.486
       232.000         189.000
  10134072.59349   7900578.92345  24603084.800    24603083.603    24603101.709
       215.000         150.000
 -26422054.64249 -20573071.28847  20150133.619    20150133.448    20150142.702
       243.000         207.000
 -15474548.56249 -12010019.14246  21922817.348    21922817.299    21922831.813
       232.000         183.000
 -10563233.12749  -8209633.27845  23250260.515    23250259.882    23250272.076
       222.000         162.000
   2299508.16649   1804046.46447  21377033.194    21377031.917    21377041.347
       240.000         202.000
 -24643132.86749 -19187944.24647  20887214.731    20887214.133    20887223.034
       245.000         210.000
 00  4 19 17 17 59.9980000  0  8G16G 2G26G 4G24G 5G 7G 9
  -3183701.40849  -2462475.94645  24633593.907    24633593.380    24633615.097
       211.000         149.000
   3977529.04949   3103125.84447  22186497.956    22186496.532    22186508.497
       233.000         189.000
  10203731.66949   7954858.40745  24616340.695    24616339.549    24616357.686
       216.000         150.000
 -26464372.80449 -20606046.43847  20142080.710    20142080.552    20142089.758
       243.000         207.000
 -15577735.82449 -12090424.58446  21903181.323    21903181.245    21903195.645
       231.000         184.000
 -10654771.15649  -8280961.51745  23232841.396    23232840.703    23232852.814
       222.000         162.000
   2349397.58549   1842921.24447  21386526.908    21386525.624    21386535.074
       240.000         202.000
 -24677738.39849 -19214909.59947  20880629.494    20880628.925    20880637.784
       244.000         210.000
 00  4 19 17 18 29.9980000  0  8G16G 2G26G 4G24G 5G 7G 9
  -3240426.10049  -2506676.68245  24622799.546    24622798.997    24622820.758
       212.000         151.000
   4027893.66749   3142370.81647  22196082.198    22196080.759    22196092.750
       232.000         190.000
  10273427.44149   8009166.52945  24629603.516    24629602.436    24629620.529
       214.000         150.000
 -26505989.66149 -20638475.11347  20134161.277    20134161.126    20134170.274
       242.000         207.000
 -15680569.23549 -12170554.30946  21883612.598    21883612.527    21883626.851
       231.000         183.000
 -10746171.33749  -8352182.34046  23215448.468    23215447.748    23215459.811
       223.000         163.000
   2399513.37249   1881972.41747  21396063.718    21396062.418    21396071.875
       240.000         203.000
 -24711665.38349 -19241346.21747  20874173.402    20874172.849    20874181.689
       244.000         210.000
 00  4 19 17 18 59.9980000  0  8G16G 2G26G 4G24G 5G 7G 9
  -3296768.68049  -2550579.90545  24612077.755    24612077.300    24612098.870
       206.000         137.000
   4078558.24749   3181849.53447  22205723.504    22205722.048    22205734.062
       231.000         189.000
  10343117.70849   8063470.30745  24642865.342    24642864.258    24642882.466
       213.000         150.000
 -26546942.34149 -20670386.25147  20126368.233    20126368.067    20126377.182
       243.000         207.000
 -15783077.07749 -12250430.34146  21864105.775    21864105.746    21864119.981
       231.000         185.000
 -10837458.05449  -8423314.75146  23198077.089    23198076.423    23198088.390
       223.000         164.000
   2449844.72449   1921191.55947  21405641.494    21405640.213    21405649.677
       239.000         202.000
 -24744942.69749 -19267276.59447  20867840.945    20867840.384    20867849.212
       244.000         210.000
 00  4 19 17 19 29.9980000  0  8G16G 2G26G 4G24G 5G 7G 9
  -3352712.64849  -2594172.41345  24601431.932    24601431.359    24601452.992
       204.000         150.000
   4129527.31449   3221565.50047  22215422.737    22215421.274    22215433.307
       231.000         188.000
  10412798.86949   8117767.01545  24656125.366    24656124.269    24656142.554
       212.000         149.000
 -26587215.92549 -20701768.22347  20118704.412    20118704.245    20118713.314
       242.000         207.000
 -15885231.80849 -12330031.23746  21844666.171    21844666.186    21844680.322
       231.000         185.000
 -10928636.12949  -8494362.51246  23180726.413    23180725.709    23180737.662
       224.000         164.000
   2500407.88649   1960591.33247  21415263.419    21415262.130    21415271.595
       239.000         202.000
 -24777571.73549 -19292701.82947  20861631.865    20861631.290    20861640.107
       244.000         210.000
 00  4 19 17 19 59.9980000  0  8G16G 2G26G 4G24G 5G 7G 9
  -3408292.73349  -2637481.08945  24590855.167    24590854.564    24590876.453
       212.000         152.000
   4180798.79749   3261517.12547  22225179.517    22225178.057    22225190.112
       231.000         188.000
  10482456.44049   8172045.35845  24669380.992    24669379.883    24669398.225
       211.000         151.000
 -26626843.85449 -20732647.07947  20111163.473    20111163.292    20111172.324
       242.000         207.000
 -15987046.72749 -12409367.34346  21825291.227    21825291.288    21825305.337
       232.000         185.000
 -11019746.06049  -8565357.16646  23163388.774    23163388.030    23163399.902
       223.000         164.000
   2551172.20749   2000147.85747  21424923.606    21424922.334    21424931.803
       239.000         202.000
 -24809584.98349 -19317647.22047  20855539.950    20855539.347    20855548.178
       244.000         210.000
 00  4 19 17 20 29.9980000  0  8G16G 2G26G 4G24G 5G 7G 9
  -3463486.04549  -2680488.63745  24580352.369    24580351.696    24580373.593
       211.000         148.000
   4232413.65149   3301736.30447  22235001.610    22235000.163    22235012.259
       231.000         188.000
  10552118.45049   8226327.11345  24682637.541    24682636.398    24682654.825
       214.000         146.000
 -26665807.24449 -20763008.11147  20103748.945    20103748.766    20103757.780
       242.000         207.000
 -16088494.53449 -12488417.39946  21805986.271    21805986.261    21806000.223
       233.000         186.000
 -11110779.18149  -8636291.96746  23146065.673    23146064.928    23146076.756
       224.000         164.000
   2602154.44349   2039874.18147  21434625.257    21434623.991    21434633.465
       239.000         202.000
 -24840966.54349 -19342100.39047  20849568.253    20849567.650    20849576.453
       244.000         210.000
 00  4 19 17 20 59.9980000  0  8G16G 2G26G 4G24G 5G 7G 9
  -3518297.46249  -2723198.86745  24569921.871    24569921.279    24569942.501
       207.000         137.000
   4284391.11449   3342238.04147  22244892.743    22244891.274    22244903.428
       232.000         188.000
  10621780.39849   8280608.88445  24695894.112    24695892.947    24695911.305
       216.000         155.000
 -26704098.68749 -20792845.55547  20096462.287    20096462.118    20096471.116
       243.000         207.000
 -16189568.97649 -12567176.52546  21786752.348    21786752.302    21786766.166
       233.000         187.000
 -11201732.63149  -8707164.70346  23128757.719    23128757.018    23128768.775
       223.000         164.000
   2653346.01449   2079763.62147  21444366.750    21444365.491    21444374.961
       240.000         202.000
 -24871721.63449 -19366065.40747  20843715.769    20843715.154    20843723.939
       244.000         210.000
 00  4 19 17 21 29.9980000  0  8G16G 2G26G 4G24G 5G 7G 9
  -3572743.85549  -2765624.27745  24559560.849    24559560.383    24559581.575
       197.000         146.000
   4336735.67549   3383025.82547  22254853.710    22254852.228    22254864.488
       229.000         188.000
  10691443.73549   8334891.67145  24709150.742    24709149.595    24709168.106
       212.000         148.000
 -26741726.04849 -20822165.52647  20089302.027    20089301.844    20089310.812
       242.000         207.000
 -16290275.60549 -12645649.03846  21767588.370    21767588.315    21767602.077
       233.000         187.000
 -11292611.39949  -8777979.22746  23111464.003    23111463.320    23111475.037
       224.000         165.000
   2704729.64549   2119802.72447  21454144.838    21454143.547    21454153.046
       239.000         202.000
 -24901849.54849 -19389541.70747  20837982.582    20837981.994    20837990.782
       244.000         210.000
 00  4 19 17 21 59.9980000  0  8G16G 2G26G 4G24G 5G 7G 9
  -3626828.79049  -2807768.04945  24549268.078    24549267.806    24549289.340
       213.000         148.000
   4389440.63349   3424094.43546  22264883.226    22264881.777    22264894.107
       229.000         187.000
  10761112.31149   8389178.59445  24722408.429    24722407.366    24722425.803
       211.000         147.000
 -26778711.70449 -20850985.47147  20082263.862    20082263.684    20082272.648
       241.000         207.000
 -16390631.55249 -12723848.30447  21748491.147    21748491.057    21748504.740
       232.000         188.000
 -11383402.17349  -8848725.20746  23094187.039    23094186.339    23094198.014
       223.000         165.000
   2756311.12349   2159995.99147  21463960.584    21463959.260    21463968.780
       239.000         202.000
 -24931360.25849 -19412537.07647  20832366.893    20832366.297    20832375.075
       244.000         210.000
 00  4 19 17 22 29.9980000  0  8G16G 2G26G 4G24G 5G 7G 9
  -3680556.66749  -2849633.68046  24539044.368    24539043.894    24539065.279
       218.000         167.000
   4442463.48249   3465410.74146  22274973.246    22274971.822    22274984.183
       229.000         187.000
  10830763.87249   8443452.25045  24735662.906    24735661.825    24735680.318
       211.000         148.000
 -26815067.34149 -20879314.49047  20075345.610    20075345.418    20075354.374
       240.000         208.000
 -16490655.98549 -12801789.25147  21729456.933    21729456.881    21729470.517
       233.000         189.000
 -11474110.18849  -8919406.67646  23076925.827    23076925.127    23076936.778
       222.000         165.000
   2808071.62649   2200328.76347  21473810.357    21473809.035    21473818.554
       239.000         201.000
 -24960277.69349 -19435070.14847  20826864.083    20826863.490    20826872.267
       243.000         210.000
 00  4 19 17 22 59.9980000  0  8G16G 2G26G 4G24G 5G 7G 9
  -3733915.34849  -2891211.57445  24528890.596    24528890.106    24528911.541
       200.000         151.000
   4495778.16649   3506954.47046  22285118.863    22285117.407    22285129.798
       229.000         186.000
  10900377.74549   8497696.51245  24748910.186    24748909.126    24748927.895
       214.000         150.000
 -26850807.22249 -20907163.71047  20068544.515    20068544.324    20068553.269
       241.000         208.000
 -16590353.85649 -12879475.74047  21710484.928    21710484.849    21710498.444
       234.000         189.000
 -11564741.20049  -8990028.18046  23059679.288    23059678.569    23059690.184
       224.000         166.000
   2859988.49249   2240783.36847  21483689.883    21483688.563    21483698.077
       239.000         201.000
 -24988618.97749 -19457154.27347  20821470.862    20821470.297    20821479.078
       244.000         210.000
 00  4 19 17 23 29.9980000  0  8G16G 2G26G 4G24G 5G 7G 9
  -3786900.95149  -2932498.86944  24518807.027    24518806.602    24518827.835
       200.000         122.000
   4549370.20749   3548714.32746  22295317.238    22295315.788    22295328.210
       229.000         186.000
  10969961.57149   8551917.43745  24762151.711    24762150.622    24762169.517
       212.000         143.000
 -26885932.08549 -20934533.68047  20061860.462    20061860.266    20061869.203
       241.000         208.000
 -16689727.42949 -12956909.52347  21691574.603    21691574.537    21691588.096
       234.000         189.000
 -11655305.29949  -9060597.53146  23042445.385    23042444.741    23042456.315
       221.000         166.000
   2912053.47449   2281353.39047  21493597.608    21493596.291    21493605.796
       239.000         201.000
 -25016395.35549 -19478798.20647  20816185.168    20816184.609    20816193.378
       244.000         209.000
 00  4 19 17 23 59.9980000  0  8G16G 2G26G 4G24G 5G 7G 9
  -3839518.98849  -2973499.79745  24508794.181    24508793.739    24508814.518
       212.000         149.000
   4603225.66849   3590679.44546  22305565.763    22305564.282    22305576.725
       230.000         184.000
  11039496.26549   8606100.00645  24775384.050    24775382.920    24775401.858
       212.000         150.000
 -26920443.46449 -20961425.61847  20055293.172    20055292.961    20055301.878
       242.000         208.000
 -16788796.44449 -13034105.99347  21672722.291    21672722.198    21672735.708
       236.000         191.000
 -11745814.73549  -9131124.27646  23025221.957    23025221.310    23025232.858
       223.000         166.000
   2964235.20549   2322014.37947  21503527.581    21503526.233    21503535.748
       240.000         202.000
 -25043617.29149 -19500010.11447  20811005.014    20811004.458    20811013.181
       245.000         209.000
 00  4 19 17 24 29.9980000  0  8G16G 2G26G 4G24G 5G 7G 9
  -3891771.93049  -3014216.06845  24498850.932    24498850.317    24498871.148
       211.000         160.000
   4657338.91249   3632845.42546  22315863.263    22315861.800    22315874.293
       229.000         184.000
  11108959.43749   8660226.93545  24788602.699    24788601.572    24788620.324
       209.000         139.000
 -26954340.40749 -20987838.78047  20048842.774    20048842.579    20048851.479
       240.000         208.000
 -16887560.88849 -13111065.14847  21653927.908    21653927.827    21653941.270
       235.000         190.000
 -11836291.06449  -9201625.21546  23008004.754    23008004.160    23008015.696
       222.000         167.000
   3016497.93349   2362738.48547  21513472.954    21513471.606    21513481.141
       239.000         202.000
 -25070284.83449 -19520790.02547  20805930.393    20805929.814    20805938.498
       244.000         209.000
 00  4 19 17 24 59.9980000  0  8G16G 2G26G 4G24G 5G 7G 9
  -3943635.82749  -3054629.23045  24488981.558    24488980.846    24489001.795
       210.000         158.000
   4711745.12849   3675239.67146  22326216.524    22326215.083    22326227.640
       229.000         184.000
  11178370.27249   8714313.04345  24801811.491    24801810.247    24801829.121
       211.000         146.000
 -26987612.57549 -21013765.10447  20042511.224    20042511.059    20042519.954
       241.000         208.000
 -16986004.55149 -13187774.34447  21635194.641    21635194.518    21635207.877
       237.000         191.000
 -11926726.64649  -9272094.40446  22990795.403    22990794.764    22990806.282
       224.000         167.000
   3068865.82149   2403544.53647  21523438.354    21523437.001    21523446.518
       240.000         202.000
 -25096377.98749 -19541122.36447  20800965.086    20800964.478    20800973.122
       245.000         209.000
 00  4 19 17 25 29.9980000  0  8G16G 2G26G 4G24G 5G 7G 9
  -3995137.74149  -3094760.30545  24479180.513    24479180.002    24479201.143
       210.000         142.000
   4766426.90149   3717848.64346  22336622.264    22336620.821    22336633.431
       230.000         185.000
  11247712.79149   8768345.85045  24815007.037    24815005.875    24815024.849
       210.000         140.000
 -27020274.19249 -21039215.67847  20036295.911    20036295.719    20036304.603
       241.000         208.000
 -17084150.24249 -13264251.35747  21616518.048    21616517.886    21616531.180
       238.000         191.000
 -12017140.92149  -9342546.97446  22973590.058    22973589.449    22973600.960
       224.000         168.000
   3121330.75349   2444426.20947  21533422.224    21533420.844    21533430.364
       241.000         202.000
 -25121904.78849 -19561013.38747  20796107.501    20796106.905    20796115.502
       245.000         209.000
 00  4 19 17 25 59.9980000  0  8G16G 2G26G 4G24G 5G 7G 9
  -4046245.10849  -3134584.08945  24469454.955    24469454.478    24469475.362
       209.000         143.000
   4821412.34449   3760694.24546  22347085.794    22347084.331    22347096.998
       230.000         184.000
  11316989.03449   8822327.25745  24828190.260    24828188.973    24828207.852
       210.000         142.000
 -27052307.43349 -21064176.61947  20030200.136    20030199.968    20030208.834
       240.000         208.000
 -17181965.61949 -13340471.00047  21597904.315    21597904.142    21597917.351
       237.000         190.000
 -12107496.26949  -9412953.65746  22956395.987    22956395.293    22956406.815
       225.000         168.000
   3173921.48049   2485405.89047  21543430.022    21543428.641    21543438.162
       240.000         202.000
 -25146835.82549 -19580440.18447  20791363.312    20791362.715    20791371.280
       245.000         209.000
 00  4 19 17 26 29.9980000  0  8G16G 2G26G 4G24G 5G 7G 9
  -4096971.55049  -3174110.97845  24459801.938    24459801.430    24459821.808
       213.000         144.000
   4876674.11249   3803755.17046  22357601.909    22357600.438    22357613.143
       231.000         185.000
  11386177.79849   8876240.18545  24841356.522    24841355.339    24841374.630
       205.000         141.000
 -27083739.11249 -21088668.80547  20024218.836    20024218.683    20024227.536
       240.000         208.000
 -17279456.24149 -13416437.57447  21579352.409    21579352.189    21579365.334
       236.000         190.000
 -12197818.31449  -9483334.41446  22939208.179    22939207.524    22939219.021
       225.000         169.000
   3226643.93249   2526488.21747  21553462.880    21553461.499    21553471.017
       240.000         202.000
 -25171191.55749 -19599418.68747  20786728.607    20786728.010    20786736.527
       245.000         210.000
 00  4 19 17 26 59.9980000  0  8G16G 2G26G 4G24G 5G 7G 9
  -4147283.85549  -3213315.28345  24450227.816    24450227.227    24450247.370
       213.000         150.000
   4932250.59649   3847061.31646  22368177.882    22368176.429    22368189.166
       230.000         183.000
  11455317.58149   8930115.23845  24854513.659    24854512.544    24854531.791
       212.000         138.000
 -27114529.78549 -21112661.50947  20018359.596    20018359.404    20018368.241
       240.000         208.000
 -17376584.93849 -13492122.13447  21560869.358    21560869.119    21560882.191
       236.000         190.000
 -12288066.13149  -9553657.32246  22922034.530    22922033.848    22922045.331
       225.000         171.000
   3279541.13149   2567706.71947  21563529.031    21563527.613    21563537.136
       240.000         202.000
 -25194935.41949 -19617920.41047  20782210.332    20782209.721    20782218.199
       245.000         209.000
 00  4 19 17 27 29.9980000  0  8G16G 2G26G 4G24G 5G 7G 9
  -4197203.97949  -3252213.83145  24440728.195    24440727.625    24440748.070
       209.000         156.000
   4988126.76449   3890600.98746  22378810.950    22378809.469    22378822.252
       227.000         183.000
  11524392.75849   8983939.71445  24867658.151    24867657.285    24867676.627
       208.000         142.000
 -27144676.63349 -21136152.53747  20012622.827    20012622.627    20012631.452
       239.000         208.000
 -17473343.50849 -13567518.29147  21542456.701    21542456.458    21542469.466
       234.000         190.000
 -12378236.38949  -9623919.79946  22904875.637    22904874.945    22904886.413
       225.000         171.000
   3332599.72249   2609050.97447  21573625.823    21573624.416    21573633.967
       240.000         202.000
 -25218065.94349 -19635944.21047  20777808.796    20777808.153    20777816.592
       245.000         209.000
 00  4 19 17 27 59.9980000  0  8G16G 2G26G 4G24G 5G 7G 9
  -4246763.10149  -3290831.15645  24431297.232    24431296.635    24431317.243
       210.000         153.000
   5044284.19249   3934359.81046  22389497.512    22389496.038    22389508.832
       227.000         183.000
  11593380.70449   9037696.28245  24880786.447    24880785.542    24880804.895
       210.000         134.000
 -27174195.37549 -21159154.13347  20007005.604    20007005.384    20007014.190
       240.000         208.000
 -17569742.63849 -13642634.36347  21524112.433    21524112.189    21524125.159
       235.000         190.000
 -12468355.05449  -9694142.07946  22887726.579    22887725.860    22887737.311
       225.000         170.000
   3385793.53449   2650500.60747  21583748.352    21583746.952    21583756.522
       240.000         202.000
 -25240606.83149 -19653508.55047  20773519.426    20773518.789    20773527.199
       245.000         209.000
 00  4 19 17 28 29.9980000  0  8G16G 2G26G 4G24G 5G 7G 9
  -4295994.43349  -3329193.04745  24421928.613    24421927.953    24421948.670
       212.000         148.000
   5100703.67349   3978322.83246  22400233.957    22400232.456    22400245.277
       228.000         182.000
  11662269.85149   9091376.00745  24893895.734    24893894.929    24893913.938
       208.000         144.000
 -27203102.28649 -21181678.98347  20001504.781    20001504.565    20001513.353
       240.000         208.000
 -17665801.97649 -13717485.66347  21505832.795    21505832.574    21505845.518
       235.000         190.000
 -12558456.61049  -9764351.04946  22870580.843    22870580.025    22870591.478
       225.000         171.000
   3439106.25049   2692042.88147  21593893.519    21593892.119    21593901.717
       240.000         201.000
 -25262571.25349 -19670623.70047  20769339.780    20769339.122    20769347.507
       245.000         209.000
 00  4 19 17 28 59.9980000  0  8G16G 2G26G 4G24G 5G 7G 9
  -4344895.03549  -3367297.38345  24412622.855    24412622.256    24412642.556
       212.000         141.000
   5157407.78649   4022507.65546  22411024.588    22411023.047    22411035.870
       228.000         182.000
  11731074.73649   9144989.92745  24906989.237    24906988.297    24907007.508
       213.000         145.000
 -27231380.09849 -21203713.62347  19996123.640    19996123.444    19996132.244
       239.000         207.000
 -17761504.72749 -13792059.11247  21487621.099    21487620.850    21487633.759
       235.000         191.000
 -12648517.24849  -9834528.14246  22853442.821    22853442.017    22853453.437
       225.000         172.000
   3492550.36849   2733687.54847  21604063.645    21604062.284    21604071.907
       239.000         201.000
 -25283950.42749 -19687282.81747  20765271.517    20765270.836    20765279.174
       245.000         209.000
 00  4 19 17 29 29.9980000  0  8G16G 2G26G 4G24G 5G 7G 9
  -4393477.64049  -3405153.88645  24403377.742    24403377.186    24403397.419
       211.000         147.000
   5214369.79549   4066893.40946  22421864.246    22421862.718    22421875.550
       229.000         181.000
  11799775.25249   9198522.55944  24920062.455    24920061.618    24920081.043
       210.000         131.000
 -27259047.65349 -21225272.74247  19990858.632    19990858.453    19990867.269
       239.000         207.000
 -17856871.66149 -13866370.88947  21469473.290    21469473.024    21469485.886
       235.000         191.000
 -12738544.55049  -9904679.23746  22836311.158    22836310.360    22836321.754
       226.000         174.000
   3546123.31549   2775432.60547  21614258.315    21614256.942    21614266.612
       239.000         201.000
 -25304766.44049 -19703503.10047  20761310.410    20761309.706    20761318.024
       245.000         209.000
 00  4 19 17 29 59.9980000  0  8G16G 2G26G 4G24G 5G 7G 9
  -4441691.63449  -3442723.21045  24394202.956    24394202.332    24394222.334
       210.000         151.000
   5271626.34549   4111508.67846  22432760.018    22432758.446    22432771.300
       228.000         181.000
  11868403.10349   9251998.67045  24933122.006    24933121.197    24933140.493
       207.000         137.000
 -27286087.14749 -21246342.46647  19985713.110    19985712.957    19985721.776
       239.000         207.000
 -17951882.74749 -13940405.37647  21451393.185    21451392.921    21451405.726
       235.000         192.000
 -12828500.88549  -9974775.03346  22819192.982    22819192.191    22819203.571
       226.000         173.000
   3599856.26449   2817302.33647  21624483.395    21624482.045    21624491.762
       239.000         200.000
 -25324992.13049 -19719263.39847  20757461.580    20757460.901    20757469.187
       245.000         209.000
 00  4 19 17 30 29.9980000  0  8G16G 2G26G 4G24G 5G 7G 9
  -4489523.53049  -3479994.76245  24385100.912    24385100.198    24385120.221
       204.000         147.000
   5329173.39849   4156350.32846  22443711.015    22443709.457    22443722.331
       228.000         180.000
  11936938.11349   9305402.21345  24946163.762    24946163.049    24946182.820
       210.000         138.000
 -27312517.16949 -21266937.27847  19980683.582    19980683.453    19980692.268
       239.000         207.000
 -18046552.72149 -14014174.06147  21433377.982    21433377.708    21433390.501
       236.000         192.000
 -12918380.44149 -10044810.98546  22802089.419    22802088.648    22802100.019
       226.000         173.000
   3653743.27349   2859292.11847  21634737.811    21634736.480    21634746.242
       239.000         200.000
 -25344644.56149 -19734577.00347  20753721.890    20753721.183    20753729.461
       245.000         209.000
 00  4 19 17 30 59.9980000  0  8G16G 2G26G 4G24G 5G 7G 9
  -4536982.81549  -3516975.95645  24376069.216    24376068.631    24376088.801
       209.000         147.000
   5386990.68449   4201402.55146  22454713.453    22454711.891    22454724.810
       227.000         181.000
  12005338.71549   9358701.37145  24959180.423    24959179.606    24959199.156
       209.000         137.000
 -27338360.46949 -21287074.90847  19975765.753    19975765.604    19975774.405
       239.000         207.000
 -18140910.75849 -14087699.69047  21415422.122    21415421.874    21415434.622
       236.000         193.000
 -13008193.81549 -10114795.36446  22784998.425    22784997.703    22785009.058
       226.000         174.000
   3707745.09449   2901371.36247  21645014.059    21645012.741    21645022.568
       238.000         200.000
 -25363749.83049 -19749464.25047  20750086.267    20750085.587    20750093.854
       245.000         209.000
 00  4 19 17 31 29.9980000  0  8G16G 2G26G 4G24G 5G 7G 9
  -4584026.77349  -3553633.64645  24367117.102    24367116.439    24367136.479
       211.000         152.000
   5445104.24549   4246685.61646  22465772.267    22465770.718    22465783.633
       228.000         179.000
  12073615.14649   9411903.44445  24972173.103    24972172.274    24972192.291
       205.000         141.000
 -27363593.60649 -21306737.09147  19970964.017    19970963.867    19970972.649
       239.000         206.000
 -18234934.42249 -14160964.77347  21397529.963    21397529.671    21397542.390
       236.000         193.000
 -13097918.89549 -10184710.96246  22767924.312    22767923.518    22767934.894
       227.000         174.000
   3761860.00549   2943538.72247  21655311.798    21655310.514    21655320.407
       238.000         199.000
 -25382273.89549 -19763898.61047  20746561.250    20746560.593    20746568.860
       245.000         209.000
 00  4 19 17 31 59.9980000  0  8G16G 2G26G 4G24G 5G 7G 9
  -4630661.21149  -3589972.15845  24358242.998    24358242.274    24358262.284
       211.000         155.000
   5503509.59549   4292196.07746  22476886.624    22476885.042    22476898.005
       227.000         181.000
  12141742.01149   9464989.05544  24985137.544    24985136.692    24985156.465
       210.000         128.000
 -27388226.82949 -21325931.80547  19966276.460    19966276.318    19966285.063
       240.000         206.000
 -18328623.09349 -14233968.81547  21379701.452    21379701.207    21379713.880
       237.000         193.000
 -13187585.60449 -10254581.05146  22750861.266    22750860.481    22750871.859
       227.000         174.000
   3816056.05649   2985769.31847  21665624.980    21665623.711    21665633.698
       237.000         198.000
 -25400220.47949 -19777882.98147  20743146.100    20743145.470    20743153.758
       245.000         209.000
 00  4 19 17 32 29.9980000  0  8G16G 2G26G 4G24G 5G 7G 9
  -4676899.27649  -3626001.87045  24349444.079    24349443.403    24349463.278
       209.000         143.000
   5562198.59749   4337927.54946  22488054.927    22488053.362    22488066.362
       228.000         180.000
  12209710.16649   9517951.12445  24998071.663    24998070.711    24998090.642
       206.000         141.000
 -27412245.71149 -21344647.81847  19961705.825    19961705.646    19961714.400
       240.000         207.000
 -18421970.18149 -14306706.70047  21361938.011    21361937.757    21361950.365
       237.000         194.000
 -13277212.11449 -10324419.83546  22733805.883    22733805.097    22733816.447
       227.000         174.000
   3870321.79549   3028054.20347  21675951.429    21675950.177    21675960.230
       238.000         198.000
 -25417590.67749 -19791418.22947  20739840.615    20739840.028    20739848.304
       245.000         209.000
 00  4 19 17 32 59.9980000  0  8G16G 2G26G 4G24G 5G 7G 9
  -4722739.08049  -3661721.28245  24340720.945    24340720.315    24340740.062
       206.000         150.000
   5621175.02749   4383882.98646  22499277.877    22499276.325    22499289.388
       228.000         180.000
  12277545.29049   9570809.29345  25010980.573    25010979.506    25010999.718
       212.000         147.000
 -27435631.70949 -21362870.67247  19957255.617    19957255.441    19957264.167
       239.000         207.000
 -18514951.56949 -14379159.62247  21344244.142    21344243.881    21344256.462
       238.000         195.000
 -13366794.06649 -10394223.88546  22716758.945    22716758.164    22716769.515
       227.000         174.000
   3924653.15749   3070390.22847  21686290.380    21686289.124    21686299.261
       237.000         198.000
 -25434362.96449 -19804487.56647  20736648.955    20736648.365    20736656.660
       245.000         209.000
 00  4 19 17 33 29.9980000  0  8G16G 2G26G 4G24G 5G 7G 9
  -4768180.33549  -3697130.08445  24332073.825    24332073.065    24332092.951
       210.000         153.000
   5680424.06949   4430050.82946  22510552.694    22510551.165    22510564.331
       227.000         180.000
  12345253.90649   9623569.11244  25023865.350    25023864.296    25023884.207
       210.000         129.000
 -27458388.96749 -21380603.60447  19952925.088    19952924.875    19952933.578
       239.000         207.000
 -18607561.89849 -14451323.41047  21326620.885    21326620.628    21326633.175
       237.000         195.000
 -13456336.42649 -10463997.10046  22699719.581    22699718.775    22699730.107
       227.000         174.000
   3979049.45749   3112776.85047  21696641.665    21696640.437    21696650.636
       236.000         198.000
 -25450548.31349 -19817099.55147  20733569.024    20733568.422    20733576.704
       245.000         210.000
 00  4 19 17 33 59.9980000  0  8G16G 2G26G 4G24G 5G 7G 9
  -4813211.22549  -3732219.22245  24323504.862    24323504.017    24323523.735
       211.000         147.000
   5739953.48449   4476437.15846  22521880.947    22521879.402    22521892.595
       225.000         178.000
  12412859.85249   9676248.88045  25036730.610    25036729.592    25036749.503
       203.000         144.000
 -27480505.42349 -21397837.21647  19948716.485    19948716.263    19948724.958
       239.000         207.000
 -18699787.37549 -14523187.31047  21309070.912    21309070.624    21309083.133
       238.000         196.000
 -13545814.28849 -10533720.03846  22682692.484    22682691.672    22682702.981
       227.000         175.000
   4033547.31449   3155242.60947  21707012.295    21707011.082    21707021.310
       236.000         197.000
 -25466144.28549 -19829252.28747  20730601.263    20730600.639    20730608.926
       245.000         210.000
 00  4 19 17 34 29.9980000  0  7G16G 2G 4G24G 5G 7G 9
  -4857831.52349  -3766988.32445  24315013.748    24315012.947    24315032.727
       212.000         148.000
   5799771.06249   4523048.02446  22533264.032    22533262.476    22533275.744
       226.000         179.000
 -27501974.87049 -21414566.66247  19944630.989    19944630.758    19944639.443
       239.000         207.000
 -18791626.63049 -14594750.26747  21291594.374    21291594.104    21291606.570
       237.000         196.000
 -13635198.37649 -10603369.92346  22665683.173    22665682.404    22665693.695
       227.000         175.000
   4088163.86849   3197800.85747  21717405.544    21717404.324    21717414.600
       236.000         197.000
 -25481144.51049 -19840940.79847  20727746.893    20727746.227    20727754.515
       245.000         210.000
 00  4 19 17 34 59.9980000  0  7G16G 2G 4G24G 5G 7G 9
  -4902056.10149  -3801449.10645  24306598.232    24306597.382    24306616.842
       210.000         149.000
   5859852.66849   4569864.59546  22544697.296    22544695.763    22544709.132
       227.000         179.000
 -27522830.37749 -21430817.71247  19940662.321    19940662.075    19940670.769
       239.000         207.000
 -18883107.95349 -14666034.31047  21274185.979    21274185.699    21274198.137
       238.000         197.000
 -13724494.11149 -10672950.97546  22648690.697    22648689.945    22648701.205
       227.000         175.000
   4142889.96849   3240444.47247  21727819.657    21727818.408    21727828.729
       237.000         197.000
 -25495568.26149 -19852180.11247  20725002.204    20725001.520    20725009.806
       245.000         210.000
 00  4 19 17 35 29.9980000  0  7G16G 2G 4G24G 5G 7G 9
  -4945856.37749  -3835579.30645  24298263.506    24298262.597    24298281.772
       212.000         149.000
   5920219.56649   4616903.47346  22556184.839    22556183.352    22556196.774
       225.000         178.000
 -27543052.54249 -21446575.24547  19936814.172    19936813.917    19936822.600
       239.000         207.000
 -18974216.83049 -14737028.13447  21256848.462    21256848.165    21256860.568
       238.000         197.000
 -13813683.60949 -10742449.25146  22631718.424    22631717.702    22631728.945
       227.000         175.000
   4197773.11149   3283210.46347  21738263.612    21738262.371    21738272.729
       236.000         197.000
 -25509404.86049 -19862961.90047  20722369.257    20722368.539    20722376.841
       245.000         210.000
 00  4 19 17 35 59.9980000  0  7G16G 2G 4G24G 5G 7G 9
  -4989285.38549  -3869420.10845  24289999.409    24289998.412    24290017.591
       213.000         157.000
   5980840.36349   4664140.21946  22567720.904    22567719.325    22567732.750
       228.000         179.000
 -27562679.67149 -21461869.12247  19933079.247    19933079.000    19933087.682
       239.000         207.000
 -19064988.20349 -14807758.96747  21239575.165    21239574.861    21239587.246
       237.000         198.000
 -13902814.46849 -10811901.83746  22614757.363    22614756.610    22614767.830
       227.000         174.000
   4252772.80949   3326067.27347  21748729.752    21748728.517    21748738.895
       236.000         196.000
 -25522695.13249 -19873317.98647  20719840.215    20719839.514    20719847.840
       245.000         210.000
 00  4 19 17 36 29.9980000  0  7G16G 2G 4G24G 5G 7G 9
  -5032329.77949  -3902961.12445  24281808.360    24281807.377    24281826.768
       209.000         153.000
   6041726.87149   4711583.99046  22579307.436    22579305.829    22579319.326
       227.000         178.000
 -27581688.63349 -21476681.30747  19929461.938    19929461.716    19929470.390
       239.000         207.000
 -19155399.88649 -14878209.52147  21222370.290    21222370.002    21222382.380
       237.000         198.000
 -13991884.28049 -10881306.82646  22597807.947    22597807.143    22597818.315
       228.000         174.000
   4307893.47449   3369018.34247  21759218.926    21759217.696    21759228.095
       236.000         196.000
 -25535409.91649 -19883225.63547  20717420.690    20717419.993    20717428.354
       245.000         210.000
 00  4 19 17 36 59.9980000  0  7G16G 2G 4G24G 5G 7G 9
  -5074958.03849  -3936177.95445  24273696.311    24273695.357    24273714.889
       204.000         151.000
   6102884.89049   4759239.32046  22590945.664    22590944.014    22590957.566
       224.000         177.000
 -27600072.66849 -21491006.53847  19925963.580    19925963.355    19925972.000
       239.000         207.000
 -19245429.72249 -14948362.53747  21205238.107    21205237.808    21205250.177
       237.000         198.000
 -14080891.06049 -10950662.71546  22580870.487    22580869.675    22580880.821
       226.000         175.000
   4363138.68149   3412066.44947  21769731.866    21769730.607    21769741.012
       237.000         196.000
 -25547546.18549 -19892682.50347  20715111.232    20715110.557    20715118.935
       245.000         210.000
 00  4 19 17 37 29.9980000  0  7G16G 2G 4G24G 5G 7G 9
  -5117171.64649  -3969071.51045  24265663.132    24265662.258    24265682.145
       208.000         151.000
   6164312.63949   4807104.84846  22602635.218    22602633.539    22602647.117
       228.000         178.000
 -27617836.75149 -21504848.68547  19922583.218    19922582.965    19922591.609
       239.000         207.000
 -19335071.22249 -15018212.94547  21188179.822    21188179.506    21188191.879
       237.000         198.000
 -14169851.40349 -11019982.41446  22563941.823    22563941.045    22563952.203
       227.000         176.000
   4418476.84349   3455186.99647  21780262.469    21780261.184    21780271.596
       237.000         196.000
 -25559108.45949 -19901692.09947  20712911.022    20712910.347    20712918.728
       245.000         210.000
 00  4 19 17 37 59.9980000  0  7G16G 2G 4G24G 5G 7G 9
  -5158958.54649  -4001632.71745  24257711.393    24257710.476    24257730.230
       215.000         153.000
   6226018.41549   4855186.98946  22614377.577    22614375.935    22614389.559
       225.000         178.000
 -27634971.64649 -21518200.54747  19919322.548    19919322.303    19919330.933
       239.000         207.000
 -19424319.36249 -15087756.84247  21171196.384    21171196.071    21171208.421
       238.000         198.000
 -14258754.09449 -11089257.17846  22547024.196    22547023.373    22547034.535
       226.000         175.000
   4473884.00249   3498361.30647  21790806.224    21790804.914    21790815.312
       237.000         196.000
 -25570066.77949 -19910231.07847  20710825.764    20710825.079    20710833.463
       245.000         210.000
 00  4 19 17 38 29.9980000  0  7G16G 2G 4G24G 5G 7G 9
  -5200330.95549  -4033870.93145  24249838.509    24249837.665    24249857.166
       208.000         150.000
   6287965.80349   4903457.42146  22626166.052    22626164.349    22626178.046
       226.000         177.000
 -27651510.57949 -21531088.03247  19916175.302    19916175.062    19916183.672
       239.000         207.000
 -19513214.94149 -15157026.01547  21154280.047    21154279.720    21154292.049
       238.000         198.000
 -14347623.43149 -11158505.95746  22530112.862    22530112.087    22530123.254
       228.000         176.000
   4529333.35149   3541568.48447  21801357.945    21801356.642    21801367.047
       236.000         196.000
 -25580449.01949 -19918321.16847  20708850.118    20708849.427    20708857.834
       245.000         211.000
 00  4 19 17 38 59.9980000  0  7G16G 2G 4G24G 5G 7G 9
  -5241283.82149  -4065782.05345  24242045.027    24242044.352    24242064.154
       206.000         148.000
   6350176.18949   4951932.75546  22638004.455    22638002.757    22638016.552
       227.000         177.000
 -27667450.94649 -21543509.10647  19913141.971    19913141.730    19913150.317
       239.000         207.000
 -19601748.97449 -15226013.47347  21137432.496    21137432.179    21137444.466
       238.000         198.000
 -14436452.35149 -11227723.23046  22513209.244    22513208.463    22513219.634
       228.000         176.000
   4584828.77749   3584811.57147  21811918.433    21811917.152    21811927.576
       237.000         195.000
 -25590263.76849 -19925969.05847  20706982.453    20706981.765    20706990.181
       245.000         210.000
 00  4 19 17 39 29.9980000  0  7G16G 2G 4G24G 5G 7G 9
  -5281835.82949  -4097380.83045  24234328.215    24234327.467    24234347.427
       214.000         161.000
   6412648.68249   5000612.37146  22649892.903    22649891.132    22649904.910
       223.000         175.000
 -27682787.24849 -21555459.47447  19910223.557    19910223.323    19910231.898
       239.000         207.000
 -19689931.43149 -15294726.97147  21120651.848    21120651.528    21120663.798
       238.000         198.000
 -14525250.05349 -11296916.18046  22496311.584    22496310.802    22496321.930
       229.000         177.000
   4640377.48849   3628096.17447  21822489.129    21822487.814    21822498.218
       238.000         195.000
 -25599517.55549 -19933179.83647  20705221.470    20705220.820    20705229.254
       245.000         210.000
 00  4 19 17 39 59.9980000  0  7G16G 2G 4G24G 5G 7G 9
  -5321947.47149  -4128636.48546  24226695.429    24226694.569    24226714.610
       218.000         163.000
   6475417.88349   5049523.15446  22661837.619    22661835.917    22661849.736
       229.000         178.000
 -27697475.31249 -21566904.71647  19907428.500    19907428.274    19907436.865
       239.000         206.000
 -19777722.15549 -15363135.21647  21103945.734    21103945.425    21103957.660
       238.000         197.000
 -14613966.63149 -11366045.91546  22479429.325    22479428.549    22479439.687
       228.000         178.000
   4696050.83049   3671477.89947  21833083.541    21833082.208    21833092.612
       237.000         196.000
 -25608181.34349 -19939930.86747  20703572.809    20703572.176    20703580.617
       245.000         210.000
 00  4 19 17 40 29.9980000  0  7G16G 2G 4G24G 5G 7G 9
  -5361622.34849  -4159551.76845  24219145.231    24219144.543    24219164.632
       205.000         143.000
   6538491.93649   5098671.50646  22673840.488    22673838.745    22673852.561
       224.000         178.000
 -27711516.54549 -21577845.94447  19904756.549    19904756.307    19904764.914
       239.000         206.000
 -19865090.66649 -15431214.47047  21087319.983    21087319.665    21087331.846
       239.000         197.000
 -14702589.59049 -11435102.71846  22462564.880    22462564.095    22462575.258
       229.000         179.000
   4751877.47049   3714979.06647  21843707.080    21843705.750    21843716.160
       238.000         195.000
 -25616261.95949 -19946227.49047  20702035.151    20702034.507    20702042.974
       245.000         210.000
 00  4 19 17 40 59.9980000  0  7G16G 2G 4G24G 5G 7G 9
  -5400854.05949  -4190121.80145  24211679.523    24211678.847    24211698.641
       216.000         151.000
   6601890.28649   5148072.54046  22685904.978    22685903.278    22685917.159
       227.000         179.000
 -27724901.56249 -21588275.82847  19902209.475    19902209.223    19902217.814
       239.000         206.000
 -19952003.58249 -15498938.72547  21070780.924    21070780.591    21070792.744
       240.000         197.000
 -14791097.48649 -11504069.87446  22445722.314    22445721.560    22445732.710
       229.000         179.000
   4807867.56749   3758607.60247  21854361.725    21854360.397    21854370.806
       237.000         195.000
 -25623726.24349 -19952043.85047  20700614.735    20700614.104    20700622.604
       244.000         210.000
 00  4 19 17 41 29.9980000  0  7G16G 2G 4G24G 5G 7G 9
  -5439657.72049  -4220358.24545  24204295.746    24204294.922    24204314.569
       218.000         160.000
   6665569.59049   5197692.48646  22698022.920    22698021.253    22698035.182
       225.000         176.000
 -27737659.20749 -21598216.85347  19899781.786    19899781.526    19899790.095
       239.000         207.000
 -20038495.59049 -15566334.98447  21054321.941    21054321.636    21054333.738
       240.000         198.000
 -14879511.04549 -11572963.49746  22428897.687    22428896.970    22428908.128
       229.000         179.000
   4863993.68849   3802342.13447  21865042.288    21865040.931    21865051.358
       237.000         194.000
 -25630590.73449 -19957392.83747  20699308.451    20699307.841    20699316.368
       245.000         210.000
 00  4 19 17 41 59.9980000  0  7G16G 2G 4G24G 5G 7G 9
  -5478023.90049  -4250253.76345  24196994.809    24196994.042    24197013.688
       208.000         152.000
   6729539.37149   5247538.78646  22710196.270    22710194.533    22710208.510
       228.000         176.000
 -27749784.47049 -21607665.11147  19897474.410    19897474.170    19897482.745
       239.000         206.000
 -20124550.58549 -15633390.72447  21037946.137    21037945.834    21037957.904
       239.000         198.000
 -14967805.34149 -11641764.16546  22412095.814    22412095.066    22412106.246
       229.000         180.000
   4920251.24049   3846179.07847  21875747.848    21875746.488    21875756.923
       238.000         194.000
 -25636830.11449 -19962254.72547  20698121.101    20698120.530    20698129.061
       245.000         210.000
 00  4 19 17 42 29.9980000  0  7G16G 2G 4G24G 5G 7G 9
  -5515967.40549  -4279819.90945  24189774.000    24189773.416    24189793.218
       207.000         151.000
   6793795.98449   5297608.60846  22722424.124    22722422.381    22722436.413
       221.000         174.000
 -27761292.99949 -21616632.79347  19895284.443    19895284.190    19895292.740
       239.000         207.000
 -20210186.22149 -15700119.67747  21021650.131    21021649.833    21021661.885
       240.000         198.000
 -15056001.89349 -11710488.68346  22395312.490    22395311.760    22395322.942
       228.000         179.000
   4976604.89449   3890090.91347  21886471.661    21886470.311    21886480.759
       236.000         194.000
 -25642448.05149 -19966632.37047  20697052.089    20697051.490    20697060.032
       244.000         210.000
 00  4 19 17 42 59.9980000  0  7G16G 2G 4G24G 5G 7G 9
  -5553448.65849  -4309025.81945  24182641.310    24182640.729    24182660.790
       217.000         156.000
   6858356.20849   5347914.97146  22734709.582    22734707.942    22734722.068
       223.000         175.000
 -27772146.37349 -21625089.97047  19893219.112    19893218.852    19893227.393
       239.000         207.000
 -20295405.88149 -15766524.50347  21005433.292    21005432.986    21005445.013
       240.000         199.000
 -15144083.82549 -11779123.88446  22378551.017    22378550.279    22378561.458
       228.000         180.000
   5033061.55749   3934083.00647  21897215.109    21897213.745    21897224.193
       236.000         194.000
 -25647427.69949 -19970512.64647  20696104.546    20696103.922    20696112.484
       244.000         210.000
